GFSSW_sfc_30mbdewp_000.txt.gz
Dewpoint
53 53 53 53 53 54 54 55 55 55 55 55 56 57 56 57 57 52 28 31 35 47 67 67 61 57 63 50 51 50 40 39 41 45 46 54 57 59 61 61 60 62 62 64 68
52 52 53 53 53 53 54 54 54 54 55 55 56 56 56 57 52 39 35 44 48 52 38 46 42 45 39 36 45 45 41 40 42 44 49 53 56 59 58 58 59 61 65 68 69
52 52 52 52 52 53 53 54 54 54 54 55 55 56 56 58 37 19 42 52 56 52 31 32 24 27 25 30 40 44 39 42 43 44 51 52 56 56 56 56 60 60 65 67 68
51 51 52 52 52 52 53 53 53 54 54 55 55 56 57 54 19 22 57 57 62 54 33 28 20 19 25 26 27 36 40 43 43 48 50 51 54 56 55 55 59 62 65 67 67
51 51 51 51 51 52 52 53 53 53 54 54 55 55 52 34 28 28 41 64 65 51 32 25 20 24 26 30 29 27 28 42 45 45 47 51 53 55 54 59 62 63 65 66 66
50 51 52 51 51 52 52 53 53 53 53 54 55 55 46 24 28 30 48 59 51 40 32 22 21 29 29 29 25 24 38 43 46 46 48 51 54 55 57 62 63 63 64 65 65
50 50 51 51 51 51 52 53 52 52 53 55 54 56 46 27 29 37 41 44 41 32 29 26 25 27 26 25 25 41 41 43 45 47 52 52 52 52 58 61 63 64 64 65 66
51 51 50 50 51 52 52 52 51 52 57 55 55 56 35 39 39 42 42 29 28 32 26 24 25 21 23 25 37 39 41 39 44 47 52 48 45 55 58 59 61 63 64 65 66
51 51 51 52 52 52 52 51 51 56 56 56 54 49 36 43 37 41 39 28 23 25 25 24 25 20 21 20 37 36 37 39 42 46 49 48 47 56 58 58 60 62 63 64 65
51 51 51 52 52 51 50 51 51 55 57 56 55 44 38 31 35 36 35 27 21 18 20 18 16 19 21 21 32 36 37 38 41 43 47 47 48 56 56 57 58 60 60 62 63
51 51 51 51 51 50 49 39 30 31 48 32 34 36 34 33 36 34 30 27 17 10 8 12 12 14 20 18 28 36 38 38 41 42 44 46 48 55 56 55 56 57 58 59 60
51 51 51 51 50 50 48 23 31 28 17 24 26 31 32 36 30 31 30 28 24 22 9 14 10 16 21 23 24 35 35 37 36 38 43 46 47 54 56 55 55 56 57 58 59
50 50 51 49 49 45 35 24 33 28 19 21 27 27 28 33 29 28 30 25 21 21 10 9 11 16 21 24 23 27 29 26 35 40 45 47 46 51 55 55 56 56 57 57 58
50 50 49 48 30 42 29 34 33 31 21 22 26 27 32 35 30 31 30 27 17 19 12 8 10 16 21 25 25 23 24 23 32 37 34 43 34 47 50 53 53 54 55 56 57
49 50 49 47 43 35 25 39 35 30 16 21 25 29 29 27 22 27 29 25 26 16 13 11 9 12 21 20 25 21 24 25 30 34 36 42 35 35 49 49 50 52 53 54 56
48 48 48 46 45 42 42 40 31 22 15 19 29 23 26 27 23 22 26 24 25 19 11 13 12 14 11 21 25 23 19 25 29 32 30 33 37 33 47 47 48 51 53 54 55
48 48 48 46 26 40 36 19 18 16 20 15 20 21 18 21 23 20 22 21 22 20 19 14 8 13 18 16 23 20 20 17 19 25 23 32 38 34 38 47 46 49 52 54 56
47 48 47 47 46 44 28 9 15 18 16 22 21 19 13 19 20 19 18 23 20 18 17 13 8 10 15 16 18 20 19 18 13 16 25 35 35 35 38 41 47 49 52 53 55
48 44 42 43 47 41 16 -1 10 21 24 24 18 16 19 18 18 19 18 19 21 16 13 13 11 15 13 17 17 17 17 19 17 22 18 27 29 31 34 36 43 45 50 51 54
44 41 35 45 45 31 15 -4 7 21 21 10 15 18 13 18 15 16 17 19 16 18 14 13 10 11 12 17 18 16 20 16 17 14 15 20 21 24 28 32 35 42 47 50 53
39 21 27 46 35 25 8 3 4 12 14 5 16 18 17 13 16 17 16 18 17 15 14 14 12 10 14 12 11 17 17 18 19 18 13 12 18 25 23 28 30 37 45 48 50
39 -0 32 36 28 25 14 11 12 11 12 13 18 18 14 13 11 15 16 16 19 17 16 13 12 10 10 14 16 15 16 17 14 15 20 16 14 24 26 29 37 36 45 45 49
37 34 36 32 26 27 28 27 25 26 24 25 22 17 18 19 19 18 17 18 18 20 20 17 11 8 8 10 17 15 20 19 19 19 17 14 14 28 31 34 42 42 44 45 48
37 21 34 31 29 24 21 18 22 26 28 27 28 27 24 24 25 21 22 28 33 34 39 32 14 10 9 8 12 14 17 20 17 15 17 18 16 22 32 34 40 44 44 45 47
38 33 38 33 30 34 25 22 22 23 25 27 26 28 27 25 26 22 22 24 33 37 34 17 14 12 13 11 15 15 17 21 18 17 15 16 20 20 28 33 37 42 46 46 45
38 38 38 37 36 27 26 23 26 26 25 23 27 29 33 28 28 28 29 31 30 37 35 24 13 13 12 11 12 11 15 22 21 21 21 19 21 24 29 37 38 40 46 46 46
38 39 39 35 36 31 26 28 28 30 27 26 25 27 32 37 33 35 35 35 38 33 36 35 18 14 11 12 12 11 11 14 17 21 20 19 19 24 29 33 34 38 43 44 45

GFSSW_sfc_30mbdewp_003.txt.gz
Dewpoint
53 53 53 53 53 54 54 54 55 55 55 56 56 57 56 56 56 55 37 30 38 71 68 66 58 63 64 56 56 50 41 38 39 46 46 54 53 59 59 60 59 60 60 59 64
52 52 53 53 53 53 53 54 54 54 55 55 56 56 56 56 52 40 40 43 56 69 58 50 50 54 43 37 44 43 42 39 41 45 48 54 53 58 59 57 57 61 63 64 66
52 52 52 52 53 53 53 53 54 54 54 55 55 56 56 56 40 24 52 57 63 63 51 43 41 36 27 32 38 43 40 42 42 44 50 53 54 57 56 55 56 59 63 64 65
51 51 52 52 52 53 53 53 53 53 54 54 55 56 56 54 20 22 61 53 50 56 35 32 28 25 20 19 31 37 40 41 42 48 50 51 54 54 55 51 56 61 64 64 64
51 51 51 52 52 52 52 53 53 53 53 54 55 55 52 33 28 30 49 65 61 49 29 25 21 19 16 26 27 30 29 37 42 48 49 52 53 53 55 55 59 62 64 64 64
51 51 52 52 52 52 52 53 53 53 53 54 54 54 46 24 29 36 57 61 57 45 33 26 21 23 19 30 29 26 31 35 43 47 50 50 53 53 54 60 61 63 63 64 64
50 51 52 52 51 52 52 53 52 52 53 55 55 55 46 28 32 36 42 46 51 40 31 25 25 25 29 28 26 42 42 44 46 47 50 52 52 51 55 60 61 61 62 63 64
51 51 51 51 51 52 52 52 51 52 55 56 55 55 38 41 41 42 42 36 37 35 29 28 28 22 22 28 39 39 41 38 45 48 51 47 39 51 58 59 59 60 61 63 64
51 51 52 52 52 51 51 50 52 55 55 56 55 51 37 43 39 40 42 28 26 34 33 27 27 22 23 25 35 39 33 38 43 47 51 47 42 51 57 58 58 59 60 62 63
51 51 51 51 51 51 50 50 52 55 56 56 56 47 42 33 35 36 39 24 19 24 24 22 22 14 23 26 23 31 36 38 39 45 49 47 46 54 57 57 57 59 60 62 63
50 50 51 51 50 49 49 40 35 34 48 34 32 38 35 35 33 35 32 30 14 18 18 19 12 9 15 23 28 31 36 36 41 44 44 45 45 52 56 56 56 59 60 61 61
50 50 50 49 49 49 46 16 30 27 14 17 22 25 27 28 25 26 31 28 24 20 10 13 7 15 19 21 22 35 35 36 40 42 42 45 44 49 55 55 55 57 59 60 61
50 49 50 48 48 44 36 27 33 29 14 15 21 23 26 28 26 24 26 27 26 25 17 7 8 15 22 21 20 26 31 35 36 39 44 44 41 47 54 55 55 56 56 57 58
49 49 48 47 33 40 31 36 36 32 18 20 24 28 33 32 29 29 25 27 22 24 20 15 10 13 17 21 22 21 31 34 38 37 35 41 32 42 47 53 55 55 55 56 57
49 48 48 46 43 35 30 39 36 30 10 20 24 30 34 31 23 29 30 27 25 22 19 15 10 12 14 17 24 24 27 31 35 35 35 40 35 32 48 48 52 54 54 55 56
48 48 48 46 45 42 41 40 33 22 11 19 28 24 26 28 26 28 27 26 27 24 16 17 15 9 14 20 25 26 26 29 33 31 26 28 33 26 43 44 45 50 53 54 55
47 47 47 45 33 40 38 23 16 15 20 15 21 21 19 20 25 21 22 23 23 24 23 22 16 13 10 13 24 24 22 21 21 25 21 29 35 29 35 42 43 45 51 53 54
46 47 47 46 46 44 31 9 10 15 12 20 21 20 14 18 22 20 23 19 25 25 22 22 16 18 14 10 17 22 19 21 19 20 20 34 29 29 37 37 44 47 49 51 53
47 43 42 42 46 43 18 -6 2 13 22 23 20 16 13 18 19 19 20 19 21 24 20 19 19 16 14 17 18 22 22 21 21 23 20 24 33 32 35 37 40 43 47 51 52
43 40 34 44 47 35 12 -9 -1 19 23 13 13 18 15 18 13 17 19 21 23 24 26 21 16 12 11 12 18 18 21 18 21 19 19 20 25 19 29 30 38 43 45 49 53
41 22 31 46 37 25 12 1 -2 7 18 8 9 15 19 14 15 15 15 19 19 21 25 23 15 8 13 9 8 15 17 22 20 20 17 17 18 30 28 30 32 39 44 47 52
39 5 30 39 30 24 15 13 9 9 6 5 12 16 13 13 10 13 14 19 20 18 17 21 20 16 11 15 12 11 16 19 17 22 20 19 17 26 31 32 36 34 41 46 53
34 33 35 35 20 23 27 24 23 19 19 19 11 15 16 13 12 17 17 19 20 19 23 20 17 17 17 17 15 14 14 17 19 20 21 16 16 29 31 34 36 40 44 49 52
35 24 31 33 30 27 28 24 21 24 25 26 22 25 26 25 26 24 22 24 30 24 29 28 27 22 16 16 13 11 16 18 18 15 17 20 17 23 25 32 36 38 47 49 51
36 32 38 33 32 35 29 23 20 20 24 25 28 26 26 24 23 22 24 23 22 26 36 32 26 26 24 21 17 12 9 16 20 18 17 16 22 22 27 31 35 40 49 49 50
34 36 37 36 36 34 28 23 25 27 27 21 24 22 25 29 28 26 26 25 29 37 37 28 31 22 19 22 17 13 13 13 18 16 21 20 25 27 33 38 40 41 49 49 49
38 37 35 29 32 30 29 27 26 28 27 28 26 25 25 26 30 32 33 34 36 38 40 40 34 33 23 17 15 15 15 15 21 23 21 21 24 31 28 33 37 41 48 50 50

GFSSW_sfc_30mbdewp_006.txt.gz
Dewpoint
52 53 53 53 53 54 54 54 55 55 55 55 56 57 57 57 56 54 39 33 35 67 69 55 54 54 53 47 48 48 38 33 36 38 41 46 46 52 53 55 56 56 54 57 60
52 52 52 52 53 53 54 54 54 54 54 55 55 56 57 56 47 34 33 40 56 71 52 49 44 51 41 32 37 40 38 35 36 39 43 46 46 51 53 53 53 56 56 58 60
51 52 52 52 52 53 53 54 54 54 54 54 55 55 57 56 39 20 48 58 62 69 39 41 34 40 24 20 26 33 36 38 38 38 43 46 47 50 47 49 51 55 57 58 60
51 51 52 52 52 52 53 53 54 53 54 54 54 55 56 51 15 27 53 58 61 59 38 34 26 26 15 17 22 29 30 32 36 41 42 45 47 49 48 46 50 54 58 59 60
50 51 51 52 52 52 53 53 53 53 53 53 54 54 51 35 24 39 50 56 50 50 31 27 18 19 14 18 20 24 25 26 30 38 39 45 46 47 48 51 52 56 59 59 59
50 51 52 52 52 52 52 53 53 52 52 53 54 54 46 23 24 38 47 52 43 38 27 22 17 16 15 17 22 23 25 26 27 36 42 45 47 49 49 50 55 57 58 58 59
51 51 51 51 51 51 52 52 51 51 52 53 55 53 43 24 27 30 35 37 42 36 26 22 18 14 16 19 22 25 29 37 37 39 44 46 48 48 50 53 56 57 58 58 59
50 50 50 50 50 51 51 51 51 52 54 56 55 52 33 34 38 37 36 35 38 41 32 26 21 18 14 23 25 26 29 30 39 43 46 46 37 47 52 53 56 56 57 58 59
50 50 50 51 51 51 50 50 51 55 56 56 54 50 29 42 38 36 38 30 30 34 30 24 21 20 18 22 24 27 26 27 40 44 47 46 38 47 52 52 53 55 55 57 59
51 50 50 50 50 50 49 50 53 56 56 55 54 47 39 26 36 33 39 27 26 31 27 23 21 17 19 19 20 25 26 27 30 43 45 44 40 48 51 51 50 55 55 56 57
50 50 50 50 49 49 47 34 39 41 48 31 24 30 24 28 33 30 34 24 21 24 15 15 13 12 17 20 22 24 28 28 30 41 43 40 40 43 51 51 50 53 55 55 55
50 50 50 49 48 48 44 15 25 24 13 12 13 16 18 22 22 21 30 27 20 18 14 11 8 10 14 19 21 24 25 26 30 40 40 37 39 42 46 51 50 51 54 56 56
50 49 49 49 47 45 28 26 29 23 15 11 13 14 18 19 21 21 24 26 22 16 12 11 5 8 12 14 20 23 24 26 30 39 40 37 38 38 41 48 51 50 51 54 55
49 49 48 48 36 30 26 31 32 28 13 12 20 24 29 26 24 25 21 23 21 17 14 8 6 7 10 14 19 21 23 25 29 33 33 38 30 32 36 45 49 51 51 50 55
49 48 48 47 37 28 26 28 29 28 9 18 21 29 30 28 25 26 22 19 19 18 17 12 6 8 7 10 15 21 22 24 25 30 32 35 34 30 37 37 44 48 51 50 50
49 48 47 36 39 34 31 32 32 21 10 13 22 24 25 25 23 27 23 21 19 18 19 15 12 7 8 8 14 20 22 25 26 26 27 30 31 26 29 35 34 41 48 50 49
48 46 45 40 23 32 33 19 13 9 15 10 15 20 17 13 19 22 21 19 18 20 18 15 11 8 5 9 10 18 23 24 23 23 23 29 29 28 25 28 31 27 38 49 49
46 45 39 38 38 36 28 5 5 8 9 16 18 18 17 15 15 18 19 15 16 19 17 16 10 11 9 6 13 17 20 21 19 19 21 26 26 25 29 28 27 28 36 45 49
45 32 29 35 40 38 21 -2 3 6 10 7 9 13 14 15 14 17 17 17 14 18 17 15 15 12 9 10 10 16 18 21 20 20 17 17 25 26 26 30 30 32 37 41 47
39 32 26 35 45 37 16 2 -1 -0 7 14 10 10 9 8 13 13 13 16 16 17 21 20 17 17 13 12 10 12 20 19 20 20 18 19 20 23 25 23 23 27 36 41 46
36 23 32 45 44 34 14 4 2 -1 3 10 8 8 11 11 14 12 13 15 17 18 22 22 20 14 15 10 8 11 13 20 20 20 18 19 19 22 24 25 25 22 35 37 43
32 17 34 42 31 22 18 12 11 4 -2 -1 5 3 7 13 13 14 14 14 18 20 22 24 22 18 9 9 8 9 14 19 20 22 21 19 16 19 22 24 23 22 22 25 40
31 22 24 33 17 13 17 15 14 13 4 0 -2 3 5 8 11 12 11 12 13 18 20 22 22 20 19 9 9 6 9 15 19 20 22 20 19 20 21 23 25 33 34 36 45
31 17 17 32 23 24 21 24 21 17 14 8 6 5 2 7 10 12 14 12 17 17 33 28 19 20 17 17 12 9 8 8 12 16 19 19 20 20 18 22 21 25 34 39 49
30 21 31 17 27 34 33 29 23 18 20 17 15 17 11 10 12 14 17 19 25 27 31 34 28 24 20 17 16 14 10 10 8 10 15 18 18 20 22 22 22 21 24 37 49
33 31 34 29 27 25 22 25 25 21 23 23 21 16 15 16 17 15 15 17 15 22 23 30 31 29 25 22 19 17 16 11 8 9 10 12 15 18 20 22 21 21 22 36 48
35 34 32 24 20 21 19 21 23 29 27 24 26 26 25 24 27 28 28 30 29 26 27 30 32 33 26 24 23 20 19 16 12 9 10 11 13 14 15 19 22 24 33 37 46

GFSSW_sfc_30mbdewp_009.txt.gz
Dewpoint
52 53 53 53 53 53 54 54 55 55 55 55 56 56 57 58 56 53 40 34 37 55 64 52 52 43 46 42 41 38 42 34 34 41 34 38 37 43 47 48 50 52 54 57 60
52 52 52 53 53 53 54 54 54 54 54 55 55 56 57 57 46 32 37 43 51 58 47 41 39 40 39 37 37 37 46 37 33 44 37 38 37 42 44 47 48 51 55 59 60
51 52 52 52 53 53 53 54 54 54 54 54 55 55 56 56 36 24 46 54 62 62 35 36 34 37 35 32 29 31 43 39 35 35 40 38 38 41 41 43 47 50 54 57 59
51 51 51 52 52 53 53 53 54 53 53 54 54 55 56 48 21 34 50 57 58 49 41 31 32 30 31 24 25 28 32 32 34 36 38 38 40 39 38 40 46 51 54 56 58
51 51 51 51 51 52 52 53 53 52 53 53 53 55 51 33 24 44 51 58 52 43 40 28 27 25 27 22 23 25 28 27 28 33 34 40 40 39 38 40 46 51 53 55 57
50 51 52 51 51 51 52 53 52 52 52 53 54 55 46 26 21 33 34 43 37 39 30 26 26 23 22 22 22 24 25 25 27 26 34 38 39 42 40 43 47 52 52 54 55
50 51 51 51 49 50 51 52 51 51 52 54 54 52 36 27 22 23 35 34 33 32 28 23 22 17 17 19 21 24 24 28 29 28 32 36 37 38 42 46 47 51 52 52 54
50 50 51 50 49 50 51 51 50 52 55 56 57 49 31 27 30 26 25 26 29 31 27 21 17 17 17 20 22 22 24 24 30 29 33 36 34 40 43 45 45 49 52 52 53
50 50 50 51 50 50 50 49 50 55 56 57 54 47 28 37 32 30 29 29 28 26 30 24 21 16 17 16 18 24 22 24 30 32 37 37 41 41 45 43 45 47 50 52 53
50 50 50 50 49 49 48 48 50 56 56 54 50 43 35 27 28 30 31 28 23 26 25 23 18 16 15 18 18 24 24 25 33 30 37 36 41 42 45 44 42 45 47 50 52
50 50 50 49 49 48 46 33 38 46 46 33 31 26 25 25 32 28 30 26 20 25 18 16 11 9 15 19 21 23 24 23 25 29 34 35 36 40 45 45 43 44 45 48 50
50 50 49 49 48 47 46 21 21 20 14 14 17 18 19 18 18 25 29 21 16 18 19 12 9 9 15 19 20 21 22 24 27 30 32 34 35 38 45 45 45 44 45 46 48
50 50 49 48 46 45 20 23 22 21 14 11 12 12 12 13 13 16 19 24 16 14 15 8 7 9 12 18 20 21 21 22 24 36 35 34 34 35 38 45 46 45 46 46 46
50 49 49 47 35 24 22 26 23 21 14 8 13 12 15 15 12 14 18 17 22 16 12 11 7 6 8 14 18 19 21 22 23 32 32 30 28 33 34 37 44 46 46 46 46
50 49 48 46 36 28 19 20 19 22 9 13 17 21 21 21 23 21 22 17 19 17 14 10 7 6 7 9 16 17 20 22 23 28 36 27 26 30 32 34 38 44 46 46 45
49 48 47 35 34 33 27 24 22 17 11 13 19 22 24 23 18 23 20 18 19 17 15 12 11 6 6 8 14 16 19 21 20 23 22 28 28 28 34 32 34 37 44 47 47
49 47 44 40 25 24 23 19 11 10 13 11 12 15 16 15 16 20 18 15 15 14 15 15 12 11 5 6 10 15 18 19 19 18 18 23 27 36 30 31 32 32 35 42 48
48 44 39 34 34 33 26 12 7 11 11 9 10 15 12 12 13 17 17 14 15 15 13 14 12 13 9 6 7 12 15 16 18 18 19 21 22 24 31 28 29 30 27 33 45
46 33 28 27 30 30 21 7 8 11 10 9 11 10 12 11 11 11 16 15 14 14 12 13 15 13 11 7 5 8 12 17 17 20 19 20 21 25 29 29 28 28 26 27 38
40 36 26 27 35 31 21 12 8 8 7 7 8 9 11 12 12 12 13 15 14 13 15 15 14 15 10 8 6 3 10 14 18 18 17 17 18 21 25 27 26 27 26 27 32
39 23 26 31 37 32 18 14 13 11 7 4 8 10 8 8 9 11 12 11 12 15 14 13 16 16 16 11 8 4 4 12 17 18 17 17 19 20 25 28 26 27 24 25 31
32 25 27 35 31 27 25 21 18 13 10 5 3 8 12 11 10 10 11 12 12 14 14 15 16 18 16 15 12 8 6 6 15 20 18 19 17 22 22 25 25 26 26 25 28
31 28 26 21 16 17 20 20 19 19 16 10 5 3 7 9 10 12 12 13 14 15 16 16 17 17 19 17 13 12 10 7 7 16 21 19 19 21 22 22 24 26 26 26 29
34 23 20 21 20 15 13 15 17 17 17 14 12 8 3 4 7 9 12 13 14 14 27 22 20 19 18 19 14 9 10 7 6 7 14 16 20 22 22 22 23 25 25 29 31
34 26 22 24 21 25 30 33 26 30 27 21 17 13 7 4 5 7 10 12 12 14 16 20 21 21 20 20 19 14 7 6 5 8 10 14 17 20 24 23 23 23 24 24 26
36 30 31 27 26 25 26 23 20 23 27 28 24 18 12 10 8 6 8 13 16 12 19 20 21 24 21 18 17 15 15 11 8 6 7 10 13 17 21 24 24 23 24 24 24
40 39 34 26 23 21 18 24 23 17 26 32 33 34 29 21 26 26 24 13 16 21 22 23 25 28 26 25 23 19 16 15 15 13 9 8 10 13 16 21 24 24 25 26 26

GFSSW_sfc_30mbdewp_012.txt.gz
Dewpoint
52 52 53 53 53 54 54 55 55 55 55 55 55 56 57 57 56 51 43 35 37 58 56 45 53 48 45 39 42 42 40 41 37 33 32 36 35 43 48 48 53 54 54 57 58
52 52 52 52 52 53 53 54 54 54 54 55 55 55 56 57 46 35 33 44 42 54 34 29 35 42 36 37 38 42 44 41 46 40 35 35 36 38 42 45 47 53 55 57 58
51 51 51 51 51 51 52 52 53 53 53 54 54 55 56 56 37 28 50 45 53 52 26 25 28 34 33 35 34 44 40 41 40 40 40 36 36 37 41 42 46 54 55 56 58
51 51 51 51 50 50 50 51 52 52 53 53 54 54 56 48 21 31 49 51 57 44 32 26 25 30 30 33 31 27 37 38 37 39 40 34 37 36 39 41 47 54 56 56 56
50 51 52 51 50 50 51 52 52 52 52 53 53 54 48 31 30 30 55 57 50 39 32 30 25 29 28 30 27 23 32 30 29 31 34 38 37 37 36 42 46 51 56 57 56
49 50 51 52 51 51 51 51 52 51 51 52 54 55 46 22 25 41 34 43 33 33 28 30 25 28 27 27 26 23 23 25 24 26 31 39 38 37 36 40 45 50 53 56 56
50 50 51 51 50 50 51 51 50 50 51 53 55 52 34 18 26 25 27 32 30 32 25 28 27 25 25 24 25 22 22 24 24 25 29 32 37 36 38 39 45 48 51 53 55
50 50 51 51 51 50 50 49 49 50 52 56 56 50 29 19 22 26 25 27 29 29 28 25 23 21 23 21 20 20 20 22 24 27 28 31 35 33 41 40 42 47 49 51 53
50 51 51 50 50 49 49 48 49 51 56 56 55 48 33 29 29 27 27 21 21 24 27 25 21 15 17 17 17 19 20 20 22 28 29 31 38 43 41 41 41 45 48 49 52
50 50 50 50 49 49 48 47 47 54 57 53 48 42 40 29 28 24 25 22 20 24 21 23 20 16 13 16 16 18 19 21 22 30 29 42 46 46 45 43 42 43 46 49 50
50 50 50 50 49 48 45 39 36 39 46 39 35 27 21 31 24 27 28 26 24 20 19 23 18 16 16 16 19 18 21 22 23 32 30 44 47 47 45 47 40 43 44 47 49
50 50 50 49 48 46 45 31 20 19 14 15 19 29 32 26 24 27 25 25 20 17 21 17 16 13 13 18 18 20 20 22 24 33 33 36 46 46 47 46 40 41 42 44 45
50 49 50 49 46 44 28 19 23 19 15 13 11 10 16 28 24 17 24 26 17 15 19 16 12 10 8 14 17 19 20 22 23 29 30 28 30 42 42 40 41 41 42 43 45
49 49 49 48 37 30 25 23 16 16 13 11 9 9 10 11 10 13 14 22 22 14 12 15 15 8 6 9 16 18 20 20 21 28 28 32 29 34 39 42 41 42 42 43 44
49 49 48 47 37 33 25 22 20 18 10 12 10 14 9 9 10 9 12 13 15 18 16 11 13 9 4 6 12 18 20 20 20 26 31 34 32 34 40 40 42 42 43 44 45
49 49 48 37 35 34 31 24 19 15 10 12 16 16 11 8 10 18 10 11 12 12 18 16 13 11 6 5 8 15 18 18 19 20 21 30 31 30 35 36 37 42 42 44 45
49 48 46 41 30 26 28 19 12 11 15 12 13 17 17 14 11 18 14 13 15 12 15 16 14 10 9 6 6 8 13 17 16 18 19 24 31 32 35 37 36 41 47 44 46
48 46 42 38 36 36 28 18 12 15 13 13 12 13 15 18 15 15 18 16 15 14 14 15 13 12 10 6 5 6 9 16 15 17 19 20 20 27 37 37 38 45 49 42 46
46 38 35 30 28 31 25 11 14 16 15 13 12 10 11 12 13 12 13 15 12 13 13 10 12 14 11 10 5 5 6 12 14 17 17 18 19 20 28 38 37 33 31 36 44
40 38 36 33 28 26 23 20 14 14 14 12 11 11 10 11 11 11 12 16 15 12 13 12 11 13 14 12 10 5 9 7 11 14 16 17 21 23 24 35 34 34 33 29 28
40 30 26 26 26 29 24 20 20 20 18 15 13 10 9 11 12 11 10 11 14 15 12 12 13 12 15 13 11 7 5 5 9 12 15 18 20 24 29 35 37 36 33 29 29
34 26 24 29 27 29 27 27 26 23 21 18 15 12 9 8 11 11 12 12 13 14 14 13 12 14 13 16 13 10 7 5 7 14 13 16 19 21 27 29 32 30 30 30 31
32 28 27 24 20 18 18 19 23 24 24 23 20 16 12 8 9 11 13 12 13 12 11 14 14 14 13 15 16 10 8 7 6 8 13 16 17 22 26 31 34 31 31 33 32
35 25 22 20 21 18 16 15 15 16 20 22 22 24 20 14 10 11 12 14 12 12 23 16 15 17 14 17 16 16 13 11 8 6 8 11 20 21 28 31 29 33 32 32 33
36 29 25 21 21 24 31 33 29 28 25 26 28 29 27 23 13 9 8 10 12 15 16 16 18 19 15 15 17 17 14 13 12 12 11 10 12 20 25 31 29 30 32 30 34
37 32 34 29 25 22 19 25 23 25 25 26 26 33 33 31 32 29 22 12 13 15 15 15 19 20 20 19 18 17 18 13 10 12 13 12 12 14 18 24 27 30 29 32 32
39 40 39 33 25 21 16 15 22 28 28 31 29 35 34 34 35 31 29 26 24 15 19 18 16 21 20 20 20 18 19 19 16 9 10 9 13 16 17 22 29 34 32 35 34

GFSSW_sfc_30mbdewp_015.txt.gz
Dewpoint
52 52 52 52 51 52 52 53 53 54 54 54 55 55 56 57 56 49 39 37 40 52 59 41 55 51 52 51 57 53 48 47 46 41 34 41 50 53 56 56 57 56 57 60 61
52 52 52 52 51 51 51 51 52 52 53 54 54 55 56 57 51 35 30 40 45 59 44 35 28 48 45 44 42 45 43 44 46 43 35 40 49 51 54 55 55 56 58 61 61
50 50 50 51 50 50 51 51 51 51 52 53 54 54 55 56 43 26 47 46 43 57 39 29 23 24 30 38 34 42 37 43 42 43 42 37 37 44 51 53 54 56 59 61 62
49 49 49 50 50 50 51 51 51 51 51 52 53 54 55 53 13 32 53 46 50 56 41 30 22 21 23 30 32 40 39 39 43 42 39 36 37 42 43 51 55 56 59 61 61
50 50 50 50 50 51 51 51 52 51 51 51 53 54 50 39 33 31 46 56 55 44 36 30 24 23 23 30 30 32 36 39 42 41 40 38 37 41 43 54 56 56 57 60 61
50 51 51 51 51 51 51 51 51 51 50 51 53 55 50 19 20 21 43 48 43 40 31 29 27 26 26 29 29 29 29 33 33 42 39 38 40 41 47 55 56 56 56 59 61
51 51 51 51 51 50 51 51 50 50 49 51 55 54 44 21 20 34 35 41 39 33 30 27 29 29 26 27 28 26 25 24 23 25 39 43 42 43 45 51 55 56 56 56 57
51 51 51 51 51 51 50 50 49 49 50 52 56 51 36 29 27 24 22 22 34 30 31 28 26 27 25 24 25 24 21 19 22 24 27 41 42 44 42 50 53 55 56 57 57
51 50 50 50 50 50 49 49 49 50 52 57 55 52 40 37 33 27 22 23 27 29 29 28 25 23 21 19 20 19 18 19 20 23 30 39 41 40 40 47 49 52 54 55 56
50 50 50 49 49 49 48 47 47 52 56 56 51 46 45 32 31 28 26 26 23 21 22 24 25 21 19 16 16 17 17 18 19 25 31 39 39 43 42 44 47 49 51 52 54
50 50 49 49 49 48 46 41 33 38 48 44 42 34 24 26 30 27 25 23 21 18 18 22 21 20 18 14 16 18 18 19 20 28 41 41 40 42 40 44 45 48 49 51 52
50 50 49 49 49 46 47 38 29 18 18 17 15 24 36 38 34 26 26 22 20 20 23 19 19 21 20 17 14 16 18 19 21 29 38 41 41 41 38 36 44 46 48 49 51
50 49 49 49 46 45 30 27 25 19 14 13 13 14 14 18 29 30 26 25 24 22 21 18 21 22 19 17 17 15 17 19 20 29 37 42 41 43 40 42 44 46 47 49 50
50 49 49 49 36 35 32 31 28 20 13 13 12 11 13 12 15 23 28 25 24 21 19 17 20 19 17 14 13 17 19 19 20 21 32 40 36 44 45 45 47 48 44 47 49
50 49 49 48 42 39 33 33 29 23 12 16 13 12 11 9 12 20 28 21 22 24 17 14 18 19 16 10 9 12 20 19 20 20 31 31 29 40 46 46 43 46 43 43 46
50 49 48 42 39 39 37 32 28 16 13 15 11 9 8 8 7 10 23 20 15 22 21 20 18 13 16 14 7 8 13 18 20 20 20 29 30 33 44 46 47 46 43 43 44
50 48 46 44 37 31 38 31 16 13 18 15 13 13 8 7 7 7 8 10 9 9 12 14 17 19 14 13 10 6 7 11 15 18 18 26 29 33 36 40 43 43 45 46 47
49 46 43 41 41 41 38 21 14 17 15 17 16 15 14 12 8 7 11 8 10 10 11 10 11 17 18 12 10 5 5 8 14 17 18 21 23 30 34 38 41 44 47 48 48
48 39 37 35 36 38 31 23 16 17 19 17 16 14 14 16 16 10 12 10 9 9 12 12 13 19 18 16 11 9 5 6 9 17 18 19 20 22 35 37 40 41 46 47 44
43 39 38 38 36 32 28 24 21 19 21 22 19 16 15 15 15 17 12 15 15 13 16 16 16 18 17 15 13 8 10 6 5 6 12 15 19 23 31 36 40 41 41 43 43
42 33 30 28 28 29 24 24 24 24 25 22 21 20 19 17 16 14 14 16 16 18 17 15 15 15 17 14 11 11 5 6 7 8 10 15 17 23 26 39 40 39 40 43 43
36 30 29 30 25 26 23 24 26 26 28 27 26 25 23 22 19 17 14 12 15 16 16 15 13 12 13 16 15 12 11 7 7 10 14 11 13 21 21 37 39 38 39 39 40
35 32 32 29 20 21 22 22 23 20 19 18 21 24 25 24 23 21 20 20 13 12 17 17 13 12 14 14 14 13 12 13 7 11 10 14 15 15 16 24 29 36 39 38 37
38 28 25 28 24 21 20 26 29 30 30 26 26 27 29 29 30 27 26 25 20 11 21 27 17 12 13 15 15 17 14 13 10 6 6 6 7 10 21 28 25 34 36 32 41
38 31 28 28 31 30 26 32 27 24 27 28 26 31 32 30 34 31 32 33 30 24 17 19 17 16 17 17 16 13 16 13 11 9 9 10 8 11 15 29 32 35 37 33 34
36 32 33 31 31 27 26 20 22 20 23 27 28 35 35 32 37 35 34 34 32 30 28 27 22 22 19 20 14 13 16 18 12 11 12 13 13 18 21 25 35 38 35 29 28
40 39 38 35 29 27 27 23 27 29 31 33 30 30 31 32 38 38 36 34 33 32 30 26 25 22 17 21 21 19 14 16 20 17 17 14 14 16 15 17 25 32 36 32 32

GFSSW_sfc_30mbdewp_018.txt.gz
Dewpoint
51 51 51 51 51 51 51 52 52 52 52 52 53 54 56 56 56 53 32 27 37 69 69 66 64 60 63 64 60 58 47 43 44 44 50 53 54 57 57 57 58 59 60 62 62
50 50 50 51 51 51 52 52 52 52 52 52 53 54 55 56 52 37 29 38 45 61 48 56 55 53 57 56 59 55 46 42 46 47 48 52 53 56 56 56 57 59 60 61 62
50 50 50 50 51 51 51 51 51 51 51 51 52 53 55 56 40 20 53 52 48 61 44 41 35 47 48 47 44 49 45 43 40 46 49 52 54 56 55 55 58 59 60 61 62
50 50 50 50 50 51 51 51 51 51 51 51 52 53 55 54 5 27 48 59 51 54 44 37 31 24 21 22 26 35 42 42 43 43 44 51 55 55 55 55 58 60 61 61 61
50 50 50 50 50 50 51 51 52 51 51 51 52 53 50 37 25 25 40 55 59 51 42 36 29 23 20 22 25 31 34 42 43 42 41 44 50 55 54 56 58 60 60 60 61
51 51 51 51 51 51 51 52 51 51 50 50 51 54 47 10 14 19 27 44 39 41 37 33 27 26 24 24 24 29 30 30 39 42 41 38 42 47 53 56 59 60 60 61 60
51 51 51 51 51 51 51 50 50 50 50 51 52 53 47 13 21 26 36 42 40 39 34 33 29 27 27 25 27 28 26 26 26 37 41 42 42 48 54 56 59 60 60 60 60
51 51 51 50 50 50 50 50 50 49 51 52 53 53 30 35 31 25 23 22 29 38 35 33 30 28 28 28 25 21 22 21 22 26 42 40 40 50 55 55 56 59 60 60 60
50 51 50 50 50 49 49 49 49 51 53 55 54 52 29 43 41 35 25 19 21 26 31 31 28 24 24 23 20 20 20 20 19 30 42 41 40 45 55 55 55 55 59 60 61
51 51 50 50 49 49 48 48 48 53 54 56 53 43 37 23 38 30 27 21 22 26 29 28 27 24 22 20 18 19 19 18 18 24 40 40 40 43 54 55 55 55 55 56 58
51 51 51 50 49 48 47 43 29 29 48 35 40 32 29 31 37 30 28 22 24 21 21 22 22 23 22 20 18 18 18 18 19 23 37 38 39 41 50 54 55 55 56 55 55
51 51 50 50 49 47 46 30 31 29 23 21 23 31 35 34 33 35 28 23 24 21 18 18 19 22 23 20 17 15 14 16 18 20 31 40 39 41 46 50 52 54 55 55 56
51 50 50 49 47 40 35 29 32 31 17 15 17 18 17 22 26 28 30 24 22 19 19 16 19 22 21 21 19 14 12 13 16 19 40 41 40 41 41 44 48 51 52 54 55
51 50 50 49 33 41 35 35 34 32 15 15 14 13 14 14 16 21 31 23 24 18 19 22 22 20 19 21 20 16 15 14 15 18 18 38 32 41 42 42 45 48 49 51 52
51 50 49 48 43 40 30 36 36 24 15 19 14 14 14 11 11 15 20 27 24 23 22 20 20 19 20 21 21 17 16 17 18 18 19 22 34 36 43 43 45 47 47 49 51
51 49 48 44 42 40 39 38 32 14 13 16 14 9 11 11 8 13 19 26 23 23 23 21 19 19 19 20 20 17 12 12 18 19 17 20 32 34 41 41 43 44 47 47 49
50 48 47 44 36 38 41 34 14 13 17 17 16 15 9 9 6 6 21 24 24 17 20 23 23 18 17 18 18 14 9 6 6 11 16 19 29 33 38 43 42 42 44 46 48
48 48 43 40 44 43 37 21 14 17 16 19 21 18 15 8 6 4 12 24 25 14 12 15 18 17 19 18 14 13 8 5 4 10 13 18 21 26 35 44 44 43 45 46 45
48 42 40 38 37 39 33 20 16 17 21 22 22 17 16 18 19 11 5 8 17 20 11 10 13 14 15 16 18 16 7 6 5 15 11 18 20 24 33 41 44 45 45 44 44
44 41 39 39 37 37 30 25 22 24 24 24 21 19 23 22 20 22 17 12 9 12 13 10 11 14 11 15 14 14 12 6 5 2 3 8 17 18 22 30 38 43 44 45 44
42 35 34 32 28 32 29 26 25 24 24 25 25 25 25 24 24 24 21 16 15 11 10 9 11 11 16 13 16 16 13 9 7 5 3 6 8 17 18 24 36 42 44 45 45
39 31 32 33 25 25 27 27 26 25 25 24 26 25 23 22 23 24 24 21 24 23 22 14 8 7 12 15 17 17 14 9 6 6 8 5 6 19 20 22 34 42 45 45 46
37 35 35 31 25 26 27 28 30 28 28 28 27 27 30 28 27 30 31 31 34 31 25 31 15 12 13 13 14 14 14 11 8 7 5 9 8 14 14 20 33 41 41 44 45
37 31 29 30 31 28 29 28 27 28 25 27 27 31 32 31 30 32 32 35 36 34 37 29 26 17 13 13 12 12 13 13 9 7 7 7 8 11 12 15 24 35 40 40 41
37 32 31 28 29 30 28 27 29 27 29 27 27 29 34 32 33 29 35 35 34 34 33 32 24 18 16 16 13 14 13 13 11 10 8 9 7 8 8 9 12 16 39 38 37
35 34 35 32 33 29 28 26 31 26 29 30 30 29 30 30 31 31 35 32 32 34 33 32 27 25 22 21 14 13 15 14 16 13 11 9 8 10 9 12 18 25 22 36 35
40 39 37 33 31 28 27 25 26 25 31 32 28 29 29 27 29 33 34 33 33 32 31 32 27 24 21 20 14 14 14 15 14 15 13 10 10 15 15 16 19 20 34 36 34

GFSSW_sfc_30mbdewp_021.txt.gz
Dewpoint
51 51 51 51 51 52 52 52 52 52 52 52 53 53 54 55 55 53 25 24 32 73 74 72 68 67 67 66 64 61 50 46 43 46 51 55 56 58 58 58 57 59 60 61 64
51 51 50 50 50 51 51 52 52 52 52 52 52 53 54 55 52 37 30 42 49 71 70 67 64 65 63 62 63 59 50 46 45 47 53 54 56 56 57 57 58 59 61 63 63
50 50 50 50 50 50 51 51 51 52 52 52 52 53 54 56 36 11 51 51 58 71 59 60 59 59 57 52 60 56 51 46 44 47 54 54 55 56 57 56 58 58 61 62 62
50 50 50 50 50 50 50 51 51 51 51 51 52 52 54 53 5 21 63 64 62 64 44 43 37 48 46 49 49 43 48 48 44 47 53 53 55 55 56 54 59 59 61 61 61
50 50 50 50 50 50 50 50 51 50 51 51 51 52 50 35 17 13 57 63 63 49 40 36 32 31 23 23 30 43 41 37 43 43 51 54 55 55 55 57 59 60 60 61 61
51 51 51 51 51 50 51 51 51 50 50 51 51 52 44 5 12 22 25 52 48 48 42 36 29 27 24 22 23 29 30 30 33 40 45 53 54 55 56 58 59 60 60 61 61
51 51 51 51 51 51 50 50 50 50 50 51 52 52 47 9 16 25 33 38 47 43 38 37 31 25 23 21 24 26 26 26 26 28 43 52 52 53 56 58 59 59 60 60 61
52 51 51 51 51 51 50 49 49 50 52 53 53 52 21 33 33 23 19 17 32 41 32 33 32 27 27 28 26 23 22 22 24 25 41 45 44 53 55 58 58 59 60 60 60
52 51 51 51 51 50 49 49 49 53 53 53 52 50 19 39 42 33 25 18 20 31 36 35 30 28 25 24 23 20 21 22 22 23 41 39 38 52 56 58 58 59 59 60 60
52 51 51 51 50 49 48 49 49 54 56 55 53 43 38 21 42 36 31 22 18 21 25 28 28 25 23 21 20 20 19 20 19 31 40 40 40 53 55 58 58 59 59 60 60
51 51 51 50 49 48 47 42 30 30 42 37 40 35 30 31 35 34 27 22 21 25 24 26 27 24 24 22 21 20 19 19 20 25 39 39 40 52 54 55 58 59 59 59 59
51 51 51 50 48 48 42 28 31 31 27 27 26 26 30 32 26 25 26 18 20 19 22 23 23 25 25 23 21 19 18 18 17 19 25 30 36 47 54 54 55 57 59 59 59
51 50 50 49 47 39 38 31 35 34 23 19 20 20 19 26 27 24 26 21 20 20 20 20 19 21 22 22 20 18 17 17 16 18 33 40 39 42 53 54 55 55 56 57 58
50 50 49 48 31 41 32 36 36 36 16 16 15 15 18 26 26 25 28 22 22 20 21 21 20 19 21 21 21 20 19 16 14 15 14 36 34 40 43 53 54 55 55 56 56
50 49 48 48 42 38 29 37 39 26 19 22 15 15 15 14 13 20 27 27 22 21 20 19 19 17 19 20 21 20 20 18 18 16 16 20 27 33 42 45 49 51 53 55 56
49 48 47 44 44 40 40 40 31 16 16 18 14 11 12 12 9 17 20 26 26 22 21 19 22 19 20 20 20 21 19 14 16 17 14 15 20 20 40 41 44 46 50 52 54
48 47 46 45 34 39 40 33 14 14 18 18 19 20 18 10 9 13 15 21 23 21 21 21 21 20 21 20 21 20 17 14 11 11 12 14 19 19 32 42 42 44 46 49 51
48 46 43 40 41 43 38 22 14 16 16 22 23 21 16 20 11 14 18 21 24 20 21 21 20 21 19 19 18 18 17 12 8 7 10 16 17 20 26 37 43 43 44 47 49
47 41 41 39 39 40 32 19 14 18 23 23 22 19 22 24 23 22 17 20 22 22 18 19 19 19 23 20 17 15 15 15 10 15 12 14 18 20 24 31 38 43 44 45 47
43 41 39 40 36 37 31 23 23 25 24 25 22 24 23 25 23 24 22 19 21 25 19 15 12 14 18 20 19 17 14 11 8 9 8 7 11 13 21 23 31 43 43 44 47
39 34 32 34 33 33 26 28 27 26 25 23 22 22 25 25 24 23 24 27 32 30 26 19 13 13 13 13 16 15 15 12 10 7 7 6 6 11 17 24 28 38 44 44 45
37 28 30 35 26 26 26 28 29 27 28 28 26 25 25 26 25 22 23 27 34 33 32 30 18 13 12 15 13 15 14 13 11 8 7 6 6 17 14 15 23 30 37 44 46
35 34 37 31 27 25 28 28 28 28 27 27 27 27 31 28 23 31 32 33 35 33 36 35 26 12 9 9 13 14 16 14 13 13 12 7 7 12 14 17 26 27 32 40 45
36 29 31 30 31 30 28 26 29 31 28 29 26 32 32 30 31 30 29 35 32 31 38 32 27 23 15 12 14 13 15 16 14 12 12 11 9 13 13 11 15 35 38 40 46
36 31 32 28 29 31 29 27 29 28 32 31 28 31 32 30 32 31 32 34 31 35 32 32 28 25 25 25 23 16 14 14 14 14 12 12 8 9 12 15 15 17 33 39 45
34 34 35 32 32 29 27 26 29 26 26 27 34 31 28 29 28 26 29 32 30 32 28 31 28 28 26 22 20 18 15 15 13 13 12 12 10 11 11 13 12 12 14 28 36
40 39 37 33 32 30 26 26 27 28 29 31 29 29 26 30 32 32 32 34 32 31 30 30 30 28 24 24 23 16 16 15 14 14 13 11 13 11 11 11 11 12 18 26 36

GFSSW_sfc_30mbdewp_024.txt.gz
Dewpoint
51 51 51 51 51 51 52 52 52 53 53 53 53 53 54 55 55 52 23 21 34 68 73 70 68 66 68 66 65 61 53 47 44 49 47 56 56 58 59 58 58 59 60 61 65
50 50 50 50 50 51 51 52 52 52 52 52 53 53 53 55 52 37 30 45 62 73 70 67 66 66 65 63 65 60 53 48 46 47 52 56 56 57 57 56 58 59 61 64 65
50 50 50 50 50 50 51 51 51 51 51 51 52 52 53 55 37 12 48 50 72 74 70 67 67 65 62 59 62 60 54 51 46 45 53 56 56 56 56 55 58 58 61 63 64
50 50 50 50 50 51 51 51 51 51 51 51 52 52 53 53 9 46 64 59 71 69 67 63 63 61 56 57 58 53 51 54 47 49 54 55 56 55 55 55 58 60 61 63 63
51 51 51 51 51 51 51 51 51 50 51 51 51 52 50 34 14 60 62 62 70 55 58 53 59 53 40 42 49 52 49 44 41 42 53 55 55 55 56 57 59 60 62 62 63
52 52 52 52 52 51 51 51 51 50 50 51 52 52 44 2 9 25 59 62 65 54 45 42 43 39 29 26 31 29 34 32 31 32 41 51 54 55 56 59 59 60 61 62 62
52 52 52 52 51 51 51 50 50 50 51 52 52 51 46 3 15 23 52 47 54 47 41 38 32 31 28 24 23 23 24 27 28 29 34 51 52 54 56 58 58 59 60 61 61
51 51 52 51 51 51 49 50 50 51 53 55 53 51 16 28 33 28 22 38 47 46 36 39 34 28 25 26 25 23 23 22 24 27 34 50 45 54 57 58 58 59 59 60 61
51 51 51 51 50 49 48 49 51 55 54 54 51 49 14 38 39 31 20 20 36 42 39 34 32 28 26 22 21 22 21 22 23 25 34 48 43 50 57 58 58 59 59 60 61
51 51 51 50 50 49 48 48 50 55 53 53 52 42 35 25 38 39 28 18 21 31 31 32 30 28 25 21 12 18 20 20 21 29 40 48 41 48 56 57 58 59 59 59 60
50 50 50 49 48 47 46 37 29 30 33 43 41 35 32 29 32 33 29 21 24 24 23 27 28 26 24 22 19 21 20 20 20 26 39 39 41 51 55 56 57 58 59 59 60
50 50 49 48 47 47 38 31 31 31 29 29 28 29 35 31 25 26 25 18 19 18 24 24 25 27 27 24 22 21 20 20 18 21 21 26 38 50 55 56 57 58 58 59 60
50 49 49 48 47 39 38 32 36 36 28 23 26 25 24 26 24 23 24 21 18 19 23 24 22 27 27 25 23 21 21 19 19 18 26 35 33 38 53 55 57 58 59 59 59
50 49 48 48 30 41 27 36 38 38 20 19 17 17 24 25 22 26 25 21 21 18 21 21 23 24 25 24 23 21 20 18 16 15 15 35 24 39 46 53 54 57 58 59 59
50 49 48 47 41 36 29 39 39 29 16 23 15 17 22 19 16 23 28 26 20 20 21 20 20 20 21 21 23 22 21 19 17 15 15 18 25 25 44 52 53 54 55 58 59
49 49 48 43 43 41 41 40 32 20 18 20 13 13 15 14 12 21 23 27 24 21 21 21 23 21 20 21 22 22 19 17 18 18 15 17 18 19 38 46 53 54 55 55 56
49 48 47 45 34 40 42 33 16 18 20 20 21 22 20 15 11 16 20 23 20 20 19 21 21 21 20 18 21 21 19 16 13 14 14 16 17 18 26 41 44 51 53 54 56
48 46 42 41 40 40 37 20 14 16 16 23 24 22 19 24 22 22 17 19 25 22 20 19 18 20 21 18 18 19 18 15 10 10 12 17 14 16 20 34 42 43 46 50 53
47 41 38 38 37 39 32 16 15 18 23 23 24 22 23 25 24 22 19 18 25 20 20 20 20 21 21 20 20 19 17 17 12 15 12 13 15 18 24 23 35 40 42 44 48
43 39 35 39 35 36 30 23 23 26 27 24 23 24 23 24 23 23 22 33 30 30 27 19 20 19 22 20 20 16 17 17 14 12 10 11 10 12 21 21 26 35 42 44 45
38 32 30 36 34 31 22 27 27 29 28 26 23 22 25 24 23 21 24 34 34 33 32 28 13 13 19 21 20 17 14 14 15 13 9 8 9 13 14 22 21 26 36 42 44
36 26 29 33 25 26 22 25 29 31 29 27 27 29 28 27 25 23 29 34 32 35 33 34 25 18 15 15 20 21 18 14 13 12 10 11 9 15 13 13 22 25 35 43 44
35 33 36 31 25 27 29 26 26 31 31 28 26 30 31 29 23 31 30 35 32 32 36 32 26 15 14 17 16 13 19 16 16 15 13 10 11 13 12 13 15 18 30 38 44
35 28 31 31 31 30 29 25 26 29 33 33 30 32 32 30 32 29 32 35 32 35 37 33 28 24 20 20 24 19 16 15 16 14 14 13 13 13 12 12 13 20 27 29 35
35 29 32 26 27 29 28 27 28 27 29 33 34 33 28 29 27 28 27 29 30 34 30 30 26 27 27 27 26 24 22 20 16 15 13 14 15 16 15 14 13 14 27 32 37
33 34 35 32 32 30 27 25 26 26 27 27 32 33 29 27 28 27 29 30 29 31 27 30 24 29 26 25 25 24 24 22 20 16 16 15 14 15 15 15 16 17 19 20 30
40 39 36 34 31 30 27 27 26 28 28 30 31 29 28 28 32 31 30 29 31 31 28 28 27 25 21 26 25 19 18 19 18 16 15 14 16 15 13 14 14 14 16 17 19

GFSSW_sfc_30mbdewp_027.txt.gz
Dewpoint
51 51 51 51 51 51 52 52 52 52 52 52 53 53 54 55 54 52 30 20 31 67 69 66 65 64 66 64 65 62 53 47 44 49 48 56 56 57 58 57 57 59 59 60 65
51 51 51 51 51 51 51 52 52 52 52 52 52 53 53 54 50 37 33 42 47 72 65 62 61 63 62 63 64 61 53 47 47 47 47 55 55 57 56 56 56 59 60 63 65
51 51 51 51 51 51 51 51 51 52 52 52 52 53 53 53 36 14 42 49 63 71 61 61 63 62 60 61 62 61 50 52 47 46 50 55 56 56 55 53 55 57 60 62 63
51 51 51 51 51 51 51 51 51 51 52 52 52 52 53 52 8 46 66 56 70 64 63 63 62 59 57 57 60 55 55 50 49 47 54 54 56 55 54 52 54 59 60 62 62
51 51 51 51 51 51 51 52 52 51 51 52 52 52 50 35 14 57 64 63 70 64 59 59 60 57 53 55 53 55 50 48 49 45 41 55 54 54 55 55 57 60 60 60 61
51 51 52 52 51 51 51 51 51 50 51 51 51 52 43 5 8 49 54 65 65 62 57 57 58 54 43 37 45 40 39 35 33 32 35 50 50 55 55 58 59 59 59 60 61
50 51 51 51 51 50 50 50 50 50 51 52 52 50 44 10 17 43 57 61 62 56 55 52 49 50 38 27 28 25 21 21 23 29 30 42 47 52 55 58 58 58 59 60 61
50 50 50 50 50 50 49 49 51 55 55 53 53 49 23 26 27 23 53 46 61 52 46 45 39 47 29 26 25 23 25 21 23 26 29 37 26 45 56 57 57 57 59 60 60
50 50 50 50 49 49 48 49 53 55 55 53 50 48 16 38 29 22 27 37 53 51 39 40 37 31 27 22 16 22 18 22 23 26 37 40 30 42 56 56 57 57 58 59 60
50 50 50 49 48 47 48 48 53 54 53 53 49 39 29 24 34 30 22 37 41 41 37 33 31 29 26 21 15 16 18 19 20 23 28 37 37 44 55 55 56 57 57 58 59
50 50 50 49 47 48 44 38 31 32 31 42 42 34 35 29 39 33 18 24 29 31 25 30 25 23 22 22 19 16 16 19 21 23 29 28 32 43 54 55 56 57 57 58 58
50 50 50 49 47 46 38 30 31 32 30 30 29 31 37 35 27 31 19 16 19 20 24 28 23 23 23 25 22 17 15 17 21 21 26 28 33 41 52 54 55 57 57 58 58
50 49 49 49 48 39 38 34 37 37 31 26 28 26 26 27 28 27 19 16 16 17 21 21 21 24 26 26 23 19 13 14 18 21 22 28 25 37 49 52 55 57 57 58 58
49 49 48 48 33 39 30 37 39 38 22 21 20 22 23 25 24 26 26 22 17 16 18 19 23 25 24 23 23 17 19 18 19 19 18 26 21 33 36 49 53 55 57 57 58
49 48 48 48 41 37 33 39 39 35 1 22 15 20 24 22 19 23 25 25 17 15 19 17 22 24 24 21 25 19 22 19 18 18 19 19 22 24 42 42 49 53 55 57 57
48 47 48 42 42 40 40 40 36 19 7 21 14 14 19 19 15 24 24 27 24 20 17 16 23 24 24 25 26 24 23 21 21 19 17 19 19 21 28 36 44 51 54 56 57
47 47 45 43 32 37 40 33 18 16 20 21 22 23 22 19 13 19 21 23 23 17 17 19 20 22 23 21 23 22 19 15 13 13 13 18 20 21 25 34 31 43 51 54 57
47 45 41 40 40 38 36 18 14 16 20 23 23 23 20 24 22 23 20 21 25 19 16 16 16 20 21 21 19 21 18 11 6 5 6 20 17 19 24 27 36 38 46 52 55
46 40 36 37 36 37 29 7 17 25 26 25 23 23 23 25 24 23 20 19 24 23 17 16 15 22 20 20 20 20 19 17 12 16 11 10 14 20 24 24 31 38 40 48 53
41 37 33 35 36 35 24 21 25 28 28 25 22 23 23 24 23 23 26 32 29 32 32 23 20 21 21 21 20 19 19 16 14 6 6 9 15 11 22 22 27 33 38 41 45
38 31 29 35 31 26 21 24 25 29 31 26 24 24 25 25 25 22 30 31 29 31 34 30 20 17 22 20 19 18 18 18 16 13 5 3 2 20 24 29 26 27 32 37 41
37 23 33 33 23 27 23 26 27 27 31 29 27 27 28 28 25 27 30 32 29 34 33 32 22 19 20 23 21 20 19 19 15 18 13 9 6 18 22 28 31 28 31 38 43
36 33 35 31 24 26 27 26 24 28 29 31 30 31 31 29 24 29 31 34 32 33 33 30 27 22 20 19 19 20 21 19 18 17 17 11 10 16 19 22 24 25 29 36 42
36 26 29 31 31 26 25 25 24 28 31 32 35 30 28 29 30 28 27 31 29 32 35 32 28 25 20 21 25 24 20 21 19 17 17 17 13 17 21 23 24 27 30 33 39
37 30 32 24 25 27 27 25 25 24 26 28 32 33 31 27 26 26 27 27 26 32 28 29 25 26 25 24 24 25 24 23 21 20 19 18 18 19 21 22 25 26 30 34 37
34 33 34 31 32 28 27 25 25 26 26 23 28 33 33 31 27 27 28 28 27 29 27 28 22 25 21 21 23 23 24 24 23 22 20 19 19 20 23 26 25 23 26 28 32
40 40 36 33 32 30 26 27 25 26 27 29 32 31 26 29 29 28 28 27 27 27 27 26 22 19 16 21 19 18 20 21 21 22 20 19 20 21 21 22 26 28 30 30 33

GFSSW_sfc_30mbdewp_030.txt.gz
Dewpoint
52 52 52 52 52 52 52 52 53 53 53 53 53 53 54 54 53 50 31 24 31 67 67 62 64 63 63 61 62 61 51 43 42 44 47 53 53 55 55 55 55 57 57 60 64
51 51 51 51 51 52 52 52 52 52 52 53 53 53 53 54 44 31 26 40 43 72 56 58 60 60 58 57 59 56 48 42 43 42 43 51 52 54 53 53 54 57 59 62 63
51 51 51 51 51 51 51 51 51 51 52 52 53 53 53 53 34 14 44 47 57 68 48 55 55 55 50 53 55 53 46 43 41 43 45 51 52 54 51 50 53 56 59 61 62
50 50 50 50 50 50 50 51 51 51 51 52 52 52 53 46 12 31 65 53 64 50 45 49 52 50 47 50 52 50 47 46 44 42 43 47 51 52 52 49 53 57 60 61 61
50 50 51 50 50 50 51 51 51 51 51 51 52 52 49 31 15 26 62 57 58 46 43 45 50 46 43 47 48 50 44 43 44 43 39 40 48 49 52 53 54 57 59 60 60
50 50 51 51 51 51 51 51 51 50 51 52 52 51 40 20 11 15 43 48 51 46 43 45 48 46 43 44 45 39 44 41 36 31 32 32 44 48 50 54 55 57 58 58 59
50 51 51 51 51 50 50 50 49 51 55 55 52 49 39 25 12 21 45 49 52 49 42 44 46 47 38 37 32 38 26 24 24 26 28 32 37 43 47 55 56 56 56 57 58
50 51 51 51 50 50 49 50 51 55 56 53 53 47 32 25 24 33 42 49 54 50 43 44 44 47 37 28 24 25 23 23 28 25 26 28 30 38 47 54 55 56 56 56 57
50 50 50 50 50 49 49 49 53 56 54 54 49 43 28 30 18 19 44 44 52 48 46 43 44 39 37 33 22 22 24 27 28 27 28 29 30 34 45 51 53 55 55 56 57
50 50 50 49 49 49 48 47 55 54 52 52 45 39 31 22 23 14 27 32 49 43 38 37 32 26 30 25 21 21 22 26 28 28 27 30 32 34 46 48 51 55 55 56 56
50 49 49 49 48 48 42 34 36 41 31 38 38 30 31 26 33 18 15 34 41 40 27 27 23 20 17 20 21 21 21 24 25 27 25 28 29 31 40 48 49 53 55 55 56
50 49 48 48 48 46 37 28 30 31 27 26 26 29 37 36 31 24 15 28 28 31 26 23 20 19 18 16 19 19 19 20 24 24 24 28 29 31 37 47 48 52 54 55 56
49 49 48 48 46 39 34 33 36 35 27 23 25 24 26 29 28 25 19 20 23 25 21 18 18 19 18 18 18 17 18 19 20 23 23 22 24 27 31 45 48 50 53 54 55
49 48 48 47 36 33 27 32 36 36 24 12 20 24 25 27 25 28 15 17 18 19 17 16 17 19 17 17 16 14 16 16 16 18 19 23 22 27 28 37 43 47 51 52 55
49 47 47 47 37 29 31 34 36 35 2 20 18 22 23 24 24 24 25 13 11 15 15 15 15 18 17 18 18 15 10 14 15 15 18 20 21 23 27 28 34 40 46 51 53
49 47 47 38 34 31 33 35 36 21 2 17 15 16 18 22 20 23 26 17 15 14 16 15 17 17 19 20 19 18 14 15 16 12 12 18 20 21 24 30 31 36 43 50 52
48 46 44 37 29 33 33 31 15 6 13 21 21 21 20 16 19 19 22 24 23 18 15 16 15 18 18 19 20 19 18 13 10 9 8 14 18 21 23 25 30 32 36 48 52
47 45 38 35 32 33 31 20 5 11 22 24 23 22 20 21 19 16 20 21 22 21 16 15 13 16 18 18 18 18 16 9 6 2 4 11 12 16 22 25 27 30 30 42 49
45 31 29 29 32 34 26 8 5 24 26 23 22 21 20 22 23 20 16 19 22 22 18 16 16 15 18 19 18 20 17 12 7 10 7 3 8 14 21 22 25 26 28 31 44
38 29 26 29 30 30 18 14 20 24 25 24 21 23 23 24 23 21 17 28 23 23 30 23 17 17 17 18 18 17 18 12 10 8 7 1 6 8 14 21 24 25 28 31 42
33 24 27 30 28 17 12 16 19 20 24 23 22 23 24 25 25 22 26 28 28 28 32 27 21 19 17 17 16 16 16 15 12 9 5 5 3 11 14 20 21 24 28 31 39
31 16 29 29 17 19 16 21 22 19 21 23 24 21 23 26 25 26 29 31 30 31 29 28 24 21 18 18 17 16 17 16 12 14 11 10 6 12 12 15 22 22 27 30 35
30 28 29 27 18 19 20 20 21 21 22 23 27 29 26 26 25 27 30 30 28 30 32 31 23 20 20 20 20 17 17 17 16 14 16 12 8 16 19 21 27 28 28 29 32
31 22 22 25 26 22 21 20 19 21 23 21 33 34 30 22 23 26 26 26 25 26 32 32 27 23 19 20 21 20 19 18 18 16 14 16 14 15 16 21 20 22 26 28 34
32 25 29 23 23 25 24 22 19 20 22 21 31 34 32 28 25 22 26 25 25 27 26 26 26 28 27 26 25 23 20 20 19 19 17 16 16 18 19 20 22 24 25 27 30
30 30 31 29 27 26 22 23 21 24 22 21 23 25 28 31 30 31 27 25 24 26 25 24 26 27 25 24 23 22 24 23 22 22 21 20 19 21 22 25 25 26 27 25 25
38 37 36 33 29 25 22 23 23 24 24 26 24 23 21 26 29 29 28 25 24 25 25 24 21 23 21 23 22 22 23 23 23 24 23 22 23 24 23 23 25 25 25 23 27

GFSSW_sfc_30mbdewp_033.txt.gz
Dewpoint
51 51 51 51 51 51 52 52 52 52 53 53 53 54 54 55 54 47 33 26 30 52 61 54 57 59 58 57 57 56 52 46 38 41 42 44 43 48 52 53 54 55 59 61 63
51 51 50 51 51 51 51 51 51 52 52 53 53 53 54 54 45 30 28 38 43 56 54 50 54 57 54 53 53 52 55 52 40 38 44 45 42 46 49 50 53 54 60 62 62
50 50 50 50 50 50 50 51 51 51 52 52 53 53 53 53 37 21 45 45 49 64 39 48 50 54 50 48 49 48 52 54 40 40 44 44 44 44 45 47 51 56 59 60 61
50 50 50 50 50 50 50 50 51 51 51 51 52 53 53 47 19 41 56 53 52 47 34 44 47 50 46 44 46 45 46 49 40 40 41 43 45 45 44 43 52 56 59 60 60
50 50 51 51 51 51 51 52 51 50 51 51 52 52 50 34 21 44 61 59 41 43 31 42 44 47 44 41 43 44 44 43 43 40 38 42 44 47 47 46 50 56 59 59 59
50 51 51 51 51 51 51 51 51 50 51 53 54 52 44 30 23 18 31 44 37 44 29 37 41 45 43 40 41 42 43 42 41 39 37 35 42 45 48 49 52 55 57 58 58
50 51 51 51 50 50 50 51 50 54 56 56 55 49 38 33 22 11 34 38 39 40 29 33 36 42 42 39 40 41 35 40 40 36 31 33 36 42 47 51 52 54 56 57 58
50 51 50 50 50 50 50 50 51 56 55 55 53 47 37 33 35 18 31 37 41 42 33 32 34 39 41 38 33 38 37 31 32 31 30 31 31 37 44 50 52 53 53 55 56
50 50 50 49 49 49 49 49 52 55 54 53 50 44 36 29 25 28 27 38 42 43 41 35 37 39 39 35 27 26 27 29 28 30 29 29 29 35 42 46 50 53 53 53 55
50 50 50 49 49 48 48 47 50 54 53 50 47 40 37 28 26 21 24 35 42 43 41 38 37 34 37 36 27 23 23 26 28 30 28 28 29 34 38 44 47 52 53 53 53
50 50 49 48 48 47 44 29 33 44 44 39 37 34 30 28 24 17 30 35 41 40 37 38 35 35 29 36 31 26 22 23 27 29 29 29 30 31 36 41 44 50 52 53 53
50 50 49 48 48 46 35 27 30 31 26 23 20 19 28 31 29 18 24 27 39 36 31 31 31 27 22 20 27 27 22 21 24 27 29 29 29 29 32 38 42 47 50 52 53
50 50 49 47 47 37 28 25 28 30 25 17 16 16 16 31 30 27 14 25 33 36 26 19 19 20 14 14 16 18 20 20 20 25 27 27 27 28 30 34 42 45 50 51 53
50 49 48 47 36 27 22 24 27 30 22 8 16 18 17 21 27 29 13 20 27 31 31 22 18 16 16 14 12 10 15 18 19 20 22 25 23 26 28 29 40 43 48 50 52
50 48 47 47 36 28 24 22 26 30 6 12 17 23 20 18 19 25 23 12 19 22 25 23 19 15 15 14 13 11 12 13 17 18 19 20 23 24 26 26 32 39 45 48 50
49 47 47 32 29 22 23 22 27 22 6 14 15 18 19 20 20 23 23 13 19 17 18 20 17 14 15 15 14 13 11 10 11 12 14 17 18 21 22 25 28 34 38 44 47
48 46 45 34 23 22 24 21 13 6 6 20 21 21 17 18 21 21 24 15 15 15 14 16 16 14 14 15 15 15 13 10 6 7 9 14 16 19 22 22 27 29 34 38 44
47 45 37 27 22 23 24 15 6 5 20 23 22 22 21 21 18 19 22 23 15 14 13 14 14 15 16 14 16 16 12 8 7 5 5 9 11 16 20 23 24 29 31 35 41
46 28 26 21 23 23 21 8 4 18 22 20 20 19 18 20 21 18 19 21 22 15 14 16 16 16 16 16 17 17 12 11 7 6 3 3 7 11 15 19 23 27 30 33 39
40 27 24 21 24 23 17 8 12 17 16 16 16 20 23 24 22 21 17 19 21 21 23 22 19 18 16 16 16 17 15 10 9 7 6 6 7 8 15 18 20 25 28 30 34
36 20 24 23 23 16 7 8 12 13 13 13 13 16 22 26 28 24 22 26 27 26 24 23 22 21 18 15 16 15 16 14 10 7 6 9 7 9 13 18 21 24 26 28 29
28 20 26 24 16 11 10 14 16 12 12 15 17 18 18 24 29 27 27 30 27 29 26 25 25 23 18 16 17 16 15 18 13 13 7 8 10 13 13 14 20 23 26 26 30
29 23 23 22 15 13 14 13 16 15 13 16 15 25 29 28 30 34 33 32 26 28 31 29 26 24 22 18 18 16 15 15 16 13 14 9 11 18 20 19 20 22 24 28 31
30 21 20 20 18 17 16 16 16 23 17 16 21 24 26 24 23 27 32 31 26 26 31 32 29 25 22 20 18 17 16 15 16 15 13 14 13 18 19 23 26 26 26 28 32
31 26 27 21 20 20 20 18 18 20 17 16 21 25 23 24 27 33 33 29 26 28 28 28 29 28 25 23 23 18 17 16 15 16 14 14 17 18 21 22 22 25 28 30 33
36 31 30 28 24 25 21 21 20 17 17 15 16 20 21 23 25 24 32 30 28 29 27 27 25 28 26 25 27 23 22 18 16 17 17 16 16 19 21 21 23 24 26 27 28
43 41 37 30 26 23 24 21 18 19 19 23 23 19 18 22 25 23 25 25 25 24 24 26 25 28 27 27 26 24 23 22 20 18 18 18 20 21 22 25 26 27 28 28 28

GFSSW_sfc_30mbdewp_036.txt.gz
Dewpoint
51 51 51 51 51 51 51 51 52 52 52 53 53 54 54 55 55 49 33 24 31 53 51 50 45 53 58 58 56 56 54 52 50 42 41 42 45 51 53 53 55 59 60 62 63
50 50 50 50 50 50 51 51 51 52 52 52 53 53 54 54 49 37 30 39 43 51 35 45 43 51 54 54 52 51 52 51 52 51 48 42 43 47 49 50 56 59 61 62 62
50 49 49 50 50 50 50 51 51 51 52 52 52 53 54 53 42 26 46 42 52 45 33 42 43 49 51 50 48 49 49 48 47 47 45 42 41 46 45 48 56 58 60 61 61
49 49 50 50 50 50 50 51 51 51 51 51 52 52 53 48 27 36 45 53 54 31 34 36 42 47 49 46 46 46 52 51 48 47 44 47 48 40 44 48 57 59 60 60 60
50 50 51 51 50 50 51 51 51 51 51 52 52 53 50 40 30 35 55 57 39 27 35 33 40 44 47 46 43 43 53 50 48 45 49 50 50 48 44 51 55 59 59 59 60
51 51 51 51 51 51 51 51 51 51 54 56 54 53 44 36 34 34 40 46 32 29 32 30 37 41 46 44 41 42 46 46 47 41 37 39 48 48 43 48 53 57 58 58 58
51 51 51 51 51 51 51 51 50 51 56 57 56 51 38 34 32 19 28 41 35 33 29 28 33 38 43 43 41 39 40 41 41 39 36 33 36 43 48 49 52 55 57 58 57
51 51 51 51 50 50 50 50 50 52 57 55 56 49 38 38 39 34 12 24 32 33 32 26 28 35 39 42 39 37 39 37 38 39 36 31 28 38 49 49 51 53 55 57 57
51 51 51 50 49 49 49 49 49 53 55 55 52 44 38 37 36 33 25 27 31 35 34 29 27 29 33 38 37 36 34 36 36 37 33 30 28 36 47 48 51 52 53 54 57
51 51 50 49 49 48 48 46 47 55 54 51 49 43 40 33 31 32 30 22 30 35 35 32 28 26 29 34 34 31 28 32 33 31 31 28 27 35 39 47 50 52 52 53 54
51 51 50 49 48 48 45 26 20 40 26 35 39 33 31 33 27 25 28 22 33 36 35 35 30 26 28 33 35 31 25 25 29 30 28 28 27 36 39 48 47 51 52 52 53
51 50 49 49 48 47 42 20 19 22 20 22 21 22 28 31 29 24 24 22 31 35 36 34 32 30 29 31 32 33 28 22 22 26 30 29 27 30 36 43 44 48 51 52 52
50 50 49 48 47 40 20 17 18 20 19 17 16 15 14 19 26 27 19 24 28 34 36 33 32 32 30 30 26 32 30 25 21 22 28 30 29 29 31 36 40 46 50 52 52
50 49 48 48 33 30 19 16 16 20 15 9 10 11 11 8 17 28 19 29 29 32 35 33 31 30 29 28 25 22 28 25 23 21 22 31 26 30 29 30 37 40 47 50 52
49 48 48 47 37 29 17 16 17 21 9 10 11 20 12 6 13 18 27 22 26 24 33 32 25 22 24 24 16 13 16 21 19 19 19 20 22 24 29 29 33 39 44 49 51
48 47 47 34 32 28 16 16 17 15 5 16 19 22 17 11 9 15 25 22 22 23 28 32 28 19 16 16 13 12 10 9 11 14 17 19 20 24 25 29 31 35 40 47 49
48 46 45 39 27 18 17 16 6 6 5 16 20 20 21 21 13 12 22 24 15 19 22 27 29 26 18 14 14 13 10 9 8 9 11 16 18 21 22 28 30 30 38 46 48
47 45 40 34 22 18 17 13 7 5 9 17 16 16 18 20 21 15 18 23 18 14 18 19 18 22 18 15 14 12 11 9 8 8 7 10 12 18 21 21 24 29 35 40 45
46 37 31 27 21 19 17 10 8 14 16 12 12 14 18 22 26 22 17 21 22 14 17 17 17 19 19 14 14 14 11 10 7 7 4 4 8 11 18 19 21 23 29 37 40
41 36 33 25 20 20 16 9 7 12 11 9 7 9 13 15 21 26 26 18 21 17 16 18 16 17 17 16 13 13 15 11 10 8 8 7 10 11 14 19 22 24 24 32 37
38 25 24 24 21 19 13 5 10 9 8 5 5 6 8 28 26 27 28 33 27 25 21 17 18 17 17 16 14 13 15 14 11 8 8 10 6 14 20 19 22 24 26 30 35
36 28 25 22 16 11 8 12 13 15 19 11 12 9 19 28 27 32 35 37 37 28 26 24 16 17 22 18 16 15 15 18 14 14 10 12 11 16 19 22 22 22 26 30 34
35 30 25 19 15 12 12 11 10 20 20 23 13 11 18 20 25 34 37 39 34 29 29 31 26 21 23 23 17 16 15 16 17 13 15 12 11 18 20 18 24 22 28 31 36
36 29 29 23 20 19 15 12 14 18 23 27 22 15 15 20 21 33 33 36 34 31 33 31 30 25 22 23 22 18 16 16 15 16 15 13 17 19 20 21 20 27 29 31 37
33 31 32 26 26 24 19 16 21 21 29 23 14 25 24 19 22 27 33 29 33 33 28 29 29 29 26 26 22 16 16 16 16 18 17 14 15 22 25 26 26 28 30 33 38
37 39 38 34 29 25 24 18 23 16 12 17 18 20 19 13 18 24 27 28 33 29 26 27 28 29 29 29 27 25 17 17 16 15 16 16 15 24 25 28 28 31 32 35 35
39 41 39 36 30 28 27 25 20 17 19 19 17 16 16 15 21 20 20 21 24 23 24 25 28 28 27 29 28 25 24 18 16 16 16 16 19 24 26 26 28 28 28 29 30

GFSSW_sfc_30mbdewp_042.txt.gz
Dewpoint
50 50 50 51 51 51 51 51 52 52 52 53 53 54 54 54 55 52 43 35 36 56 68 66 61 61 64 65 62 60 51 52 53 54 52 57 58 60 61 60 60 60 57 55 56
50 50 51 51 51 51 51 51 52 52 52 52 53 53 54 54 52 46 42 46 48 45 59 57 53 52 62 62 62 59 56 52 54 54 53 55 58 59 59 60 60 59 56 59 59
50 50 51 51 50 50 51 51 52 52 52 53 53 54 54 54 48 37 44 51 53 53 43 51 45 44 45 56 60 60 56 55 52 55 53 50 58 59 59 59 60 59 60 60 60
50 50 51 51 50 50 51 51 51 52 52 52 53 55 53 52 28 30 53 55 55 52 43 30 33 39 41 48 53 55 58 55 51 53 53 49 53 58 58 59 61 61 61 61 61
51 52 52 52 51 51 51 52 51 51 51 52 53 54 52 40 32 37 48 60 57 47 36 29 27 35 39 44 48 51 52 53 52 50 50 49 49 56 58 61 62 61 61 61 62
52 52 51 51 51 51 51 51 51 50 50 51 54 53 48 26 36 39 53 55 47 42 34 30 27 30 38 39 46 49 50 50 48 46 49 47 51 57 60 62 61 61 60 61 61
51 51 51 51 51 51 51 50 50 50 52 51 56 52 47 23 32 34 53 48 45 37 32 28 28 33 35 41 41 44 46 48 46 45 48 49 50 57 60 61 61 61 61 61 61
51 51 50 50 50 50 50 49 49 52 52 52 56 52 41 44 43 40 38 40 45 35 28 29 27 31 31 32 29 40 44 45 47 47 48 47 46 58 60 60 60 60 61 61 62
51 51 50 49 49 49 49 48 50 52 55 55 53 51 38 44 44 41 39 39 35 32 28 25 26 29 29 26 25 33 35 40 45 48 47 46 46 58 60 59 59 59 60 60 61
51 50 50 49 49 49 48 46 45 54 55 54 52 46 40 29 28 30 39 39 33 31 29 26 25 26 27 25 26 31 37 38 38 39 45 45 48 57 59 59 59 59 59 59 60
50 50 50 49 49 48 47 32 14 14 18 12 12 35 22 19 18 28 34 36 36 31 29 30 27 25 25 25 26 32 35 36 37 38 37 41 51 56 57 58 58 59 59 59 60
50 49 49 48 47 47 44 21 20 15 12 13 13 13 14 16 15 16 29 30 30 28 29 31 27 28 29 26 24 27 28 34 38 38 33 35 49 54 55 57 58 59 59 59 59
49 49 48 48 48 35 33 25 26 16 12 14 15 14 13 15 14 14 22 30 29 27 27 28 31 31 29 27 24 25 26 27 35 36 33 31 41 49 53 56 55 57 59 59 58
49 48 47 47 28 37 29 28 31 17 14 15 16 17 14 16 14 17 16 26 28 23 23 26 30 30 30 28 24 23 25 26 30 32 31 29 29 48 52 54 54 55 58 58 58
48 47 46 47 40 34 26 34 29 19 -5 15 12 15 11 14 18 20 24 22 24 25 20 25 28 31 29 29 28 24 25 25 28 30 31 31 28 41 52 53 52 54 55 57 58
46 45 47 42 42 35 36 32 20 13 4 11 11 8 9 11 13 21 22 26 25 25 25 23 31 32 33 32 32 30 27 28 29 27 26 29 27 27 49 51 52 53 51 53 55
46 45 47 44 24 31 35 21 12 6 10 9 8 8 7 7 11 17 20 22 31 23 21 23 23 29 35 33 33 32 28 26 25 23 21 26 24 24 40 51 51 52 54 56 54
46 46 44 43 40 39 31 18 11 10 8 9 10 8 5 14 17 16 19 22 32 35 30 18 19 25 30 34 33 30 28 26 24 21 20 18 17 18 22 37 49 52 56 54 53
47 41 40 38 38 37 22 17 14 11 13 13 12 12 12 15 21 19 19 26 31 34 32 31 18 26 28 31 32 30 28 24 15 14 11 13 13 14 15 14 31 45 53 52 54
42 40 38 37 32 25 18 17 18 16 15 16 16 17 14 17 18 22 18 24 31 32 33 33 28 23 26 27 30 25 24 23 19 13 10 11 11 12 12 12 13 27 46 49 53
39 36 36 34 25 20 16 16 14 14 19 19 19 19 14 13 13 20 18 21 30 32 33 32 31 27 20 20 26 27 20 18 17 14 11 9 10 12 13 14 12 16 41 49 52
40 31 36 35 21 21 21 21 18 15 23 21 18 18 17 20 20 20 22 29 35 35 32 33 36 32 25 20 20 30 24 16 12 12 13 13 10 21 17 17 15 14 26 49 52
38 37 36 31 27 27 27 27 23 25 24 22 21 22 22 21 21 27 30 29 33 34 36 37 35 29 23 22 19 16 24 17 15 13 12 11 11 18 19 22 28 23 19 34 49
40 30 33 34 32 31 31 29 27 27 24 25 22 24 22 22 26 24 27 31 31 32 36 39 32 30 28 26 28 20 17 22 15 13 12 12 13 16 17 20 25 19 25 33 47
37 32 35 28 31 34 32 30 27 26 29 27 21 22 23 21 22 23 25 24 25 31 35 35 28 26 24 25 26 30 26 20 15 14 14 14 17 17 18 31 29 28 31 36 47
36 35 36 34 34 33 31 29 32 33 32 29 31 31 24 21 22 23 26 25 25 29 32 35 28 27 23 29 31 30 29 28 16 14 17 17 16 18 23 38 38 38 40 42 43
39 41 38 37 34 33 31 32 32 32 37 34 33 32 28 27 27 29 30 28 26 28 29 31 28 25 24 30 30 28 30 30 22 16 16 18 19 25 43 49 46 36 38 40 46

GFSSW_sfc_30mbdewp_045.txt.gz
Dewpoint
51 51 51 51 51 51 51 52 52 53 53 53 53 53 53 54 54 52 41 37 34 46 55 62 65 62 64 65 63 59 52 50 53 54 55 59 58 63 63 60 59 58 56 58 62
51 51 51 51 51 51 51 51 52 52 52 53 53 53 54 53 51 46 43 49 49 54 59 59 59 61 62 63 62 59 55 52 54 54 54 56 59 61 59 59 56 54 57 59 61
50 50 51 51 51 51 51 51 51 52 52 52 53 53 54 54 46 35 46 50 53 62 60 59 58 59 59 60 61 60 55 56 53 55 57 55 58 59 59 59 57 54 56 57 60
50 50 50 50 50 51 51 51 51 51 52 52 53 54 54 52 22 35 60 55 57 60 51 51 49 45 52 54 55 58 59 59 53 53 55 53 58 59 59 59 59 55 56 56 59
50 51 52 51 51 50 51 51 51 51 51 51 52 53 52 38 26 35 63 55 57 49 43 43 43 42 46 49 50 55 56 56 59 58 54 51 57 58 59 61 56 57 55 55 57
51 52 52 52 52 51 51 51 51 51 52 52 53 53 48 15 28 40 56 53 51 40 38 31 36 40 39 40 49 49 50 51 52 52 48 48 50 58 60 60 58 59 56 56 56
52 52 52 51 51 51 51 50 51 52 55 52 54 51 46 20 38 41 53 51 51 36 34 31 29 35 33 38 40 43 45 45 47 49 48 51 54 56 61 60 60 59 59 58 60
52 51 51 51 51 50 50 50 51 53 52 53 56 51 39 44 46 44 47 43 47 38 30 31 29 33 32 33 30 38 40 41 45 48 47 47 46 59 61 60 59 60 60 59 61
51 51 50 50 50 50 49 49 51 55 56 56 53 50 38 44 39 31 38 39 44 43 33 29 27 27 30 30 28 29 35 41 42 46 47 46 51 59 61 60 59 59 59 60 60
50 50 50 49 49 50 49 47 48 56 55 54 52 41 35 20 18 15 31 39 36 38 30 26 24 22 26 27 31 30 34 36 37 41 47 46 48 59 60 60 60 60 59 60 60
50 49 49 48 49 49 47 20 21 15 18 12 12 20 17 18 17 17 18 38 32 29 26 26 21 19 20 27 28 32 35 37 38 40 42 46 47 57 59 59 59 60 60 60 60
49 49 48 47 48 48 40 20 24 26 15 14 14 13 14 14 14 15 18 34 33 28 29 27 22 22 23 26 26 25 25 30 34 37 37 39 45 56 58 58 59 59 59 60 60
49 48 47 47 48 36 34 25 29 22 13 13 15 14 14 15 14 15 16 25 31 32 29 27 28 28 27 25 25 24 23 25 30 35 36 39 43 51 58 58 58 59 59 59 59
48 47 46 47 28 36 26 28 33 23 10 11 12 13 11 15 15 20 24 19 25 29 30 28 28 28 26 28 26 24 25 26 27 29 30 34 34 53 56 57 57 58 59 59 59
48 47 46 48 37 28 27 34 32 18 -4 13 9 12 10 7 10 18 22 26 20 21 25 24 26 27 27 27 29 26 25 25 26 26 28 28 30 42 53 54 56 57 59 59 60
48 47 47 44 42 37 36 31 18 10 2 10 10 8 7 11 14 18 22 34 33 31 22 24 24 27 27 30 29 28 25 25 26 26 24 26 29 29 48 50 54 56 56 57 59
47 46 46 45 27 39 34 21 10 5 10 8 10 9 9 17 17 18 26 34 32 26 25 24 24 24 30 28 31 29 25 23 21 23 24 27 28 29 45 49 51 54 54 54 58
47 45 42 44 41 40 26 17 9 13 11 12 12 11 11 21 20 18 20 27 33 33 32 30 21 24 25 31 29 30 29 25 21 24 25 26 24 26 34 47 51 52 53 53 56
47 40 38 37 36 34 21 16 15 13 15 14 14 14 15 17 19 17 22 27 31 32 28 31 27 31 27 26 33 31 29 30 25 16 20 23 17 19 26 40 49 51 52 53 53
42 39 36 37 31 25 18 17 17 16 16 18 14 17 16 13 14 20 17 27 31 32 32 31 29 31 31 26 29 33 31 29 24 23 16 17 14 19 19 21 38 50 51 51 53
39 34 35 37 25 20 16 16 16 20 20 18 18 16 17 16 19 21 19 27 33 32 32 32 31 30 33 23 22 26 30 28 29 23 23 13 13 16 15 18 21 40 47 50 53
39 23 36 32 25 25 23 26 25 22 23 20 19 18 16 19 21 21 26 28 33 31 33 35 35 32 32 32 33 31 27 22 27 23 18 18 19 16 15 14 18 21 38 45 51
37 37 38 32 25 27 29 29 26 25 24 22 20 22 22 21 19 26 28 30 33 33 33 35 33 25 25 24 27 25 24 24 22 20 18 22 22 15 18 19 21 21 20 37 48
38 28 33 32 33 32 32 31 28 28 27 29 24 24 23 22 24 22 28 32 29 30 39 35 33 27 25 26 27 25 25 25 23 17 16 14 17 15 14 15 19 25 31 27 44
35 32 35 29 31 33 33 32 29 31 32 31 25 31 30 24 22 23 25 25 30 36 36 35 28 30 29 28 27 26 24 24 26 20 15 15 13 14 16 19 34 39 32 27 40
35 35 36 34 34 34 32 29 31 31 32 32 32 34 32 28 24 20 23 24 24 32 34 35 27 30 28 26 25 25 25 26 28 28 16 15 15 19 44 47 48 51 39 30 46
39 41 38 36 35 33 33 34 33 36 37 37 37 34 33 31 30 30 28 27 26 29 32 32 31 28 24 25 25 28 30 32 31 34 30 19 24 40 47 51 56 57 54 40 44

GFSSW_sfc_30mbdewp_048.txt.gz
Dewpoint
50 51 51 51 51 51 52 52 52 53 53 53 53 54 53 53 53 53 41 37 39 50 61 70 66 64 64 64 65 59 53 49 53 54 56 60 59 63 63 60 58 57 58 61 65
51 51 51 51 51 51 51 52 52 52 53 53 53 53 53 53 51 46 43 49 52 54 64 65 60 62 62 63 64 57 55 51 55 55 56 59 59 62 61 59 55 57 60 63 63
51 51 51 51 51 51 51 51 52 53 52 52 53 53 53 53 43 31 52 49 52 60 61 57 57 62 60 62 61 60 55 55 54 55 57 55 59 61 59 58 55 56 60 62 62
51 51 51 51 51 52 52 52 52 52 52 52 52 53 54 51 14 37 63 53 55 62 56 57 58 58 57 56 60 58 60 59 55 55 55 54 59 59 59 59 58 58 61 61 61
51 51 52 51 51 52 52 52 52 52 53 53 52 53 51 34 22 37 60 55 57 60 53 52 55 50 54 55 53 58 58 57 58 58 58 56 55 58 59 58 56 58 60 60 61
51 51 52 52 52 51 52 52 51 52 54 54 52 53 47 12 29 44 55 55 56 52 50 45 52 46 47 48 52 52 54 54 54 53 53 53 54 58 59 55 56 57 58 60 60
51 51 51 51 51 51 51 51 51 54 55 53 54 51 45 27 41 46 53 52 51 51 44 37 40 45 37 40 42 47 45 41 44 49 49 50 55 56 57 56 55 55 57 59 59
51 51 50 50 50 50 51 51 51 53 53 54 54 50 37 43 45 43 51 47 48 44 32 34 31 36 33 34 30 35 38 40 45 46 48 49 46 59 57 57 55 54 54 57 58
51 50 49 49 49 49 50 50 51 56 55 56 53 49 26 41 29 28 29 40 47 43 37 30 28 29 32 32 31 29 38 41 43 45 47 47 49 59 59 58 57 55 54 54 56
50 50 49 48 48 49 50 49 54 56 56 54 51 37 26 14 16 17 28 43 42 41 35 28 25 23 27 31 31 33 32 38 41 41 47 47 49 59 59 59 58 58 57 56 57
50 50 49 48 48 49 46 28 22 19 21 14 12 14 16 15 16 15 17 38 34 34 29 26 23 19 20 30 32 33 35 37 38 39 46 46 49 58 59 59 59 58 59 59 58
50 49 48 48 48 47 36 24 28 29 20 16 14 14 14 14 14 20 17 36 32 31 27 25 21 21 20 25 30 30 26 33 36 38 40 43 46 56 59 59 59 59 59 59 59
50 49 48 48 48 35 32 25 30 21 14 12 15 14 12 14 14 18 22 21 31 30 27 23 23 22 21 23 23 27 27 25 32 31 36 37 37 50 58 59 59 60 60 59 59
49 48 48 47 30 35 24 30 35 25 8 12 10 11 8 11 13 17 19 22 21 30 30 27 28 24 21 21 24 22 27 28 26 27 30 36 34 44 56 57 58 59 59 60 60
49 48 47 48 40 28 28 37 30 15 -5 11 11 12 10 10 13 14 30 31 21 18 29 31 28 27 24 21 25 19 25 26 26 26 27 27 28 32 54 56 57 58 59 59 60
48 47 48 43 40 34 37 36 18 9 -1 9 11 10 14 17 18 19 33 35 36 33 27 21 25 28 27 28 26 28 25 26 26 25 23 25 27 30 44 52 56 58 58 59 59
48 47 46 45 34 38 39 18 9 2 11 10 11 12 15 17 18 18 29 32 31 28 27 28 21 22 26 26 27 28 25 23 21 23 24 29 26 29 32 48 53 57 58 59 59
48 46 41 44 40 41 23 16 5 12 12 13 13 13 12 15 18 17 25 30 32 32 31 29 20 24 25 25 27 28 26 23 20 21 24 27 26 28 31 40 51 54 57 58 59
47 39 38 37 36 29 19 14 16 13 15 14 14 14 14 14 17 16 23 31 31 30 27 29 27 31 30 29 28 28 27 27 25 20 23 25 25 26 28 32 44 49 52 56 57
41 37 35 37 33 22 17 16 16 17 17 18 12 15 13 13 14 18 18 31 31 31 32 31 28 31 33 32 28 29 30 26 26 24 20 21 20 28 26 29 36 43 50 52 55
38 30 33 36 25 21 16 16 18 20 22 18 16 14 17 15 18 20 19 31 33 31 31 33 31 30 33 29 24 24 30 30 27 26 23 19 19 23 25 28 28 32 48 51 53
36 21 35 33 24 27 24 28 27 23 23 21 19 18 17 18 20 20 22 28 34 31 30 35 34 30 31 33 33 31 29 29 29 27 24 24 24 20 21 22 25 27 37 50 52
36 36 37 32 25 27 31 30 29 26 27 24 21 20 21 20 18 25 28 31 33 32 31 34 33 25 25 26 28 27 26 26 25 25 29 25 26 27 21 19 18 20 25 39 49
36 26 31 33 33 31 31 30 30 30 30 30 26 25 23 22 23 19 27 31 32 32 37 36 31 27 23 24 28 25 27 27 25 24 24 26 27 24 21 19 20 21 22 22 27
34 32 34 29 31 33 34 31 30 30 33 32 28 31 30 26 22 22 24 28 32 35 36 34 26 28 29 30 29 27 27 27 25 25 24 23 21 22 25 23 25 41 43 40 35
35 34 35 34 34 33 33 31 32 32 34 32 31 31 35 30 25 20 24 24 27 32 33 35 25 30 28 28 28 25 26 27 26 26 26 27 24 27 42 50 54 56 58 57 51
39 40 38 36 35 34 34 34 34 36 35 37 37 34 33 34 37 36 28 27 26 29 30 31 29 29 23 26 24 24 26 29 31 31 34 24 30 42 52 55 54 55 57 59 60

GFSSW_sfc_30mbdewp_051.txt.gz
Dewpoint
52 52 52 52 53 53 53 52 53 53 54 54 54 54 53 53 53 52 40 36 40 52 62 68 64 64 63 63 65 60 53 50 53 54 55 59 59 61 63 58 57 57 58 61 65
52 52 52 52 52 52 53 53 53 53 53 54 53 54 53 53 50 46 44 49 52 58 61 61 58 60 59 61 63 58 55 52 55 56 56 57 59 60 60 58 56 58 60 63 65
51 51 51 51 51 52 53 53 53 53 53 53 53 53 53 52 43 30 48 60 53 58 61 58 58 57 57 60 61 59 55 55 54 55 58 58 58 61 59 57 57 58 61 63 63
51 50 51 51 51 52 52 52 53 53 53 53 53 53 53 51 16 31 57 62 54 56 62 51 55 53 51 55 59 57 59 58 57 55 55 56 58 59 59 58 59 59 61 62 61
51 51 51 51 51 51 52 52 52 52 53 54 53 52 51 34 21 40 58 55 57 55 50 45 51 50 44 50 56 56 58 58 59 57 56 56 55 56 58 59 59 60 61 60 60
51 52 51 51 51 51 51 51 52 52 55 55 53 53 46 15 32 43 55 54 55 51 49 49 49 49 46 54 51 53 55 56 55 53 54 53 51 56 59 58 58 60 60 60 59
51 51 51 51 51 50 51 51 51 53 55 54 54 50 41 25 40 45 53 52 56 51 48 50 50 45 41 41 47 49 49 47 46 48 50 50 51 55 57 58 58 59 59 59 59
50 51 50 50 50 50 51 51 52 54 54 55 54 50 32 40 44 46 50 49 52 49 42 40 42 46 34 35 31 35 39 42 46 47 48 49 46 57 57 57 57 58 58 58 58
50 50 50 49 50 50 50 51 52 55 56 55 52 48 17 31 16 20 31 42 45 51 38 35 34 38 36 33 29 34 26 38 44 47 47 48 46 58 57 56 56 57 58 58 58
50 50 50 49 49 50 49 50 57 57 56 54 49 33 17 13 15 16 30 45 42 42 35 28 33 28 29 31 16 24 26 38 44 44 46 47 47 58 57 56 55 55 56 57 57
50 50 49 49 49 49 46 29 24 22 24 15 14 14 12 13 17 21 22 39 38 30 24 27 23 25 22 26 30 33 33 33 41 44 44 46 46 56 58 58 55 54 55 55 56
50 49 49 49 49 48 38 27 29 30 19 17 15 14 15 14 15 14 26 36 37 28 25 23 19 20 23 23 27 27 31 33 37 39 41 44 44 53 58 58 58 56 54 54 54
49 49 49 49 49 35 30 28 33 25 16 12 15 11 10 14 14 13 23 24 33 32 26 19 21 21 20 19 20 22 25 31 32 31 37 38 39 46 57 58 59 58 57 56 55
49 49 49 48 28 35 26 32 38 31 7 14 10 10 11 12 12 16 34 25 19 32 30 30 28 22 20 18 19 15 22 30 31 29 34 38 37 40 49 56 58 58 58 58 57
49 49 48 48 36 28 32 38 27 16 -10 11 11 12 16 12 17 13 33 33 24 23 31 30 29 27 22 21 20 16 19 18 26 30 29 31 34 37 47 51 55 57 58 59 59
49 48 48 43 39 34 38 34 20 8 -5 10 12 12 13 18 17 20 31 34 36 32 30 27 31 30 27 25 22 21 23 21 18 21 28 31 31 33 42 47 52 56 58 59 59
49 48 46 44 32 37 38 19 10 1 12 10 12 13 15 14 15 20 29 29 28 22 26 29 24 25 29 26 26 24 19 20 19 15 19 30 30 32 36 44 47 53 57 58 59
48 46 41 43 38 37 24 17 5 12 12 14 13 14 13 14 15 17 22 26 29 29 30 26 14 23 24 26 25 25 22 15 16 11 8 25 28 30 34 35 43 49 53 57 59
46 38 38 36 36 31 21 14 13 14 14 13 14 12 13 14 15 14 21 28 31 26 24 27 26 31 30 30 25 25 25 22 16 23 17 12 26 31 33 33 35 42 50 55 57
41 37 34 36 31 24 21 16 16 18 17 16 11 14 11 12 12 13 14 31 31 28 31 30 26 30 32 32 29 26 27 25 23 15 15 15 16 21 30 31 34 38 43 52 56
37 30 32 35 28 22 20 19 20 20 22 17 14 13 14 13 14 15 14 29 30 26 31 31 27 22 29 29 25 26 26 27 25 23 15 14 16 23 27 34 33 37 41 46 53
38 22 34 33 25 28 25 29 29 24 25 21 20 18 16 16 15 16 15 21 31 28 23 32 31 24 24 30 32 31 27 25 27 25 25 22 16 25 30 31 33 33 36 43 50
36 35 34 33 27 29 32 30 30 28 27 26 22 19 20 17 16 21 25 31 31 27 26 32 28 20 9 22 28 28 28 27 27 28 27 21 20 27 30 30 30 31 34 40 50
35 27 31 33 33 32 30 30 28 30 31 31 28 26 23 20 23 20 25 30 32 30 36 34 28 19 16 19 25 25 25 27 26 26 28 29 27 26 25 30 30 29 32 31 39
36 33 34 30 31 32 32 31 29 29 33 32 30 30 29 24 22 22 23 27 31 32 36 31 21 21 19 21 25 24 22 21 26 27 27 29 28 32 32 31 31 29 41 47 46
36 36 36 34 35 34 33 32 32 33 33 31 32 34 36 32 26 23 24 24 24 33 32 34 20 24 18 17 24 25 23 22 24 26 27 27 28 31 46 48 48 54 56 55 56
40 41 39 36 36 33 34 35 35 36 36 34 37 34 32 33 37 36 37 36 32 28 31 30 27 20 13 21 25 23 23 22 26 32 29 28 30 41 46 54 53 54 55 56 57

GFSSW_sfc_30mbdewp_057.txt.gz
Dewpoint
52 52 52 52 53 53 53 54 54 55 55 55 55 55 54 53 53 50 33 39 39 55 62 58 57 57 56 56 57 61 56 51 54 51 54 56 56 59 61 59 58 58 59 61 61
52 51 52 52 52 52 53 53 54 54 55 55 55 55 53 53 47 37 44 43 46 49 59 51 53 54 52 53 56 58 52 55 52 54 53 54 56 59 59 56 56 57 60 61 60
51 51 52 52 51 52 53 53 53 54 54 54 55 55 54 52 42 37 52 52 53 54 55 51 51 51 48 49 53 54 50 51 51 53 55 55 60 60 56 53 55 56 60 60 59
51 51 52 51 51 52 53 53 53 53 54 54 55 54 53 49 29 37 56 61 59 53 56 49 47 45 42 44 48 48 49 52 53 53 54 55 57 55 56 59 56 58 61 60 58
52 52 53 52 52 52 53 53 53 53 53 55 56 54 52 36 20 31 53 62 54 46 51 46 43 42 37 38 43 45 47 53 53 53 52 52 49 61 57 56 58 59 61 59 58
52 52 52 52 52 52 52 52 53 53 54 56 56 54 49 25 29 43 47 54 42 40 42 42 40 40 34 33 37 40 43 54 54 52 52 50 50 50 53 56 58 59 60 59 58
52 52 52 52 51 52 52 52 54 53 55 55 54 52 37 26 28 43 45 41 37 39 39 41 38 37 32 31 34 36 40 46 53 52 51 49 49 47 55 56 58 58 59 58 57
52 51 51 51 51 51 51 51 54 54 55 55 56 51 26 23 25 34 44 43 39 39 41 38 35 37 32 29 28 33 36 41 47 51 50 48 44 46 55 56 57 58 58 57 56
51 52 51 52 51 51 51 51 55 55 56 56 53 45 17 23 18 22 35 41 43 41 39 37 37 33 33 26 24 21 26 35 43 49 47 47 48 55 53 55 56 57 57 56 56
51 52 52 51 51 51 50 50 55 56 55 48 41 30 14 16 19 20 26 39 45 35 39 39 36 30 30 27 13 15 19 26 38 46 46 45 49 60 51 52 55 56 56 56 55
51 51 51 51 50 49 45 38 40 36 26 16 12 12 13 16 18 24 35 38 43 32 27 32 30 22 26 27 19 11 18 22 29 43 45 45 49 59 50 51 54 56 55 56 56
52 51 51 51 50 48 43 23 26 29 21 14 13 11 13 16 14 25 36 32 33 33 28 21 19 22 20 17 17 15 17 21 25 39 45 46 45 47 49 50 54 55 55 55 56
51 51 51 50 49 40 28 27 29 28 21 13 11 10 10 12 12 16 25 31 28 30 29 22 19 20 20 19 16 15 16 24 28 37 43 43 43 43 50 50 52 55 55 54 55
51 51 50 49 38 27 27 29 29 27 17 11 9 9 10 11 11 15 22 27 26 25 22 22 22 19 18 17 19 16 15 14 22 30 32 40 38 43 52 48 51 52 54 53 54
50 50 49 49 40 26 29 28 25 24 -2 11 8 11 10 10 13 13 19 23 20 19 25 20 19 18 18 17 18 18 17 10 9 20 29 31 36 38 42 47 48 51 52 53 53
49 49 49 43 38 30 29 27 21 10 -5 6 8 8 8 9 9 12 15 18 22 21 20 22 24 22 18 19 20 20 18 16 12 8 14 27 34 35 39 43 45 48 51 52 53
48 48 47 39 30 31 30 23 12 -1 9 8 7 7 8 9 9 10 14 14 10 12 7 11 15 20 26 21 20 21 19 17 13 9 5 12 27 32 38 41 44 45 49 52 52
47 46 40 33 32 31 30 20 10 8 7 11 9 9 7 10 9 8 9 9 18 15 12 6 6 13 16 24 22 21 19 18 15 10 6 4 12 27 33 41 45 50 48 50 52
46 38 33 32 32 31 28 17 12 13 12 10 9 7 6 10 8 10 9 9 14 20 11 6 5 17 18 16 21 22 21 19 17 16 12 5 3 9 27 32 42 43 43 48 51
41 32 30 32 30 29 25 19 19 16 15 13 11 11 10 10 11 11 11 15 19 21 20 15 17 18 14 20 22 20 22 19 17 17 16 13 10 3 7 23 31 35 39 47 53
42 31 32 33 29 26 21 22 20 19 21 18 16 15 14 14 14 14 14 16 19 21 17 15 17 15 12 20 18 18 21 23 23 17 17 16 13 16 11 10 24 31 36 40 46
34 27 34 34 27 25 24 25 24 23 24 23 21 20 19 18 18 17 16 16 21 20 15 13 12 11 10 16 17 16 13 13 23 23 18 18 17 17 16 14 19 29 33 36 38
32 31 34 33 27 26 29 27 27 26 26 26 24 23 22 20 19 19 18 18 21 18 14 18 14 10 9 10 12 14 16 21 19 19 22 19 18 21 21 19 19 22 26 33 36
34 30 31 31 30 28 28 27 26 28 27 28 26 25 24 22 21 19 20 19 22 20 27 21 16 12 6 10 12 12 16 19 21 20 18 21 22 21 24 25 25 26 26 31 35
35 31 33 28 29 29 29 28 26 27 28 27 27 27 28 25 22 22 21 20 23 26 23 21 13 12 11 11 11 11 16 20 24 27 29 25 23 26 26 27 29 30 31 32 34
35 34 31 31 32 30 30 30 29 29 31 26 27 28 29 28 26 28 31 30 25 25 24 22 20 18 14 12 10 10 8 12 18 22 24 26 27 29 31 34 33 30 34 36 38
38 38 35 33 31 32 31 32 32 35 33 33 33 32 31 31 30 29 29 29 35 30 27 26 26 24 16 11 9 5 4 3 6 12 16 21 26 29 31 34 37 38 40 43 46

GFSSW_sfc_30mbdewp_060.txt.gz
Dewpoint
53 53 53 53 52 53 54 54 55 55 55 55 56 56 55 54 53 50 33 39 39 44 53 48 53 57 57 55 54 58 57 54 54 51 56 57 56 63 66 60 59 59 60 60 59
52 52 52 52 52 53 53 54 54 55 55 55 55 56 55 54 48 39 45 38 43 48 48 51 50 54 53 52 51 54 56 56 58 55 56 56 55 59 59 56 56 58 60 60 58
51 51 52 52 52 52 53 54 54 54 54 54 55 56 55 53 46 36 49 49 41 45 55 49 49 51 49 49 50 51 52 58 55 55 55 54 58 61 56 54 56 59 59 59 57
51 52 52 52 51 52 53 54 54 54 54 54 55 56 54 49 35 42 50 55 53 44 54 52 48 47 46 45 47 48 50 53 53 52 51 55 60 56 62 61 57 60 59 58 57
52 52 53 52 52 52 53 53 53 54 54 54 56 56 52 40 34 44 59 61 51 44 50 52 46 44 42 42 43 43 46 50 52 53 52 55 59 60 63 64 62 60 59 58 56
52 53 53 53 53 52 53 53 53 55 54 56 57 55 46 37 26 39 43 54 41 33 49 51 44 42 39 37 36 40 40 45 52 53 53 52 55 55 62 61 59 59 58 57 56
52 53 53 53 52 52 52 52 52 55 55 55 55 51 47 33 25 35 42 48 41 28 42 47 42 39 38 32 32 32 36 41 49 52 55 54 54 53 62 63 58 58 58 57 56
52 52 52 53 52 52 52 52 52 56 55 55 56 51 40 20 22 32 40 38 38 28 35 38 38 36 35 31 27 29 33 34 43 52 49 52 48 56 62 60 57 58 57 57 56
52 52 52 52 52 52 51 51 51 57 56 56 54 51 34 21 18 24 37 37 36 37 40 40 37 34 32 31 26 24 27 32 37 51 48 46 50 55 60 57 55 56 56 56 56
52 52 52 52 52 51 50 50 49 55 56 49 46 35 23 14 17 16 22 37 39 34 35 36 33 30 30 28 23 19 23 25 32 44 46 44 50 56 60 57 54 54 55 56 55
52 52 52 52 51 50 45 36 38 42 40 25 22 19 15 14 18 19 23 36 41 36 34 34 33 31 30 25 26 19 15 17 21 40 45 43 51 51 49 53 55 53 54 55 56
52 51 51 51 50 49 44 28 23 26 21 15 12 10 11 14 15 26 31 33 38 32 29 31 31 31 22 25 24 24 19 13 19 35 43 49 51 52 47 49 55 52 53 55 55
51 51 51 50 49 42 30 27 26 23 17 17 9 8 10 12 11 18 30 30 30 30 29 23 20 23 23 20 19 16 15 14 19 28 39 40 50 51 50 54 60 51 53 54 55
51 50 50 49 40 30 27 27 26 22 18 11 8 7 8 9 9 13 17 25 27 26 25 26 24 19 19 20 19 16 15 13 14 22 26 40 40 49 54 56 61 53 51 52 54
50 49 49 49 40 30 28 26 24 20 8 11 7 10 8 6 13 12 16 20 22 22 23 21 24 22 19 18 18 18 18 15 12 13 19 28 33 38 54 54 55 52 52 50 54
49 48 48 39 41 34 27 27 21 14 0 8 8 5 5 5 8 11 14 15 19 20 19 17 21 19 18 19 18 17 17 19 16 10 7 16 26 28 47 49 51 54 57 51 52
48 48 47 40 32 29 28 26 14 5 7 8 5 5 4 6 6 6 9 11 7 9 5 7 14 20 22 19 17 18 17 16 15 12 8 6 11 26 36 49 51 52 57 53 53
48 47 41 36 31 29 29 23 12 8 5 8 6 6 4 5 7 8 7 8 8 11 10 11 6 5 13 21 20 17 17 17 15 13 11 11 6 8 22 35 51 54 54 53 53
47 40 37 34 29 29 27 19 14 14 11 9 7 4 2 6 6 8 9 5 5 17 15 7 2 7 12 11 16 21 18 17 16 16 15 13 10 10 11 22 40 48 51 57 55
44 39 30 31 30 27 24 21 20 18 17 13 9 9 7 4 8 9 5 12 10 20 20 16 13 13 12 14 15 14 19 19 18 15 16 15 16 10 10 15 30 47 48 51 52
44 34 33 33 29 26 22 23 20 20 21 18 16 15 14 12 13 12 12 14 15 17 20 17 14 10 11 15 13 15 17 18 19 19 16 15 16 20 20 15 23 42 50 53 53
39 29 33 33 29 26 27 26 25 23 25 24 22 20 19 19 18 17 16 16 20 19 18 18 14 10 12 13 13 16 17 15 17 20 22 18 15 20 22 20 17 21 33 51 54
39 31 32 32 29 28 27 26 26 26 25 25 24 23 22 21 20 20 20 21 20 19 20 19 16 11 12 12 10 12 13 16 15 13 20 22 19 19 22 25 19 16 18 50 53
40 31 31 29 29 27 27 26 26 26 26 26 25 25 24 22 22 21 21 21 22 21 27 20 16 18 13 11 12 12 11 12 13 11 12 14 21 25 22 26 26 25 26 28 51
34 29 32 28 29 28 29 28 26 26 27 26 25 25 25 24 21 19 20 25 26 26 23 20 16 17 15 12 10 10 12 12 12 16 16 16 17 21 32 37 39 39 41 30 31
34 34 31 29 29 28 30 29 27 29 29 29 28 28 26 25 25 25 24 24 25 28 28 27 18 18 18 18 14 11 11 11 13 17 18 19 26 30 31 39 38 41 47 53 35
38 37 32 29 28 28 29 30 30 32 31 29 31 30 28 28 28 28 26 24 25 28 27 27 30 28 23 20 20 14 12 11 11 13 18 21 25 27 28 32 37 40 46 55 54

GFSSW_sfc_30mbdewp_063.txt.gz
Dewpoint
52 52 52 52 53 53 54 54 55 55 55 56 56 56 56 56 55 52 38 34 35 52 56 46 47 51 63 61 60 59 55 54 55 54 54 59 58 62 66 64 61 61 59 59 59
52 52 51 52 52 52 53 54 55 55 55 55 55 55 56 55 50 43 43 48 52 53 34 46 49 51 56 57 58 54 55 53 55 58 55 57 57 58 59 59 62 61 60 60 60
51 51 52 52 52 52 53 54 54 54 54 55 55 55 56 54 48 41 47 47 50 46 34 50 49 52 54 55 52 50 51 58 57 58 59 61 60 61 60 57 62 59 59 59 59
51 52 52 52 52 53 53 54 54 54 54 55 55 56 56 51 37 42 50 48 47 42 40 50 50 47 50 49 49 48 50 58 56 57 59 60 59 58 62 62 65 61 59 58 57
51 52 53 53 53 53 53 53 53 53 55 55 55 57 52 44 39 45 55 58 52 38 36 51 52 47 47 46 46 45 48 53 54 54 59 59 58 58 59 62 65 61 59 57 56
52 53 53 53 53 53 53 53 53 53 56 56 57 57 46 40 31 49 55 56 41 36 42 50 52 47 45 44 42 41 40 47 52 55 59 58 59 59 58 65 65 60 58 57 55
52 53 53 53 53 53 52 52 52 52 56 55 57 52 47 43 28 36 45 52 42 34 36 47 52 49 42 39 39 32 31 32 52 54 56 58 59 56 63 63 63 59 57 57 56
52 53 53 52 52 53 53 52 51 52 56 55 56 51 48 43 22 26 39 48 45 34 33 45 49 46 37 36 34 30 28 29 36 53 55 55 53 58 61 62 62 58 57 56 56
53 53 53 53 52 52 52 50 51 52 57 56 55 52 45 20 16 20 33 39 43 33 27 31 35 37 36 32 31 30 24 27 31 51 52 54 55 61 60 63 61 57 57 56 56
52 52 52 52 52 51 51 46 48 48 56 53 48 43 41 21 16 15 22 33 34 29 28 32 38 35 33 29 27 28 24 23 26 45 50 51 58 61 63 64 61 57 57 56 56
52 52 52 51 51 50 48 35 39 39 38 41 37 36 17 14 19 17 19 34 36 34 32 34 34 31 30 29 28 28 27 22 21 32 47 51 58 60 58 54 60 61 57 55 55
52 51 51 51 50 49 48 35 24 22 22 25 32 18 11 12 14 22 23 28 37 34 35 34 31 32 33 32 30 25 25 24 23 18 47 51 55 57 55 58 61 60 56 56 55
51 50 50 50 49 45 31 31 26 25 20 17 20 9 9 10 12 26 30 28 35 37 30 30 32 33 33 31 23 23 24 22 19 17 47 51 50 51 53 56 60 63 59 57 55
50 50 50 49 39 35 32 28 25 22 18 16 12 8 9 8 8 17 19 22 27 30 32 29 27 25 29 27 24 20 20 18 13 13 15 46 43 50 51 55 58 59 60 57 55
50 50 49 49 41 31 29 26 23 21 13 14 8 10 6 7 11 11 15 19 23 25 25 25 25 26 24 20 19 19 21 20 19 17 12 12 19 46 52 52 56 54 59 58 57
50 49 49 44 46 37 35 29 25 17 12 7 8 7 5 6 7 13 14 15 17 17 20 20 20 22 24 23 21 19 18 18 18 19 16 12 12 31 49 49 53 55 55 55 56
50 48 48 42 36 35 29 28 19 12 9 6 5 4 4 4 5 6 10 12 10 8 8 9 13 17 18 21 18 18 17 16 16 16 16 15 10 9 49 53 50 51 53 59 54
48 48 44 39 36 34 29 27 19 14 8 7 5 5 4 7 7 7 7 7 12 11 8 8 11 4 13 19 21 20 17 16 15 16 17 17 13 12 45 55 53 55 57 55 55
48 43 39 39 40 33 27 24 18 15 15 10 7 4 2 7 6 7 8 8 13 20 16 16 12 17 14 13 16 20 21 18 17 17 16 18 19 16 15 49 55 53 53 51 59
46 42 39 33 30 27 25 23 19 21 20 18 11 13 13 9 6 7 6 15 19 21 21 19 14 15 13 12 13 12 17 17 18 14 14 17 18 20 21 15 49 53 53 57 60
46 41 34 34 30 28 25 26 22 24 23 20 19 18 19 19 19 15 14 19 19 20 20 19 16 15 14 12 12 15 14 16 16 18 17 15 17 21 21 27 47 51 55 58 57
44 35 32 34 31 33 27 26 26 24 26 24 23 21 21 21 21 20 19 20 20 20 20 20 17 14 14 15 14 13 12 16 17 17 20 22 23 25 26 27 40 49 52 58 57
43 37 32 32 28 28 27 26 25 24 25 25 24 25 24 22 21 21 20 21 20 20 24 20 19 16 16 12 16 16 14 14 17 16 16 17 20 27 33 34 37 42 51 56 56
43 30 33 32 31 30 30 27 24 27 26 25 25 25 25 25 24 22 22 23 24 26 27 21 18 16 15 16 17 15 13 12 14 12 14 15 16 15 33 33 36 41 52 56 55
43 29 31 28 29 30 31 29 27 28 29 29 28 27 25 25 25 25 26 25 26 31 27 22 18 18 16 16 17 16 13 11 11 14 14 15 17 26 31 32 34 41 51 55 58
36 36 36 30 29 29 30 29 28 30 28 27 29 29 27 27 27 25 26 26 24 26 28 29 26 25 25 20 18 17 19 19 12 12 12 15 18 28 27 29 33 39 46 54 59
41 40 33 29 31 30 30 30 30 33 32 30 30 30 29 30 31 31 30 29 25 23 25 32 31 29 25 25 24 23 21 20 18 14 13 12 16 32 40 33 38 54 56 57 56

GFSSW_sfc_30mbdewp_066.txt.gz
Dewpoint
51 51 52 52 53 52 53 54 55 55 55 55 56 56 56 57 56 53 37 28 32 66 63 61 59 52 64 64 63 61 56 52 53 54 57 61 59 64 66 62 60 62 58 59 62
51 51 52 53 53 53 53 54 55 55 55 55 55 55 56 57 51 43 44 46 45 58 43 46 44 47 51 61 60 59 55 53 55 58 57 60 59 62 62 61 59 60 59 59 62
51 52 53 53 53 53 53 54 54 54 54 55 55 55 57 55 49 40 48 53 60 56 31 47 48 49 51 54 57 57 54 55 56 59 59 59 60 61 59 60 63 61 58 59 60
51 52 53 53 53 53 53 53 54 54 54 55 56 56 57 52 37 43 55 56 56 44 36 38 46 48 50 53 55 52 51 51 56 59 60 57 61 59 62 64 66 64 58 58 56
52 53 53 53 53 53 53 53 53 53 53 56 56 57 52 45 26 49 59 58 56 38 33 46 51 49 47 49 51 48 48 50 55 59 60 61 60 59 60 64 65 62 58 58 57
52 53 53 53 53 53 53 53 52 53 53 57 57 57 45 24 42 51 56 56 43 35 32 42 52 52 49 48 47 45 43 41 57 60 60 59 59 59 58 63 63 62 58 58 57
52 53 53 53 53 52 52 52 52 52 53 57 57 54 47 27 42 51 55 48 43 35 34 37 50 50 50 44 43 41 33 32 56 59 59 59 57 57 62 64 63 62 58 58 56
52 53 52 52 52 52 52 52 51 52 53 57 56 53 43 50 48 44 53 49 42 35 32 40 46 46 49 46 34 33 31 27 52 56 59 55 53 60 62 62 62 60 58 57 56
53 53 52 52 52 52 51 51 50 52 54 56 54 52 42 44 16 17 38 47 45 39 32 31 34 33 34 33 31 31 29 26 31 54 57 55 54 59 63 62 61 60 57 57 56
52 52 52 52 51 51 51 49 49 51 56 55 52 45 39 30 18 19 22 45 40 39 28 26 28 34 35 32 29 30 29 27 25 46 55 54 56 59 61 62 60 59 57 56 55
52 52 51 51 51 50 49 38 31 36 44 36 40 35 29 23 18 15 16 27 34 29 28 34 35 34 35 32 30 29 27 26 27 28 53 54 58 58 62 59 60 60 58 56 55
52 51 51 50 50 50 49 31 29 24 21 28 34 36 35 18 13 19 19 26 34 32 33 33 32 33 33 31 30 29 28 27 26 34 43 55 57 58 61 57 59 60 59 58 56
51 51 51 50 49 46 33 30 32 29 20 20 21 27 19 10 12 24 22 24 36 35 33 33 34 34 33 32 31 31 29 28 25 44 56 55 55 58 60 57 60 61 60 60 57
51 51 50 49 38 35 30 31 31 23 16 17 16 13 10 9 10 26 27 23 30 36 37 33 33 30 32 32 32 29 26 23 20 17 29 50 46 54 55 55 60 62 61 60 58
51 51 50 49 41 30 27 34 35 21 12 16 11 10 9 7 11 12 16 18 21 24 26 28 28 28 26 25 29 29 25 20 19 18 17 37 32 41 53 54 59 61 60 60 61
51 50 49 46 45 40 39 35 26 16 11 8 8 5 6 6 9 12 14 15 15 17 17 18 21 22 25 26 25 23 19 18 20 19 16 17 13 38 50 51 58 61 59 60 59
50 49 48 46 30 36 35 29 18 13 13 7 6 6 5 4 5 11 13 11 12 7 10 11 11 10 14 16 22 20 17 15 14 14 14 18 15 12 50 51 55 59 59 58 57
49 48 46 42 37 38 34 26 18 16 17 12 5 4 3 5 6 6 7 7 15 17 10 8 8 14 15 15 17 20 17 15 13 13 17 19 15 13 22 49 53 58 57 55 57
48 43 42 39 40 39 27 23 18 19 20 18 10 5 14 9 8 7 16 17 20 20 13 14 12 17 15 13 12 13 18 20 17 19 15 17 19 21 23 38 51 52 55 55 57
45 43 40 40 39 30 25 23 22 24 23 20 18 19 18 19 17 6 15 19 20 21 20 18 12 16 15 14 15 13 16 15 18 14 13 16 18 17 30 38 50 50 55 56 57
45 39 36 34 31 28 26 26 24 26 26 23 21 20 21 20 21 19 19 19 20 20 20 19 16 14 13 14 14 13 12 13 16 17 15 15 16 28 36 36 41 51 54 54 60
44 30 33 35 31 32 25 25 26 25 26 26 25 24 23 22 21 20 19 20 21 21 20 20 16 14 15 19 17 15 15 14 13 14 20 20 19 34 36 37 44 52 53 54 59
42 41 35 33 28 29 27 25 27 26 28 25 25 26 26 24 21 22 21 24 24 24 21 20 18 14 11 14 18 16 17 16 13 16 15 14 16 31 33 37 47 52 56 55 58
41 29 31 31 32 30 28 28 27 30 29 29 28 27 26 25 26 25 25 27 27 28 30 22 18 16 14 16 16 15 16 17 15 12 12 15 14 22 28 33 45 53 57 59 57
40 34 32 29 30 30 30 30 29 28 29 30 29 28 27 26 26 26 28 26 26 30 28 22 18 20 20 24 21 19 18 19 19 19 15 13 14 26 39 48 54 54 57 58 58
35 34 34 31 31 30 31 31 31 31 29 29 29 30 30 29 29 28 29 28 25 27 26 30 25 28 26 26 25 24 24 23 22 19 21 20 13 40 45 49 52 54 55 56 57
43 43 31 32 32 30 30 31 31 32 32 31 31 30 30 30 31 31 30 30 29 27 25 30 29 28 25 25 24 19 22 24 25 34 33 24 37 41 42 46 49 50 51 53 56

GFSSW_sfc_30mbdewp_069.txt.gz
Dewpoint
51 51 52 53 53 53 54 54 54 55 55 55 55 55 56 57 56 53 34 23 30 57 66 65 63 55 64 63 63 62 57 52 52 54 57 61 60 64 64 59 55 62 60 62 67
51 52 53 53 53 54 54 54 54 54 54 54 55 55 55 57 52 44 43 45 49 65 58 54 50 50 61 62 62 60 57 53 55 58 59 60 60 62 61 59 59 58 60 65 67
51 53 53 53 53 53 54 54 54 54 54 54 55 55 56 56 49 34 49 50 55 66 44 46 46 49 51 54 60 60 56 55 56 59 60 59 60 63 60 60 60 57 61 64 65
52 53 53 53 53 53 53 53 54 53 53 54 56 56 57 52 32 43 55 56 55 57 32 43 47 50 50 53 55 54 53 57 55 60 60 59 61 60 60 62 63 61 62 63 63
52 53 53 53 53 53 53 53 53 53 53 54 57 56 52 42 23 52 55 62 62 44 32 42 48 49 49 51 52 53 51 49 49 57 60 60 59 60 62 66 66 62 61 61 62
52 53 53 53 53 53 53 53 52 52 53 54 57 57 45 16 35 59 52 58 45 36 33 48 47 51 49 47 48 47 47 46 44 58 60 58 59 58 61 65 65 63 59 59 60
52 52 52 52 52 52 52 52 52 52 52 54 57 53 46 20 46 56 54 47 42 34 31 37 51 50 51 48 46 45 43 36 57 60 59 59 57 57 60 62 64 62 58 57 59
52 52 52 52 52 51 52 52 51 52 52 55 57 53 40 48 48 52 52 46 43 35 35 34 47 46 46 48 37 32 31 28 57 59 59 57 52 58 64 61 60 60 57 58 58
52 52 52 51 51 52 51 51 51 52 53 57 54 51 40 45 42 40 52 48 41 36 33 37 43 39 34 34 31 31 30 27 52 58 58 57 54 59 63 62 61 60 58 58 57
52 52 52 52 52 51 51 50 53 54 56 54 52 44 37 28 21 27 50 46 41 36 29 27 28 30 35 33 31 30 29 27 27 54 56 56 55 59 62 61 61 60 58 57 56
52 52 52 51 51 51 49 41 32 33 48 32 32 32 32 29 17 18 28 43 33 30 26 26 31 32 35 34 33 30 28 27 28 33 51 53 56 56 61 61 61 60 58 56 56
52 52 52 51 51 50 48 30 30 25 23 29 38 37 38 35 20 18 28 36 31 29 32 33 33 35 34 34 32 30 28 28 29 36 41 46 56 57 61 61 61 60 57 56 56
52 52 51 51 50 46 31 28 32 31 23 21 26 26 23 27 13 16 20 29 33 33 32 31 33 34 33 32 31 30 29 30 29 35 55 55 55 56 58 59 59 60 61 58 56
52 52 51 50 35 35 30 31 36 26 14 10 17 19 16 9 9 24 25 28 33 33 34 33 34 34 33 32 32 31 32 31 27 18 17 51 45 55 56 58 58 59 61 60 58
51 51 50 49 41 34 30 37 33 20 5 16 14 10 9 7 14 14 17 20 25 30 36 35 30 31 29 28 32 31 32 28 24 18 35 39 32 39 53 54 56 58 60 61 60
51 50 49 46 44 39 39 35 23 16 11 8 8 5 6 7 10 13 14 16 16 17 18 18 21 23 25 27 28 27 24 20 20 18 15 24 24 30 49 50 54 57 61 61 60
50 49 49 46 27 36 37 29 17 13 17 8 6 5 5 4 8 13 13 11 14 16 14 11 11 13 15 15 21 21 19 16 14 15 14 17 15 14 40 52 52 55 60 61 59
50 48 48 44 40 38 32 23 16 18 19 19 9 5 3 5 6 7 10 13 20 14 10 8 11 15 14 13 14 18 19 15 12 13 16 19 15 19 26 37 52 55 57 60 59
49 43 41 39 43 38 26 20 22 21 23 19 18 17 19 16 8 16 18 19 19 20 13 14 12 17 15 14 14 15 18 20 18 18 15 16 18 21 36 43 50 53 57 60 59
44 43 36 39 39 29 25 22 23 26 25 22 18 20 18 20 15 13 18 19 19 20 20 17 11 16 15 15 14 14 14 15 18 14 13 16 17 25 35 39 51 51 56 58 59
44 33 33 35 32 29 26 24 25 26 26 24 23 21 21 21 21 19 19 20 21 19 20 18 14 12 13 15 14 15 14 13 17 18 15 14 23 32 36 40 45 51 52 56 56
42 29 34 34 30 30 24 24 27 28 28 26 26 25 23 23 21 20 21 22 24 23 19 20 17 14 16 18 17 17 16 14 10 11 18 19 23 26 30 41 52 56 58 56 56
39 37 34 33 26 27 28 28 29 29 29 26 26 26 26 25 22 24 24 27 30 23 21 20 17 12 11 14 17 16 17 16 13 16 14 15 16 27 39 53 54 56 58 59 60
36 29 30 31 32 29 28 29 28 29 29 30 29 27 25 25 27 26 25 26 27 33 33 23 18 16 14 16 17 18 19 18 17 15 16 13 14 40 48 53 53 54 56 57 59
36 33 33 29 30 30 30 30 29 29 29 30 29 30 27 26 27 28 29 27 25 29 29 21 20 23 24 25 25 24 23 23 21 19 16 17 22 38 42 49 51 51 53 56 57
37 36 32 32 31 30 31 31 31 31 29 28 30 30 30 29 29 28 28 28 26 27 25 30 27 27 25 26 24 23 22 21 22 21 21 25 24 41 43 48 48 49 51 52 53
44 43 32 32 31 30 31 31 30 32 31 31 30 30 29 30 31 31 31 30 29 28 25 28 27 26 23 25 22 18 23 23 33 37 33 24 36 41 41 44 45 48 49 51 53

GFSSW_sfc_30mbdewp_072.txt.gz
Dewpoint
51 52 53 53 54 54 54 54 54 54 54 55 55 55 55 55 56 54 35 24 30 51 65 66 62 61 65 63 63 63 57 53 52 54 58 61 60 65 65 57 59 61 61 65 69
51 53 53 54 54 54 54 54 54 54 54 54 55 55 55 56 52 44 41 45 47 62 63 56 54 58 62 62 61 60 57 53 55 58 58 62 61 61 59 57 59 62 65 68 68
52 53 53 53 53 53 53 54 54 53 54 54 54 55 56 56 46 36 50 49 59 63 58 50 51 52 55 55 61 60 56 56 56 59 61 60 61 62 60 60 59 61 64 66 66
52 53 53 53 53 53 53 53 53 53 53 54 54 56 57 51 24 47 53 55 62 46 48 45 49 52 55 54 55 56 56 56 57 61 61 59 62 60 60 62 61 63 65 66 65
52 53 52 52 53 53 53 53 53 53 53 53 54 57 51 36 24 56 53 57 63 51 42 44 50 51 53 52 53 55 54 52 51 59 60 61 59 61 62 62 61 63 64 64 65
52 52 52 52 52 52 52 52 52 52 53 53 55 57 44 9 34 57 58 58 53 42 33 46 49 51 49 48 48 49 49 46 47 54 60 58 60 60 64 64 63 62 62 63 64
51 52 52 52 52 52 52 52 52 52 52 53 57 54 42 13 49 53 58 50 46 36 32 45 51 51 50 49 48 45 38 39 59 59 58 59 58 57 63 66 64 63 62 62 62
51 51 51 51 51 51 52 52 51 52 52 54 57 54 41 46 53 51 47 44 40 35 33 35 48 47 46 47 37 32 31 28 57 59 59 57 51 59 63 61 63 62 61 60 61
51 51 51 51 51 52 51 51 53 53 53 57 54 51 40 49 48 50 49 41 39 34 33 33 44 45 34 35 32 32 30 26 49 58 58 57 53 60 63 61 62 61 59 58 60
52 52 52 52 52 51 50 50 55 56 55 55 53 45 38 35 31 45 51 40 38 33 30 32 33 32 33 33 35 32 29 27 28 55 57 56 55 59 63 62 60 59 57 57 58
52 52 52 52 51 50 48 43 30 34 50 31 29 30 32 34 22 38 49 39 35 31 23 26 30 34 32 35 33 30 29 28 28 40 53 52 54 58 61 62 61 58 57 57 57
52 52 52 51 51 50 48 30 30 27 27 33 39 38 36 36 21 20 46 36 34 26 30 30 37 35 35 36 32 30 29 28 29 32 38 44 55 58 60 61 61 61 59 57 56
52 52 51 50 50 45 30 28 32 32 25 21 29 28 24 31 21 17 38 34 32 31 32 31 35 35 35 33 31 30 29 28 29 29 56 54 52 56 58 61 59 61 60 58 57
52 52 51 49 32 38 30 32 37 33 14 9 18 20 20 14 9 22 26 32 35 32 32 33 34 34 33 32 32 30 32 31 31 24 21 52 42 52 56 58 58 59 60 60 57
52 51 50 48 42 34 32 37 34 20 3 14 16 14 11 8 15 16 19 25 32 35 35 33 33 32 31 32 33 31 32 31 29 22 37 41 35 39 56 54 56 58 58 60 61
51 51 50 45 43 38 38 36 23 16 12 9 8 6 7 8 11 14 15 16 21 18 24 30 21 30 31 30 31 29 24 20 20 18 15 28 26 21 45 47 52 56 58 59 61
51 50 48 45 25 36 37 27 17 14 19 16 8 6 6 6 11 13 13 17 16 15 18 12 12 15 15 17 23 25 20 17 15 15 15 17 23 24 29 34 42 50 56 59 60
50 48 48 45 42 42 30 22 17 20 20 21 15 15 10 10 10 16 15 18 19 12 12 14 12 15 15 14 17 20 20 17 12 14 15 19 16 29 35 41 50 51 57 59 60
48 43 39 39 43 37 25 22 23 24 24 21 19 16 18 18 14 18 19 19 19 19 13 11 12 17 16 15 15 18 18 20 18 18 15 17 20 22 34 40 46 52 56 58 61
44 40 33 36 39 31 25 23 24 26 26 23 19 20 18 19 15 17 18 20 19 20 20 16 11 16 15 15 16 15 15 18 18 14 13 16 26 27 30 37 50 55 57 57 60
41 30 32 35 34 27 25 24 25 28 26 24 22 21 22 21 20 19 22 21 27 21 20 17 12 12 16 16 15 14 13 15 18 18 14 15 26 31 38 47 52 54 57 59 57
38 28 34 33 26 28 27 28 29 29 29 27 26 25 23 23 22 22 25 27 30 22 18 20 16 15 16 18 18 17 16 14 15 13 18 21 21 46 51 52 52 54 56 59 61
36 33 33 32 24 27 29 29 29 29 29 28 27 26 26 25 22 25 26 27 29 31 22 19 16 12 14 15 17 19 18 16 14 15 14 20 20 42 47 49 50 52 55 56 58
33 28 30 32 32 29 28 29 28 30 29 30 30 28 26 26 28 26 25 26 27 35 34 23 18 15 9 15 18 21 22 20 16 14 16 15 17 38 44 47 48 49 52 53 55
34 32 32 29 30 31 31 31 30 29 29 30 30 30 28 25 27 27 28 26 25 29 29 21 21 24 25 25 24 23 22 21 16 19 14 18 21 38 43 47 47 48 49 51 53
37 32 33 32 31 30 31 30 30 30 29 28 30 30 30 28 28 27 28 27 27 26 27 29 28 26 25 25 23 21 23 22 20 21 20 22 28 41 43 46 45 45 47 49 52
45 40 31 32 31 29 31 31 29 31 31 32 30 29 29 31 31 31 30 30 29 27 25 28 27 23 19 26 22 21 22 24 32 36 35 25 36 39 38 43 41 41 41 43 45

GFSSW_sfc_30mbdewp_078.txt.gz
Dewpoint
53 53 53 54 54 54 54 55 55 54 54 54 54 54 55 54 54 51 32 26 30 58 66 58 57 61 60 58 60 61 56 52 54 53 56 61 59 64 64 61 60 60 57 58 60
53 53 53 53 53 54 54 54 54 54 54 54 54 54 54 54 46 35 36 41 47 62 57 49 55 60 57 56 58 59 55 53 55 57 57 60 60 61 60 60 58 59 58 59 60
52 53 52 53 53 53 53 54 54 54 54 54 54 54 55 54 38 19 43 49 56 62 52 44 53 57 54 55 57 58 53 53 54 58 59 60 59 59 57 57 60 60 59 59 59
52 52 52 52 52 53 53 53 53 53 53 53 54 54 56 48 15 39 53 54 62 53 48 43 51 52 50 52 57 56 54 52 53 57 60 60 59 60 57 59 60 61 59 59 58
51 51 51 51 51 52 53 53 53 53 52 53 54 54 52 34 13 51 54 55 57 49 44 40 44 43 46 51 55 55 52 49 48 59 58 60 59 58 61 61 62 62 59 58 57
50 50 51 52 51 52 52 52 52 52 52 53 54 55 40 17 41 48 41 44 49 42 36 36 36 42 44 50 51 51 50 44 43 51 55 56 58 58 61 62 62 60 59 59 57
51 51 51 51 51 52 52 51 51 52 53 52 54 53 34 17 47 41 50 45 42 35 33 35 37 41 45 47 50 49 43 44 48 45 52 56 57 56 61 61 61 59 59 59 58
52 51 51 51 51 51 51 50 52 55 54 53 55 50 30 43 48 40 47 47 39 36 34 41 43 42 45 48 47 45 39 35 50 50 54 56 52 58 61 60 59 57 58 58 57
51 52 52 52 51 51 50 51 55 54 54 55 51 47 27 51 46 40 42 42 36 33 36 41 41 41 45 41 40 42 39 33 48 53 55 54 53 60 60 59 56 54 54 52 53
53 52 52 52 51 50 49 50 54 56 54 52 49 40 39 34 43 39 36 37 34 30 28 34 38 36 38 38 32 40 36 32 44 53 53 51 52 59 60 61 58 58 57 52 55
53 52 52 51 50 49 48 46 38 44 40 25 21 29 32 36 42 40 39 33 32 29 22 28 30 27 29 37 37 39 36 34 40 51 49 45 45 57 61 61 61 60 59 56 54
53 53 52 51 49 49 45 33 31 31 25 29 27 29 30 35 35 37 40 35 29 26 23 23 25 22 28 39 36 36 33 30 31 39 37 32 39 51 60 58 60 60 60 59 55
53 52 51 50 49 47 34 30 32 33 25 21 26 24 25 29 29 36 37 36 27 24 23 20 20 27 35 39 35 35 36 31 30 31 42 42 48 52 55 60 59 59 59 59 57
52 51 50 50 42 37 31 32 35 34 18 15 17 19 24 25 20 36 36 33 26 22 24 17 30 32 36 34 34 31 36 32 29 27 32 40 40 50 53 58 60 59 58 58 57
51 51 50 49 41 34 32 35 32 28 10 10 16 21 23 20 24 32 34 34 27 22 24 22 31 34 33 33 34 29 35 33 29 28 25 32 33 44 52 51 58 59 59 58 57
51 50 50 46 41 34 34 36 26 18 14 12 15 18 18 14 19 33 35 30 31 25 24 27 32 37 34 33 34 33 32 32 29 26 23 29 30 33 42 45 46 52 57 59 58
51 50 49 43 32 37 39 31 18 17 20 15 12 14 11 13 18 25 28 25 29 24 24 29 32 32 32 34 34 32 26 24 24 19 18 27 27 38 44 52 53 55 55 55 60
50 49 48 41 39 39 36 25 19 21 22 21 16 12 10 15 18 21 23 24 25 25 22 21 23 26 20 27 30 30 23 18 19 16 17 26 26 37 49 53 55 57 57 50 57
49 43 38 34 38 40 29 20 23 24 26 22 18 10 13 16 20 22 21 21 21 23 23 23 18 16 16 17 22 28 23 21 19 19 17 21 34 41 46 51 55 56 58 59 55
43 37 33 34 38 33 26 24 26 27 27 23 19 16 13 16 20 22 22 22 21 21 21 23 17 17 16 16 19 25 26 21 19 17 17 19 27 35 46 50 53 54 57 60 58
40 30 33 33 34 29 24 25 27 27 27 24 23 19 18 18 18 19 20 24 25 21 21 20 19 16 17 19 18 20 21 21 18 18 16 20 27 47 48 50 52 54 56 59 61
33 25 33 34 29 28 26 27 28 27 29 26 26 25 23 22 23 23 23 26 30 25 19 19 18 15 17 18 19 20 21 23 19 19 19 19 37 47 48 50 51 53 55 57 59
31 27 32 33 24 27 29 27 27 27 28 27 26 26 27 26 24 25 24 26 31 27 26 20 17 16 13 15 19 19 19 20 20 22 18 14 35 45 47 49 51 52 53 54 55
29 21 28 31 32 29 29 29 27 27 28 28 28 27 26 26 27 25 24 25 27 29 32 25 19 19 12 17 17 18 18 18 19 18 21 21 38 43 44 47 49 51 50 50 51
32 27 31 24 28 29 29 27 25 26 26 28 27 27 26 25 25 25 25 25 26 29 27 25 23 21 20 19 18 17 16 15 18 22 21 24 36 40 44 45 46 46 47 46 47
29 27 29 27 31 26 24 27 24 26 26 24 27 28 28 28 28 27 27 28 28 27 27 26 25 23 21 20 18 16 17 18 15 17 22 26 35 41 45 44 41 40 40 40 40
40 34 29 29 24 20 25 26 26 28 28 27 27 28 29 30 30 30 29 29 29 27 28 27 25 22 15 19 14 8 11 14 16 18 17 20 32 39 41 41 39 37 39 38 38

GFSSW_sfc_30mbdewp_081.txt.gz
Dewpoint
53 54 53 54 54 54 54 54 54 54 55 55 55 55 55 55 54 49 31 31 34 62 67 55 57 59 58 58 58 59 57 52 53 53 57 60 60 63 63 58 58 57 54 55 57
53 53 53 53 54 54 54 54 54 54 54 54 54 55 55 55 45 34 40 42 51 65 60 50 52 57 55 55 57 57 55 53 56 54 57 58 58 59 59 59 58 55 54 56 56
53 53 52 52 52 53 53 54 54 54 54 54 54 55 55 54 41 22 46 44 50 66 51 46 50 55 52 52 56 57 53 54 57 56 58 57 58 59 58 57 58 54 55 56 56
52 52 51 52 52 52 53 53 53 53 53 53 54 54 55 49 25 47 51 47 53 58 48 41 47 50 48 49 56 54 55 53 57 57 57 57 57 57 58 59 60 57 56 55 55
50 51 52 52 52 52 53 53 53 53 53 53 53 54 52 34 22 53 54 53 46 54 45 37 44 46 46 48 54 53 51 48 52 55 58 57 57 58 59 60 60 58 55 55 53
52 52 52 51 52 52 53 52 52 52 52 53 53 55 44 22 32 48 43 37 38 47 41 37 41 44 42 50 53 52 52 45 46 50 58 56 57 58 58 60 60 57 55 54 52
52 52 51 52 52 52 52 52 51 53 54 53 53 50 37 21 37 38 36 32 40 41 38 33 33 37 42 46 51 50 46 42 45 49 53 56 56 56 60 60 60 56 55 54 52
52 51 52 52 52 52 52 51 52 55 56 54 54 44 35 24 38 36 33 34 41 37 31 31 31 32 39 44 46 47 45 40 44 46 51 56 53 58 60 60 59 55 54 53 52
52 53 53 52 52 52 51 50 53 55 55 54 49 43 27 45 41 37 41 36 36 33 31 33 38 33 39 40 40 44 38 37 43 48 51 53 55 59 58 57 57 54 54 53 52
53 53 53 53 52 51 50 50 53 56 53 49 42 33 34 29 36 38 40 38 30 31 32 35 34 30 34 38 33 37 36 36 42 48 51 54 53 57 59 57 56 55 53 52 51
53 53 53 52 51 50 49 48 46 46 40 31 25 24 26 24 36 34 36 35 29 28 26 27 29 25 29 30 31 31 33 43 43 45 50 48 53 56 59 59 58 53 51 49 49
54 53 52 51 51 50 48 32 28 29 23 27 24 19 29 34 33 33 32 31 27 24 22 21 24 26 26 29 32 35 34 30 38 43 50 53 51 57 59 59 60 59 56 50 50
53 53 51 51 51 48 34 28 30 30 23 19 23 18 25 32 29 31 32 28 28 23 22 19 19 23 22 25 34 35 33 31 31 39 38 32 41 52 55 59 61 62 59 56 53
53 52 51 50 43 31 28 29 29 30 20 16 17 19 20 25 24 30 33 29 26 24 22 19 19 20 19 24 34 31 33 30 30 31 31 37 41 45 54 54 61 61 60 58 58
53 52 50 50 39 29 29 29 29 27 13 11 13 16 20 22 20 29 32 30 25 20 22 19 18 20 24 28 33 25 31 34 30 28 31 35 41 45 52 52 58 60 61 60 59
52 51 50 48 40 28 28 32 28 17 14 12 13 13 17 20 18 27 28 30 27 20 21 20 18 29 28 29 29 27 29 32 31 26 23 25 32 45 47 51 56 59 59 60 60
51 50 49 44 32 34 32 30 22 18 27 12 11 13 18 17 18 25 25 27 26 21 18 21 23 31 28 28 29 29 30 27 25 22 19 21 31 42 47 49 52 53 54 62 60
51 50 46 40 37 36 34 28 25 26 20 19 15 15 14 13 15 25 27 25 24 22 16 19 25 29 33 30 29 28 28 23 19 17 15 20 32 43 49 53 55 55 55 56 58
50 44 40 35 35 35 30 32 29 22 22 19 14 14 13 14 18 23 25 22 23 25 17 20 24 27 31 32 28 28 26 20 16 17 12 27 42 46 49 52 55 57 58 57 50
43 34 33 32 34 33 30 31 24 25 23 21 15 16 14 17 21 20 23 28 24 24 24 23 22 23 21 22 24 25 28 21 18 17 12 26 36 38 45 51 54 55 58 60 59
41 27 33 31 32 30 35 25 24 26 26 21 21 21 21 16 19 27 23 24 25 24 25 27 23 20 20 21 21 23 24 23 19 18 15 25 36 46 48 52 53 55 57 59 60
31 23 29 30 26 24 25 25 26 26 27 24 24 25 27 25 30 32 23 25 27 25 24 23 21 19 19 21 20 20 22 24 21 19 17 19 41 46 50 53 54 54 56 57 59
29 21 26 27 27 22 27 25 25 25 27 25 23 24 25 24 22 22 22 25 27 25 25 23 18 17 18 19 20 19 21 22 21 19 19 16 40 47 50 52 53 53 53 55 56
27 20 23 25 26 25 27 27 25 25 27 27 26 25 23 22 25 24 22 24 26 23 32 30 19 18 17 15 18 19 20 20 21 19 20 27 41 44 45 49 51 51 51 52 53
25 20 28 22 22 25 26 24 23 22 24 27 27 25 24 19 23 23 23 24 25 25 27 22 18 21 18 17 16 19 19 19 20 20 21 37 40 42 45 46 47 49 49 49 50
28 25 21 22 27 19 20 22 20 23 24 23 26 25 26 25 26 23 24 25 27 26 26 23 21 20 18 15 16 15 16 15 18 20 22 35 40 43 44 45 44 45 44 44 44
33 30 27 23 22 18 21 22 21 24 24 24 27 28 29 29 30 29 29 28 29 28 27 25 23 21 13 17 12 11 13 14 15 17 22 31 40 43 41 40 40 41 42 42 41

GFSSW_sfc_30mbdewp_084.txt.gz
Dewpoint
54 54 53 53 54 54 54 54 55 55 55 55 55 55 56 56 55 49 29 28 32 53 56 40 43 49 57 57 58 61 57 54 55 54 58 60 60 63 62 56 58 55 52 53 54
53 53 53 53 53 53 54 54 54 54 55 55 55 55 55 56 47 34 36 42 46 47 50 47 49 54 57 56 57 61 55 55 55 56 58 58 58 60 58 55 55 51 52 53 53
51 51 52 52 53 53 53 54 54 54 54 54 54 55 55 55 44 31 44 45 47 49 51 51 51 54 53 55 56 60 53 56 56 57 58 58 58 60 56 55 53 51 52 52 52
52 52 52 52 53 53 53 53 54 54 53 54 54 54 55 48 34 43 54 44 46 40 54 47 44 50 50 50 54 58 54 55 56 56 57 57 58 58 59 60 55 54 53 52 51
52 52 52 52 52 53 53 53 53 53 53 53 54 54 50 39 24 51 54 47 32 42 52 44 42 48 47 51 54 57 53 54 57 56 56 56 56 58 62 65 57 55 53 52 51
52 52 52 52 52 53 52 53 52 52 53 54 54 54 43 28 30 50 40 29 27 44 50 41 38 45 45 47 50 53 51 48 52 57 56 54 59 58 63 65 60 55 53 52 50
52 52 52 53 52 53 52 52 52 53 55 55 54 51 36 26 27 40 36 28 29 41 45 39 35 43 42 44 52 51 52 46 49 55 55 56 56 57 59 63 59 55 53 51 51
53 53 53 53 53 52 52 52 51 53 56 56 55 46 32 29 24 33 33 29 28 34 40 36 34 34 38 41 50 50 48 42 46 52 55 56 54 58 60 59 56 54 53 50 51
53 52 53 53 54 52 52 51 51 55 55 56 50 45 31 38 26 32 28 26 33 38 36 31 29 28 31 36 41 44 42 42 42 50 53 54 57 61 58 57 55 54 53 50 50
53 53 54 53 53 52 51 51 51 55 53 47 45 38 29 35 24 30 36 31 35 34 29 27 28 30 30 34 36 37 37 41 41 47 52 54 55 60 59 57 56 55 53 51 50
54 53 53 52 51 51 49 47 45 46 46 35 31 31 24 29 29 31 35 34 32 31 27 29 30 27 28 32 37 35 34 42 46 50 51 52 56 56 58 56 56 54 54 51 51
53 53 52 52 52 51 48 43 26 25 22 36 33 23 23 24 31 31 35 33 26 26 28 27 27 23 23 28 31 33 32 38 44 47 56 53 55 56 56 55 57 55 54 52 50
53 52 52 52 51 48 41 28 25 25 21 19 18 24 22 28 31 29 30 29 25 23 23 22 19 21 22 22 26 28 30 37 40 45 49 49 53 51 57 58 60 60 62 55 50
53 53 52 51 46 36 31 25 26 24 19 13 16 21 18 25 30 30 28 28 24 22 21 20 18 18 22 22 23 26 31 40 42 43 45 51 45 55 55 56 59 59 61 61 50
53 52 51 51 43 30 28 23 27 24 13 15 15 17 17 19 25 27 31 26 24 23 21 18 18 16 19 20 20 27 32 36 31 30 28 31 33 51 56 57 53 59 60 60 61
52 52 51 49 45 34 23 25 27 17 15 14 12 12 13 16 20 22 29 30 25 26 20 20 18 17 18 19 19 29 30 32 33 28 23 32 33 48 52 54 56 57 62 59 62
53 52 50 45 35 33 31 26 22 16 31 19 11 11 10 15 18 21 27 27 26 24 19 17 19 17 21 21 25 29 27 25 27 26 22 21 28 47 52 57 59 57 61 60 63
52 51 47 41 38 33 30 27 26 33 33 25 16 12 10 13 16 16 24 24 26 24 16 16 16 18 26 25 26 26 24 24 22 21 21 21 28 48 52 58 56 53 61 59 58
50 44 41 40 42 33 29 34 33 33 23 19 18 14 13 16 13 18 21 22 22 25 20 15 17 20 22 27 26 26 24 27 23 22 19 36 46 50 52 53 55 57 60 61 64
44 36 37 36 31 32 38 37 39 32 23 19 18 18 20 20 21 18 20 25 27 29 27 22 16 22 25 28 31 30 26 24 24 20 17 36 42 43 49 52 54 56 57 59 62
41 34 32 31 25 34 38 38 31 23 23 22 20 24 28 28 31 29 33 28 30 29 28 25 30 31 28 27 28 28 26 24 23 20 17 33 41 47 50 53 54 56 57 59 60
37 32 30 25 19 32 35 39 24 23 21 25 25 26 27 27 33 34 37 35 27 27 24 26 32 30 23 22 25 25 26 26 23 24 20 37 43 49 52 54 55 55 57 59 60
38 20 21 21 27 37 36 23 23 23 24 24 25 22 28 32 27 33 35 31 26 25 29 32 27 28 21 18 19 19 21 22 23 23 23 32 40 49 53 54 54 54 55 57 58
36 18 21 20 21 28 27 26 26 24 23 25 25 24 21 26 30 29 22 22 23 23 28 32 23 30 24 19 18 19 19 22 22 21 23 39 44 47 52 53 52 52 53 54 55
35 17 22 21 21 21 23 24 21 21 23 25 26 21 19 25 21 21 21 21 22 24 24 23 21 26 31 17 18 17 18 19 20 22 40 42 43 47 49 51 51 51 51 50 50
27 27 17 20 23 18 20 19 19 19 23 19 24 25 24 21 25 24 21 24 27 23 25 22 22 23 18 16 17 16 17 18 18 20 32 36 43 46 47 48 48 48 48 47 47
34 27 28 17 21 18 20 21 19 22 20 24 28 28 30 29 31 31 27 27 31 28 28 26 26 23 19 17 15 15 17 17 17 20 40 42 44 45 44 44 44 44 44 44 44

GFSSW_sfc_30mbdewp_087.txt.gz
Dewpoint
52 53 52 53 53 54 54 54 55 55 55 55 55 55 56 57 56 53 35 29 32 56 60 48 37 47 53 61 61 64 57 55 54 55 58 60 59 63 63 56 54 54 54 57 60
53 52 52 53 53 53 54 54 54 55 55 55 55 55 56 56 52 43 39 42 45 49 39 43 37 41 46 56 59 60 56 58 58 58 59 60 60 60 58 58 55 53 54 58 59
53 53 53 53 53 53 53 54 54 54 54 54 54 55 55 56 48 38 49 49 48 52 34 45 41 43 48 55 60 61 56 57 58 59 59 59 58 60 57 54 51 51 53 58 58
52 52 52 52 53 53 53 54 54 54 54 54 54 54 55 52 37 42 55 52 50 42 32 44 50 49 52 53 60 59 58 59 58 59 59 58 59 58 61 60 55 52 54 59 58
52 52 52 52 52 53 53 53 53 53 53 54 54 54 52 45 33 51 57 51 44 36 35 50 49 45 49 50 56 50 56 58 57 58 58 58 57 59 61 63 58 52 52 59 58
51 51 52 52 53 52 53 53 52 53 53 54 55 55 50 25 44 50 39 35 24 31 38 51 50 43 48 48 54 57 56 57 57 57 56 56 57 58 61 59 61 52 52 51 52
53 53 52 52 52 53 52 52 52 52 53 55 55 52 44 33 42 48 36 25 22 29 48 50 50 39 43 44 52 56 53 51 56 57 56 61 59 58 61 58 61 52 52 51 51
53 53 52 53 53 53 53 53 52 52 54 57 56 49 37 30 32 37 36 28 20 30 47 48 44 35 34 38 45 49 52 51 53 56 59 57 56 59 61 60 59 53 52 51 50
53 52 52 54 54 53 53 52 52 53 57 57 51 48 36 32 28 27 33 30 24 30 35 40 38 32 29 30 33 46 46 48 47 55 56 55 56 60 63 60 57 54 52 51 49
52 53 53 53 52 51 52 51 51 52 55 49 43 42 41 34 30 24 29 27 24 31 32 36 30 26 27 28 30 41 44 46 47 53 55 56 53 59 60 61 56 54 52 51 50
53 53 52 52 53 52 49 47 46 45 48 37 33 38 33 31 28 27 31 25 30 36 33 30 25 24 28 29 30 36 39 44 48 55 56 55 57 60 60 58 55 54 53 50 51
53 53 52 52 53 52 50 43 41 23 22 38 38 35 34 27 25 28 33 32 31 31 29 26 25 28 30 31 30 30 34 42 50 57 53 50 54 58 58 57 56 55 53 51 51
53 52 52 52 52 48 40 39 38 26 22 22 22 34 31 22 27 29 32 33 28 28 28 26 28 29 29 25 25 26 30 36 44 53 53 51 52 56 58 58 59 59 57 58 52
53 52 52 51 46 39 37 39 40 27 20 19 18 18 24 23 27 31 31 32 28 24 25 27 27 26 25 21 21 21 26 30 45 43 42 51 45 51 57 57 58 59 58 60 60
54 53 51 51 46 36 29 24 24 26 16 14 15 20 21 21 24 31 29 29 27 23 23 21 21 21 19 19 23 21 27 39 41 40 43 45 46 50 56 56 57 58 58 60 61
54 53 52 49 49 43 40 37 26 22 16 26 14 15 16 16 17 23 28 28 26 25 24 21 21 19 19 19 20 23 21 38 38 42 39 39 43 51 53 56 57 59 59 60 62
53 52 50 48 36 36 37 29 24 20 32 27 27 24 12 13 15 18 26 28 27 22 22 25 21 21 19 18 19 19 19 29 32 33 31 30 43 51 56 57 55 54 58 60 60
52 51 48 47 41 38 38 28 27 30 31 32 29 25 21 10 13 17 22 26 28 27 25 23 18 18 20 17 19 19 26 27 28 30 27 29 44 51 55 58 59 57 60 59 59
51 47 44 40 46 43 36 33 33 31 29 27 20 17 18 16 19 18 22 25 26 26 25 22 18 19 18 21 23 23 25 28 25 26 23 47 50 53 55 56 58 60 60 57 58
46 40 35 39 40 39 37 34 36 35 32 27 20 25 28 29 31 37 31 28 25 27 30 28 24 22 19 23 26 26 31 25 24 24 23 46 48 50 53 54 57 58 59 61 62
46 34 36 37 38 41 35 37 36 36 34 22 24 27 30 32 34 38 39 37 32 30 28 29 29 27 26 18 24 29 29 29 26 26 23 37 44 53 52 54 54 57 59 61 62
36 35 37 32 33 41 36 38 37 26 22 24 25 28 36 38 34 37 38 38 37 34 26 34 30 29 30 31 30 30 30 29 26 24 30 42 47 55 54 54 55 57 59 60 61
39 38 29 19 31 35 41 38 37 28 24 25 26 23 30 34 34 32 36 37 34 30 29 34 30 30 28 29 26 23 26 26 26 26 24 30 47 55 55 55 56 57 57 59 59
40 33 25 26 32 33 32 32 29 24 23 24 25 24 21 28 32 29 32 29 24 30 32 31 31 32 28 27 28 19 21 21 22 22 38 45 49 52 53 53 54 55 56 57 58
42 26 20 20 21 19 23 22 20 21 23 24 29 27 22 26 28 27 27 22 22 24 27 30 32 29 30 31 30 24 20 20 21 39 39 46 49 52 52 52 53 53 53 54 54
31 29 30 19 23 22 21 19 20 19 22 23 28 30 26 28 28 30 28 24 28 27 29 31 28 31 31 29 21 17 19 20 19 38 41 44 49 52 52 52 51 50 50 51 52
45 42 40 35 24 21 20 19 19 25 21 20 27 35 31 30 31 30 29 28 28 29 30 30 29 28 27 23 17 18 19 18 31 42 46 45 50 51 50 47 47 46 46 47 47

GFSSW_sfc_30mbdewp_090.txt.gz
Dewpoint
53 53 53 53 53 54 54 54 55 55 55 55 55 55 56 56 56 54 31 19 26 61 59 53 55 43 54 59 62 63 58 54 55 56 58 61 57 60 56 54 55 56 60 61 64
53 53 53 52 53 53 54 54 54 54 55 54 55 55 56 56 53 43 39 44 43 57 49 40 38 36 45 50 58 60 57 56 58 57 59 59 59 60 54 52 54 58 61 63 65
52 52 52 52 52 53 53 54 54 54 54 54 54 55 55 56 46 31 48 46 51 58 37 34 39 39 41 46 60 60 58 58 58 58 60 59 60 60 57 56 54 57 60 61 62
52 52 52 52 52 52 52 53 53 52 53 54 54 55 55 53 31 43 59 51 55 57 37 31 42 40 45 47 61 55 61 61 58 60 59 58 59 60 59 56 55 59 60 61 60
52 51 52 52 52 52 52 52 53 53 53 53 54 55 52 43 23 41 60 57 59 40 30 31 44 48 47 51 60 58 59 60 61 59 59 58 59 59 58 58 56 58 59 60 59
53 52 52 52 52 52 52 52 52 52 53 53 54 55 48 13 32 54 54 51 37 33 30 37 50 50 46 46 55 57 59 59 59 58 59 57 60 57 59 57 56 57 57 57 57
53 53 53 52 52 53 53 52 53 53 53 53 55 53 46 18 40 47 38 32 27 27 35 33 47 50 46 36 55 54 55 59 57 57 56 58 56 56 59 59 53 58 58 57 57
53 52 52 52 52 52 52 53 53 53 54 55 56 51 26 36 35 38 38 29 20 27 31 46 49 47 44 35 32 53 55 54 57 57 58 55 53 58 59 58 58 52 55 56 56
53 52 52 52 52 51 51 52 52 53 55 57 50 49 25 40 34 30 38 30 18 21 28 35 40 39 34 28 29 40 48 50 55 57 58 56 53 59 60 60 57 52 51 52 57
53 52 52 51 51 52 52 52 52 52 54 53 46 42 40 33 26 28 35 31 24 24 29 31 33 33 29 27 27 32 44 49 50 56 57 56 56 61 60 60 58 52 51 51 54
53 52 52 52 52 52 48 46 44 44 47 28 29 39 37 34 33 24 30 29 24 29 29 34 29 26 26 26 27 28 29 31 53 57 54 55 55 58 61 61 60 54 52 50 53
53 52 52 52 51 52 49 38 40 31 25 41 36 37 36 35 29 26 28 25 25 27 33 32 27 27 27 27 27 29 29 45 55 55 53 54 53 54 59 60 59 55 53 50 52
54 53 52 51 51 48 40 35 38 36 29 24 35 32 34 33 29 25 29 30 28 30 32 30 26 26 29 27 28 28 28 32 48 53 54 52 49 52 56 60 60 58 57 52 52
54 53 52 51 43 43 35 33 37 36 21 20 19 19 22 29 25 29 32 32 30 29 29 28 29 27 26 28 28 25 24 24 51 48 45 51 41 50 56 57 57 58 59 59 52
54 54 52 50 45 37 32 37 40 27 17 27 17 19 20 21 27 30 32 31 31 25 26 24 27 26 26 27 28 24 22 23 46 45 46 47 44 48 55 56 56 57 60 58 59
54 53 52 49 49 45 43 41 32 22 17 28 23 25 19 18 21 21 28 30 29 27 26 23 24 23 24 23 21 21 22 33 44 45 39 42 45 49 51 55 57 58 59 59 59
53 52 50 48 34 40 39 35 25 21 32 28 28 30 23 15 16 17 18 26 25 23 23 23 23 25 21 19 19 19 20 23 32 39 36 39 44 44 52 56 57 57 58 59 58
52 50 49 49 45 43 39 32 28 30 30 31 29 22 20 20 15 15 18 25 27 26 26 24 23 24 22 20 19 18 18 22 28 31 33 44 42 49 55 57 58 59 59 60 60
51 47 45 42 47 44 36 30 33 32 32 30 28 23 28 30 32 31 30 25 27 28 25 24 23 26 23 18 19 17 21 25 30 33 28 44 50 52 57 57 57 57 60 59 59
44 40 37 41 44 41 33 31 32 36 35 33 25 29 29 32 30 35 36 36 33 32 32 27 25 28 27 21 20 22 27 25 26 23 23 43 47 47 54 56 58 59 59 61 61
45 33 36 37 42 36 28 31 35 35 35 29 26 30 33 33 35 36 36 35 33 31 32 31 28 27 30 23 18 24 25 28 26 26 23 33 45 54 55 56 57 58 60 61 62
42 32 37 39 33 40 33 39 37 35 34 29 30 34 35 37 34 35 35 34 37 34 29 32 30 27 29 33 31 28 27 28 26 24 37 43 47 55 55 56 57 59 60 61 62
37 37 38 34 26 32 38 36 36 36 31 25 25 27 35 33 30 35 37 38 37 29 28 29 30 28 28 29 29 24 26 28 28 28 26 31 46 56 56 56 57 58 60 60 61
41 31 26 27 35 32 34 34 29 32 32 26 26 24 27 30 34 28 34 34 33 26 37 35 32 30 28 29 31 28 24 23 22 22 41 45 49 53 54 54 56 57 58 59 60
42 29 26 17 23 24 32 33 25 22 24 29 28 30 30 26 29 28 29 29 26 34 33 32 31 32 30 31 32 28 23 21 23 34 32 48 48 52 52 54 55 56 56 55 57
38 38 40 33 26 22 22 20 20 19 19 23 33 31 31 29 30 29 27 28 28 31 32 31 29 33 30 30 27 20 20 21 34 44 49 49 49 53 53 54 53 54 52 52 54
47 43 42 38 23 24 24 25 25 26 25 29 32 34 29 28 29 30 29 28 28 29 30 30 30 33 29 29 25 19 24 29 39 47 50 48 51 52 51 51 51 51 51 51 50

GFSSW_sfc_30mbdewp_093.txt.gz
Dewpoint
53 53 52 52 52 53 53 53 54 54 54 55 55 55 55 56 56 54 29 14 25 56 64 64 61 53 54 58 61 64 58 53 54 56 56 59 55 57 58 57 56 59 59 61 65
52 53 52 52 52 52 52 52 53 54 53 54 54 55 55 56 52 43 36 43 47 64 51 48 43 41 50 53 59 60 57 55 59 60 57 58 56 55 57 56 58 58 61 63 65
52 52 52 52 52 52 52 53 53 53 53 52 54 55 55 56 42 17 48 50 51 64 43 41 37 38 43 45 57 60 57 58 57 59 59 58 59 55 55 56 58 58 61 63 63
52 51 51 52 52 52 52 52 52 52 53 52 53 54 56 53 12 42 61 54 56 60 37 33 39 38 46 47 59 56 60 61 59 60 60 58 60 53 55 57 60 61 63 63 63
52 52 52 52 52 52 52 52 52 52 52 52 52 54 51 38 18 29 64 57 59 52 36 29 43 44 46 49 60 58 58 60 62 61 60 60 58 56 59 59 61 61 63 63 63
52 52 52 52 52 52 52 52 52 52 52 53 53 54 48 9 15 53 53 57 51 41 33 33 43 47 48 47 57 58 59 60 61 61 60 59 60 58 58 59 60 61 61 62 61
53 52 52 52 52 52 52 52 52 52 52 53 53 53 45 17 42 53 51 46 39 34 29 30 45 50 49 45 53 58 56 59 59 59 58 59 57 57 59 59 59 60 60 60 60
53 52 52 51 51 51 51 51 52 53 53 54 55 52 20 32 37 39 37 29 28 30 34 36 36 48 48 45 35 55 56 52 57 57 58 56 53 58 58 57 57 58 58 58 57
52 52 52 51 51 51 52 52 52 53 54 56 50 48 21 37 36 28 38 31 21 22 27 34 42 41 38 31 28 47 50 50 55 58 56 54 53 58 60 58 56 56 56 57 57
53 53 52 52 51 51 53 51 52 53 54 54 49 41 39 33 32 28 34 30 20 19 26 29 33 34 29 27 30 33 43 50 49 55 56 55 53 58 59 59 57 55 56 56 57
54 53 52 52 51 50 49 46 43 40 47 27 27 32 33 35 34 28 35 33 25 29 26 31 32 31 30 28 28 29 29 43 55 57 55 54 55 57 59 59 58 54 52 54 57
55 53 52 51 51 50 48 33 37 35 31 37 39 36 36 36 31 28 32 29 24 25 31 32 30 31 26 27 27 29 29 52 55 56 55 55 53 55 58 58 60 55 53 55 57
54 54 52 52 51 48 41 35 39 36 30 27 37 36 31 36 31 31 28 27 24 26 32 32 29 28 27 27 26 28 28 47 50 54 54 52 49 51 55 59 61 59 59 53 56
54 54 53 51 43 43 36 36 38 35 21 21 20 22 30 28 25 28 29 28 30 26 31 31 32 29 26 26 28 26 28 28 51 49 43 50 40 48 51 55 59 59 59 51 54
54 54 53 50 44 35 36 42 39 27 17 27 23 20 20 21 26 28 32 32 29 28 29 28 27 27 27 27 28 27 29 23 49 46 48 48 45 45 55 55 58 60 59 57 54
53 53 52 48 48 44 44 41 28 21 20 29 29 29 20 19 20 23 30 31 31 30 27 27 25 26 26 26 27 26 21 38 47 46 39 44 46 45 50 54 57 59 59 59 55
52 52 50 48 33 43 41 33 24 21 31 28 28 29 25 22 16 18 20 27 28 26 25 24 24 25 23 22 21 20 21 24 38 39 36 43 45 42 51 55 57 58 59 59 61
51 50 49 49 46 43 37 32 27 31 29 31 30 24 27 30 29 23 19 17 27 25 25 24 21 24 24 24 20 19 19 20 29 34 35 45 40 41 56 55 58 58 60 60 61
49 46 45 44 48 43 35 27 29 31 33 32 27 27 28 31 32 32 31 26 30 28 23 24 24 27 26 23 21 19 18 21 22 32 32 42 48 52 57 57 58 58 59 59 61
45 41 36 45 45 38 30 28 32 36 34 33 26 30 28 31 28 34 34 35 30 32 32 27 23 27 28 26 21 19 24 23 26 28 29 39 44 44 54 56 58 59 59 60 60
41 33 35 44 40 35 30 30 35 36 35 29 27 29 32 32 34 33 34 35 32 30 31 31 28 26 29 24 21 24 23 27 26 28 29 31 38 54 54 56 57 58 60 61 61
40 31 38 39 34 39 31 36 37 35 36 30 32 33 34 36 34 34 34 35 36 31 28 29 30 27 27 30 33 30 23 26 24 25 38 34 37 55 56 57 58 58 59 61 62
37 36 39 34 27 29 36 37 36 33 33 25 25 29 35 33 29 34 36 37 38 29 28 29 30 26 24 29 30 29 26 28 27 29 37 34 38 56 56 57 58 58 58 60 61
40 24 26 33 34 30 33 32 29 33 28 27 27 25 31 30 35 29 31 34 34 35 37 35 32 30 27 28 30 30 31 27 24 25 33 37 47 53 54 54 56 58 58 59 60
36 29 31 24 22 29 32 31 23 21 22 30 29 31 30 26 28 29 29 27 33 41 32 31 27 32 31 31 30 29 29 23 21 28 32 43 46 52 54 54 57 58 58 58 59
38 37 40 36 28 24 21 23 20 20 21 26 32 31 29 29 30 28 28 27 28 31 31 31 31 33 31 33 30 23 25 26 36 47 48 48 48 54 55 55 55 55 55 56 57
46 44 41 33 23 24 24 24 25 25 25 29 31 34 28 27 29 28 29 29 28 29 30 30 31 34 29 32 27 20 25 29 40 49 48 46 50 53 53 53 53 52 52 53 54

GFSSW_sfc_30mbdewp_096.txt.gz
Dewpoint
52 52 52 52 52 52 51 52 53 53 53 53 54 54 55 55 55 54 29 16 27 44 59 64 62 58 60 59 61 65 57 54 55 55 54 59 56 58 58 56 58 59 60 63 66
52 52 52 52 52 52 52 52 52 53 53 53 52 53 55 55 52 41 35 42 46 62 60 50 47 46 53 54 59 60 57 56 59 59 57 57 56 57 55 57 58 60 63 66 65
52 52 52 51 52 52 52 52 52 52 52 53 53 53 55 56 39 10 45 47 52 60 53 45 42 42 46 46 56 60 55 59 60 59 60 56 56 57 57 56 56 59 62 64 64
52 53 52 52 52 52 52 52 52 52 52 52 53 53 55 52 6 45 58 53 59 63 40 40 36 46 51 46 56 57 59 60 61 60 58 57 58 56 56 58 59 61 63 63 63
52 52 52 52 52 52 52 52 52 52 52 52 53 53 51 30 18 36 64 55 59 57 32 38 40 50 51 51 56 58 59 61 62 60 60 60 55 55 58 60 61 62 62 62 62
52 52 52 52 51 52 52 52 52 51 52 52 52 54 46 14 21 56 57 58 53 48 36 35 46 50 48 48 56 58 58 62 63 60 60 59 58 57 60 61 61 62 62 62 62
52 52 52 52 51 51 51 51 50 50 51 52 52 53 41 19 36 53 54 49 49 37 32 32 48 48 49 46 47 59 56 59 61 61 60 61 58 56 61 61 60 62 62 62 63
52 52 52 52 52 51 51 51 52 51 52 53 53 52 19 28 36 45 36 33 36 31 33 31 35 46 48 46 34 57 55 52 59 61 61 60 55 61 63 60 60 60 61 62 61
52 52 52 51 51 51 51 52 53 53 53 54 51 46 20 38 36 32 36 29 27 26 24 32 32 43 39 33 28 48 50 51 55 58 59 56 55 59 61 59 59 59 60 60 59
53 53 52 52 51 51 50 51 53 54 55 54 50 41 38 33 35 28 38 21 19 22 25 26 33 35 30 28 32 37 45 50 50 56 56 53 55 58 60 58 58 58 59 58 58
53 53 52 51 51 50 48 49 37 35 49 30 27 30 30 35 33 29 35 31 26 27 25 30 35 36 32 29 30 31 36 47 56 59 56 55 55 58 58 59 59 58 57 57 59
55 53 52 52 51 50 48 32 35 35 32 36 40 36 36 35 29 28 34 30 25 24 32 31 36 34 30 29 28 29 47 53 55 57 54 55 54 56 58 58 58 59 55 57 57
54 54 52 52 51 48 41 34 38 36 30 27 36 35 31 34 28 29 32 26 24 29 31 34 32 32 27 27 27 28 31 51 51 53 54 52 50 54 55 58 59 60 60 58 57
54 54 54 51 42 43 37 37 39 37 21 25 22 24 33 32 25 31 30 28 27 27 32 32 33 28 27 27 27 24 32 48 52 49 41 52 40 49 51 55 58 58 58 59 58
53 53 52 50 43 36 36 43 41 27 16 30 26 22 23 22 25 27 31 28 29 27 31 31 28 29 27 26 28 27 32 44 51 47 47 47 44 44 52 51 57 59 59 58 57
53 52 50 48 48 43 44 42 28 20 21 28 29 29 20 19 19 28 29 31 31 28 28 30 27 27 27 28 28 29 29 44 47 45 41 43 43 43 51 50 55 59 60 59 56
52 50 49 49 31 44 40 31 23 24 30 27 28 28 27 27 18 20 28 28 28 27 26 25 25 25 25 23 23 25 25 32 37 40 38 43 45 42 52 54 55 58 58 60 58
51 49 48 49 47 43 36 31 26 30 29 32 30 27 27 31 32 26 19 21 27 26 26 25 22 25 24 23 22 20 26 28 31 35 37 46 41 41 56 57 58 59 60 60 58
49 45 44 44 48 44 32 25 28 31 34 31 28 26 27 31 32 32 29 24 29 27 24 24 23 27 24 23 22 20 18 23 28 33 37 42 44 51 57 57 58 59 59 60 60
45 41 35 46 46 35 28 28 30 36 34 31 28 30 26 30 27 33 32 34 30 31 29 26 23 26 28 27 22 21 24 20 25 21 26 33 42 37 54 56 58 58 59 60 61
39 32 36 45 41 34 27 28 33 35 36 28 28 28 31 31 34 32 33 33 32 31 31 30 26 25 28 24 22 24 22 26 26 31 23 29 33 53 54 57 58 59 60 60 61
37 31 39 40 33 37 30 35 37 34 36 31 32 33 32 35 33 33 33 34 35 33 28 31 29 26 26 29 32 30 25 24 23 24 33 31 31 54 55 58 58 58 60 61 62
36 36 38 34 30 27 33 36 37 33 32 25 25 30 35 33 29 33 35 37 38 34 28 30 30 25 24 28 30 29 30 28 28 36 35 28 32 55 57 57 58 58 59 61 62
37 25 27 34 33 30 32 31 29 32 27 29 28 27 31 30 35 30 30 34 34 33 37 35 32 29 23 27 30 28 29 30 25 25 29 36 42 52 54 55 57 58 59 61 62
34 32 31 27 24 31 30 24 22 21 20 31 30 31 30 25 28 29 28 28 35 40 32 30 27 31 31 31 31 29 25 27 22 23 26 30 40 50 53 54 57 58 58 59 60
38 36 40 33 25 24 23 24 19 21 23 23 29 32 30 27 29 27 27 26 28 31 31 31 31 33 31 33 31 24 27 36 31 42 45 44 46 53 54 57 57 56 57 57 59
46 45 35 32 22 23 24 24 25 24 24 26 27 34 28 28 33 30 29 29 29 29 30 30 33 32 28 31 25 20 28 32 35 44 48 40 46 54 54 55 55 55 56 56 58

GFSSW_sfc_30mbdewp_099.txt.gz
Dewpoint
52 52 52 52 52 52 52 52 52 51 52 53 53 53 54 54 55 53 27 15 30 49 61 57 63 63 62 59 62 65 58 54 54 54 55 58 56 58 58 56 58 59 58 61 66
51 52 51 51 51 52 52 51 52 52 52 52 53 54 54 55 50 40 35 43 47 60 54 49 53 56 56 56 58 60 56 56 59 59 56 57 56 55 55 56 59 61 63 64 65
52 52 53 52 52 52 52 51 52 52 52 52 52 54 54 56 38 9 44 48 50 59 54 43 52 51 50 51 57 60 56 59 58 59 58 56 56 54 55 54 58 59 61 63 63
52 52 52 53 52 52 52 52 51 52 52 52 52 53 54 53 3 45 57 51 59 53 45 39 45 52 53 48 53 57 59 59 58 60 58 55 56 54 54 56 57 60 61 62 59
53 52 52 52 51 52 52 52 51 51 51 52 52 53 50 32 18 29 64 54 64 42 39 35 43 53 54 53 54 57 58 59 60 59 60 57 55 54 58 58 60 61 61 59 58
52 52 52 52 52 51 51 51 51 50 51 51 52 54 46 20 33 57 53 57 56 39 34 37 46 53 51 50 53 57 58 61 61 60 62 57 56 54 59 58 59 60 60 60 60
52 52 52 51 51 51 51 50 50 51 50 52 52 52 40 22 34 56 50 47 51 38 31 37 48 49 50 47 50 58 57 58 59 60 60 60 54 57 59 58 59 59 60 60 60
52 52 52 52 51 51 51 50 51 51 51 52 53 51 22 25 37 50 38 40 34 32 31 33 40 48 48 47 40 56 55 53 59 59 61 59 53 59 61 58 58 59 60 60 61
53 53 52 52 51 51 50 50 52 53 52 53 50 45 19 38 36 39 34 32 39 30 26 30 29 43 40 35 35 51 50 51 57 61 60 55 54 59 62 59 58 59 60 60 61
53 53 52 52 51 50 50 51 54 55 55 53 50 41 37 32 35 39 35 29 27 25 26 28 33 41 37 33 34 42 48 50 52 58 57 54 54 59 62 60 58 59 59 60 60
53 53 52 52 51 50 48 50 39 37 48 33 29 30 30 34 30 31 30 23 24 24 27 32 38 42 42 33 31 33 41 49 56 58 56 55 55 58 59 60 59 58 59 59 59
54 53 52 52 51 50 47 33 35 36 32 37 40 35 35 34 28 30 34 26 19 17 29 32 33 40 35 31 29 41 47 51 56 58 55 56 55 57 58 58 60 59 58 59 59
54 54 52 51 51 48 41 35 38 37 31 27 34 34 32 32 27 30 31 26 20 26 27 23 30 36 28 29 27 28 34 49 50 54 53 52 52 55 57 58 59 60 60 58 58
54 54 51 50 43 42 38 38 39 38 23 29 23 28 34 33 27 31 31 25 26 23 32 31 32 36 28 27 28 27 32 51 51 47 43 51 42 51 55 56 58 59 60 58 57
54 53 50 49 44 37 37 43 41 29 17 30 27 24 29 23 26 28 31 29 25 28 31 28 31 32 30 26 30 28 35 50 49 48 47 47 45 48 54 54 56 58 59 58 58
53 51 50 48 48 42 44 40 29 20 22 28 29 28 20 25 20 28 28 30 31 29 31 30 29 31 30 29 30 32 46 47 46 46 39 39 39 45 50 52 54 58 59 59 58
52 50 49 48 32 44 42 32 23 25 30 28 29 27 29 26 24 25 26 27 27 27 26 27 26 26 27 25 27 27 33 36 36 34 31 43 43 39 50 52 52 57 59 59 58
50 48 48 48 47 46 37 31 26 29 30 33 30 28 28 31 31 26 26 26 28 29 28 24 19 26 26 24 23 25 26 30 32 33 32 46 40 41 52 57 55 55 58 60 59
49 45 43 43 47 44 32 26 28 31 34 31 28 26 26 31 31 29 26 24 27 27 27 26 24 27 25 25 24 22 22 29 32 35 35 41 44 47 56 56 56 55 58 59 60
46 39 38 46 45 36 30 27 30 35 34 30 27 30 25 30 27 30 30 32 29 30 29 28 23 26 27 27 23 22 23 21 24 28 29 35 41 36 53 55 57 57 57 59 60
40 34 39 45 42 35 29 29 33 35 36 28 28 27 31 31 34 31 32 33 31 31 32 28 26 25 28 26 23 24 22 26 23 26 24 25 33 50 53 57 57 59 59 60 60
37 32 40 40 33 36 32 35 37 34 35 31 32 32 32 34 32 32 33 35 35 32 29 32 27 24 24 30 31 31 25 24 20 24 27 26 29 55 56 58 59 59 60 61 61
38 37 39 36 30 30 34 35 37 33 29 26 26 31 35 33 29 32 34 36 38 33 30 33 30 23 23 28 31 29 30 30 28 32 27 23 25 54 56 59 59 59 60 61 62
34 29 30 36 34 31 32 30 28 31 28 30 30 31 32 31 35 31 29 33 32 34 42 35 32 28 19 25 30 29 28 28 26 22 22 28 35 52 55 57 58 60 61 61 62
37 34 31 30 26 30 30 24 22 21 23 31 31 31 31 27 29 29 28 28 35 39 34 32 31 32 31 31 30 29 25 33 24 27 24 23 38 46 54 55 57 59 61 61 62
40 39 37 31 26 25 25 25 22 24 24 23 24 28 30 29 30 28 28 29 30 32 33 32 32 34 32 31 32 25 26 33 36 29 29 41 38 50 55 57 58 59 59 60 61
46 45 32 30 25 24 25 25 25 25 26 26 26 28 30 29 30 31 29 29 30 30 33 33 34 34 28 32 28 25 28 31 38 41 43 40 46 52 55 56 57 57 58 59 60

GFSSW_sfc_30mbdewp_105.txt.gz
Dewpoint
53 53 52 53 52 52 52 52 52 52 52 53 53 53 54 55 55 50 29 26 31 59 63 58 58 58 56 55 62 63 58 52 50 51 54 53 54 55 56 54 53 53 53 56 56
53 53 53 53 52 52 52 52 52 52 52 53 53 53 53 55 47 37 38 34 40 59 57 54 56 56 53 54 58 60 57 54 54 53 54 54 53 54 52 52 53 52 55 57 57
53 53 53 52 52 52 52 53 52 52 52 52 53 53 54 54 43 27 49 42 45 54 48 48 55 54 52 55 55 58 57 60 56 57 52 51 52 51 49 49 51 55 57 58 55
54 53 53 52 52 52 52 52 52 52 52 53 52 53 54 48 23 42 55 49 54 48 43 42 47 52 51 52 54 56 58 57 57 58 54 51 52 50 47 49 54 56 56 55 54
53 53 53 52 52 52 51 51 51 51 52 52 53 53 51 38 28 51 56 51 40 48 41 37 41 50 50 53 52 55 57 56 56 57 55 53 50 51 50 53 54 55 54 53 50
53 53 53 52 52 52 52 51 51 51 51 51 52 53 44 31 28 43 44 32 26 43 38 34 38 47 54 54 52 56 57 58 59 57 55 51 51 50 50 54 53 53 51 49 49
53 53 53 53 52 52 52 51 51 51 51 52 53 51 37 29 31 43 36 25 27 37 32 30 30 47 53 50 50 57 55 56 59 59 57 58 49 49 51 52 52 50 47 49 48
54 53 53 53 52 52 51 51 51 51 52 52 54 48 32 25 38 39 37 34 33 34 29 27 32 42 51 48 53 56 56 53 58 60 58 57 50 51 52 51 48 47 47 48 50
55 54 53 53 53 52 51 51 52 52 53 53 52 45 22 27 36 34 35 36 33 32 30 32 35 47 50 45 47 56 52 52 57 60 58 56 53 52 49 48 48 48 48 50 51
55 54 54 53 52 51 51 52 54 54 53 50 44 35 29 26 33 26 23 31 32 26 25 26 32 47 46 43 37 47 51 53 54 56 57 56 56 57 49 48 49 49 50 51 52
54 54 54 53 52 51 50 50 48 47 44 34 26 28 27 30 33 29 27 24 24 24 18 18 24 39 42 42 41 53 55 53 56 56 55 55 56 57 58 54 53 52 51 52 53
54 54 54 52 51 51 49 36 32 32 30 27 27 28 29 28 30 28 27 22 18 17 19 15 17 27 43 47 37 38 49 52 56 56 53 55 55 57 58 56 56 53 53 52 54
54 54 53 51 51 49 39 34 34 34 31 21 22 24 27 28 25 26 23 21 18 13 15 17 12 19 42 44 37 36 50 51 51 56 55 53 51 54 57 57 59 60 58 53 53
54 54 52 50 45 33 32 35 34 35 28 21 23 27 27 26 22 28 23 20 14 11 13 17 16 14 38 39 37 33 50 52 51 50 44 51 44 52 55 56 58 56 57 57 50
54 52 51 50 45 29 34 34 35 35 19 22 19 29 27 26 24 23 24 22 18 11 12 11 16 18 29 36 37 33 37 52 52 45 40 48 43 47 55 55 55 56 56 57 56
53 51 50 47 42 35 35 34 35 23 21 22 23 23 25 21 24 24 22 25 25 16 13 16 20 24 28 30 35 37 39 40 41 39 34 42 39 43 49 54 55 54 55 56 56
51 50 49 43 31 34 34 34 24 19 23 20 19 20 19 17 22 24 24 23 22 18 15 16 22 23 27 28 33 39 39 36 34 30 29 39 36 43 48 51 55 55 53 53 55
51 50 47 42 37 36 39 32 19 21 22 23 20 19 18 18 21 22 22 21 23 22 14 10 16 23 27 30 28 34 34 35 33 32 29 38 33 43 48 51 53 55 53 51 53
50 45 37 37 37 37 35 26 21 21 23 20 19 17 18 17 20 19 20 19 21 25 21 14 15 21 22 24 28 27 30 33 34 40 37 38 40 49 46 48 50 52 54 54 56
47 32 32 38 40 38 32 22 24 25 24 22 22 22 20 18 15 17 19 20 22 23 26 27 18 20 20 21 20 24 26 25 27 27 29 30 35 40 45 46 48 48 52 56 56
44 30 31 36 38 36 23 23 23 26 27 24 19 18 20 19 22 17 26 26 23 25 26 27 22 21 20 19 18 18 19 22 23 22 19 22 31 46 47 47 49 50 50 54 57
36 29 29 35 31 25 23 24 28 23 24 23 23 22 22 24 20 19 22 30 29 24 23 24 22 22 22 21 17 17 15 17 16 19 19 19 40 47 47 47 49 50 51 55 59
36 27 29 31 26 23 26 24 26 24 23 23 22 24 25 24 23 23 24 30 31 26 27 28 20 21 21 21 22 19 21 17 14 15 15 16 31 48 51 52 53 51 53 56 59
32 26 27 25 22 24 25 25 23 23 24 25 24 24 23 23 26 26 24 26 29 27 34 31 23 19 23 26 27 22 19 20 19 17 14 16 25 44 46 51 55 56 55 56 58
29 26 28 22 19 21 22 20 19 20 20 21 25 22 23 25 24 26 24 25 28 35 31 25 22 23 27 27 26 25 21 19 22 21 19 17 18 23 43 49 55 59 60 61 61
35 26 22 20 20 21 17 19 16 17 16 17 15 14 21 26 28 30 25 25 26 29 27 26 23 33 30 24 25 23 25 28 23 22 20 20 19 31 48 52 56 60 60 61 62
40 35 30 22 21 19 20 19 19 17 20 16 18 14 16 27 29 29 27 28 30 30 29 27 25 24 24 20 22 20 22 23 23 23 23 21 22 43 46 50 54 59 60 61 62

GFSSW_sfc_30mbdewp_108.txt.gz
Dewpoint
53 53 53 53 53 53 53 53 53 53 53 53 54 54 54 54 55 49 34 31 29 44 58 46 56 59 55 56 61 63 57 55 51 48 46 45 53 53 55 54 51 52 52 55 53
54 54 53 53 52 53 53 53 53 53 53 53 53 54 54 55 47 39 37 36 47 50 56 55 55 56 54 53 58 60 58 55 55 51 47 50 53 53 53 50 52 51 54 54 52
54 53 53 53 53 53 52 52 53 52 53 53 53 53 54 54 45 33 52 40 35 47 52 53 56 55 52 52 56 57 58 61 59 55 52 52 54 51 49 51 52 52 52 51 51
54 54 53 53 52 52 52 52 52 52 53 53 53 54 54 49 32 41 51 48 44 21 50 46 51 53 51 51 54 54 62 59 61 55 55 47 47 47 47 50 53 55 53 51 51
53 53 53 53 53 53 53 52 52 52 52 52 53 54 50 42 33 48 58 54 29 25 44 42 43 51 50 52 53 57 57 59 59 56 52 48 46 51 50 53 54 55 53 51 50
54 53 53 53 53 53 53 52 52 52 52 52 53 54 45 35 28 52 40 34 19 33 40 38 38 47 51 53 55 56 56 56 55 56 59 50 51 47 52 52 53 53 52 50 49
54 54 54 54 53 53 53 53 52 52 52 52 53 51 41 34 29 37 37 17 18 32 38 37 36 40 48 53 54 57 56 56 59 59 59 54 49 46 49 51 51 51 49 49 48
55 55 54 54 54 53 53 52 52 52 53 53 54 47 39 28 31 39 33 24 16 29 35 33 31 29 40 53 51 55 56 52 56 58 61 56 49 47 50 50 49 48 46 48 48
55 55 54 54 53 53 52 52 52 53 54 54 52 45 33 25 24 35 33 28 30 32 31 27 25 31 40 49 48 54 51 53 55 60 58 55 50 49 49 49 48 46 46 47 49
55 55 54 55 53 52 52 52 54 54 54 49 46 39 35 23 25 31 31 32 28 30 29 28 28 31 41 47 43 49 50 51 54 58 58 54 52 48 48 47 46 45 46 47 50
55 54 54 55 53 52 50 48 49 45 46 38 31 30 26 25 31 24 23 29 31 25 22 23 23 28 41 45 47 48 50 52 55 57 56 55 55 54 54 48 48 46 47 49 50
54 54 54 54 52 52 49 40 29 30 30 37 21 23 26 27 28 25 24 22 23 20 21 16 14 21 36 44 49 50 50 53 54 57 55 55 55 56 58 58 52 53 51 50 53
54 54 54 53 51 49 37 35 32 30 31 19 20 20 23 24 26 24 24 19 16 14 16 17 13 13 20 35 48 52 50 52 51 54 56 54 51 55 57 57 58 59 59 57 55
54 54 52 51 47 34 32 32 30 32 29 19 18 24 24 23 22 26 24 20 17 13 10 12 17 13 15 29 39 48 51 50 51 51 47 51 43 49 53 54 55 57 58 57 57
54 53 52 51 46 33 33 27 30 32 28 21 18 28 25 24 22 23 23 19 17 11 10 10 13 16 13 34 37 45 49 48 51 49 46 49 45 50 55 52 53 56 56 56 58
53 52 50 48 46 34 29 29 29 26 29 22 20 22 23 22 23 22 24 23 21 19 10 10 13 15 16 27 33 43 47 46 48 48 46 46 46 44 51 50 50 51 51 56 58
52 51 50 47 35 29 30 30 27 24 29 18 18 17 20 16 20 22 18 20 21 19 13 10 17 19 22 25 33 35 45 39 41 45 40 41 45 45 51 52 50 49 50 55 58
51 50 48 40 39 33 33 34 29 29 17 20 16 17 20 16 20 20 20 19 20 20 14 12 10 19 20 24 27 30 32 31 30 32 40 46 38 42 49 51 52 53 52 55 56
50 42 42 37 36 34 34 30 27 21 19 16 16 15 22 17 21 18 19 17 18 21 19 23 11 16 22 24 28 29 29 31 36 38 34 43 44 47 48 49 52 54 55 53 55
46 41 28 30 34 35 33 24 20 21 18 19 23 23 24 22 12 16 19 18 24 24 22 27 25 17 20 21 23 26 28 25 25 30 33 39 40 46 48 49 53 55 55 54 52
41 36 21 30 34 34 30 21 20 21 23 23 23 21 24 22 22 22 25 27 27 27 24 26 28 25 19 18 17 16 21 24 23 23 24 34 39 52 46 49 49 54 55 55 52
36 34 24 32 31 28 23 22 24 20 18 21 19 20 23 24 19 20 23 27 28 25 22 23 24 26 24 21 19 18 15 20 20 22 23 24 38 49 50 54 54 49 55 55 54
37 32 23 28 26 23 23 22 24 24 20 21 21 22 23 22 22 28 26 32 28 21 30 29 25 19 22 25 21 16 16 15 14 16 17 17 35 50 46 51 49 50 53 57 58
39 28 26 24 23 22 23 24 23 20 22 22 23 21 21 22 23 27 31 23 25 21 32 27 26 21 23 31 31 24 15 16 19 12 12 14 42 46 50 47 48 51 56 59 60
34 31 28 24 19 21 23 22 18 19 19 19 22 20 20 23 30 29 27 22 26 32 25 22 23 23 30 29 28 29 27 25 18 18 16 18 25 43 45 47 49 54 57 60 60
39 34 24 19 22 21 16 20 15 16 16 16 16 14 11 21 26 29 28 27 31 30 25 24 21 24 27 28 27 24 25 28 22 17 20 22 24 43 55 56 55 58 61 60 60
38 36 30 23 18 19 21 18 17 16 19 14 15 15 10 24 28 27 28 25 28 33 36 34 23 23 22 25 23 24 23 27 26 25 22 19 39 35 50 57 59 59 61 62 62

GFSSW_sfc_30mbdewp_111.txt.gz
Dewpoint
53 53 53 53 52 52 52 53 53 53 54 54 54 54 55 56 55 50 39 31 33 43 57 47 42 50 60 57 63 63 55 52 53 52 47 54 54 56 52 50 50 53 53 55 59
53 54 53 53 53 53 53 53 53 54 53 54 54 54 55 55 51 43 40 47 49 49 40 49 47 53 58 55 59 59 56 56 58 58 52 54 55 51 53 54 52 53 53 55 60
53 54 54 53 53 53 53 53 53 53 53 54 54 54 55 55 47 39 54 52 44 45 41 52 54 56 54 53 55 60 56 58 58 60 52 53 53 52 53 53 53 52 53 51 54
54 54 53 53 53 54 53 53 53 53 53 53 53 54 55 52 36 40 50 54 42 31 31 48 49 52 53 51 54 56 61 60 59 60 59 53 54 51 52 53 53 53 53 51 50
55 54 54 54 54 54 54 54 53 53 53 53 53 54 52 45 37 42 51 50 41 20 18 45 47 48 53 52 53 55 58 59 59 60 61 56 51 50 52 54 52 51 51 51 49
55 55 55 55 55 54 54 54 54 53 53 53 53 54 49 34 44 50 53 47 23 14 22 41 43 45 53 52 54 59 60 59 61 62 60 53 51 53 54 55 53 52 50 50 50
56 56 55 55 54 54 54 54 53 53 53 53 54 52 43 40 32 51 38 32 17 16 32 40 41 37 44 53 56 57 56 58 59 60 58 60 50 51 54 54 53 52 50 50 51
55 55 55 55 55 54 54 54 53 53 53 54 54 51 38 39 34 35 32 20 14 23 32 38 38 35 29 56 60 59 55 52 57 59 59 59 48 50 52 52 52 50 50 48 49
55 55 55 55 55 54 53 53 53 55 55 55 53 47 41 28 24 29 35 26 13 15 25 34 31 27 26 35 50 53 50 49 52 59 55 57 49 49 51 51 50 49 49 48 50
55 55 55 55 55 53 52 52 52 54 55 51 48 43 42 34 24 22 33 29 20 26 30 31 28 24 29 34 43 49 49 51 50 57 57 56 50 51 50 49 49 46 48 49 50
55 54 54 55 54 53 50 45 50 48 46 43 39 37 27 30 30 29 30 30 29 27 28 27 25 25 28 34 50 50 51 53 55 58 56 56 53 56 58 50 47 46 47 49 51
54 54 54 54 53 52 50 37 39 29 28 41 40 24 25 26 26 24 22 26 30 25 25 23 22 22 26 50 51 52 51 51 55 57 56 55 54 57 58 58 59 58 47 50 52
54 54 54 53 52 50 41 36 34 32 29 31 36 19 22 22 25 25 23 20 25 23 20 20 19 16 16 47 51 50 50 51 50 54 54 54 51 54 56 57 57 57 59 54 53
54 54 52 51 48 42 37 36 35 30 29 22 16 22 23 22 21 25 25 21 18 15 14 15 17 17 12 29 48 48 53 52 51 48 44 53 42 50 54 54 56 56 57 56 57
54 52 51 50 47 37 35 29 27 30 27 30 20 27 27 21 22 24 24 22 20 18 13 10 9 11 16 34 49 50 51 53 50 48 50 49 47 46 51 50 53 54 56 58 57
52 51 51 49 49 39 33 30 28 26 27 30 20 20 22 21 23 24 23 21 20 21 20 10 11 12 16 45 45 53 54 51 50 49 43 45 48 42 51 51 51 53 55 57 58
53 52 50 47 42 40 32 32 31 26 30 24 18 20 21 20 21 21 22 20 20 19 20 14 9 14 19 41 47 51 48 42 41 40 39 47 47 47 48 52 51 50 52 56 58
52 50 48 45 38 36 34 34 33 31 26 20 16 17 22 22 20 20 18 16 19 20 21 14 9 18 19 32 42 45 43 38 33 36 41 49 46 46 50 51 51 52 49 54 59
50 47 41 43 46 38 34 32 28 21 18 19 21 24 24 24 22 19 20 18 19 19 19 24 23 17 20 19 25 32 39 36 40 40 35 43 48 50 51 51 52 51 51 52 58
47 39 38 42 39 34 35 31 18 19 20 26 24 25 25 26 21 21 26 26 25 26 25 25 26 29 17 21 21 29 30 26 33 33 35 39 40 43 47 50 51 51 49 52 55
46 35 36 34 34 35 32 27 21 17 22 21 21 25 27 27 22 25 27 29 30 26 24 25 28 28 25 20 19 20 21 24 26 27 30 36 39 48 43 48 51 55 53 53 54
43 38 28 32 31 33 27 20 22 20 18 20 18 21 27 24 23 28 28 28 26 23 26 29 27 25 27 28 20 19 18 22 23 21 24 28 35 45 45 51 53 53 57 56 54
42 35 37 28 25 26 22 20 23 22 20 21 23 21 22 21 25 29 30 31 29 22 30 27 28 25 24 27 31 20 18 18 18 15 14 18 33 49 51 46 52 49 56 59 58
44 36 31 28 24 23 24 25 22 20 20 20 23 22 22 24 32 32 26 26 25 23 28 25 25 30 27 29 34 30 30 27 17 15 14 18 43 46 45 49 47 40 46 58 58
43 34 37 28 24 23 21 22 16 18 18 18 20 20 15 18 30 31 32 28 29 29 24 23 21 24 29 29 30 29 28 28 27 27 20 33 42 51 50 53 54 53 55 57 57
39 40 39 30 21 22 19 20 16 16 17 17 15 16 15 11 28 32 33 28 31 31 33 32 23 28 24 27 28 28 30 28 27 29 26 44 48 52 53 58 59 59 62 62 61
50 50 44 34 26 19 23 18 16 21 20 16 17 15 15 27 30 28 19 23 26 30 33 33 35 34 27 28 26 25 33 31 32 41 46 49 54 56 52 53 53 54 59 62 63

GFSSW_sfc_30mbdewp_114.txt.gz
Dewpoint
53 53 53 53 53 53 53 54 54 54 54 54 54 55 55 56 55 51 35 28 35 37 58 40 42 41 51 59 63 63 53 51 52 53 52 52 49 52 53 54 54 56 57 61 63
53 53 53 53 54 53 53 53 53 54 54 54 54 55 55 56 52 41 37 46 49 49 38 41 43 47 52 58 60 58 55 56 59 59 56 51 51 51 51 51 53 54 60 61 61
55 54 54 54 54 54 54 54 54 54 54 54 54 54 54 55 46 36 51 47 54 51 35 45 50 50 54 54 59 58 56 57 54 58 60 55 47 52 51 51 51 56 59 60 60
55 55 55 55 54 54 54 54 54 54 54 54 53 54 55 53 33 41 50 54 56 46 28 39 49 49 52 53 57 57 58 57 57 58 59 57 54 54 53 53 53 56 60 60 60
56 56 56 55 55 55 55 55 55 54 54 53 54 54 51 44 33 41 59 59 45 24 14 30 48 47 52 53 57 57 58 58 59 59 59 60 57 53 54 54 54 58 58 59 60
56 56 56 56 55 55 55 55 55 54 54 54 54 55 49 26 40 49 46 44 31 17 11 22 45 45 51 53 53 59 59 58 59 60 62 58 55 54 55 54 53 52 51 55 57
56 56 56 55 55 55 55 54 54 53 54 54 54 53 45 21 45 52 48 40 25 18 15 20 31 41 39 55 59 60 57 59 60 61 60 60 52 53 53 51 51 51 50 52 58
55 55 55 55 54 55 54 53 53 54 54 55 55 52 29 39 41 37 43 23 20 15 15 32 36 36 34 57 57 55 56 55 58 60 58 57 52 53 53 51 52 49 51 56 58
55 55 55 55 55 55 53 53 53 54 57 55 53 47 36 44 29 33 33 23 12 14 21 29 31 33 29 47 52 54 49 51 53 59 57 55 52 55 54 52 52 50 50 56 56
55 54 54 54 55 54 52 51 52 53 55 53 50 43 40 34 24 25 27 28 14 13 15 20 29 25 26 31 41 49 50 51 51 57 57 54 53 55 53 53 51 50 50 50 55
55 54 54 55 54 53 49 43 41 42 48 37 36 37 36 32 29 25 26 30 21 23 25 29 25 24 24 30 47 51 50 52 55 57 56 55 54 56 58 55 50 49 48 51 53
54 55 55 53 52 51 49 32 35 34 30 36 41 42 40 30 27 28 28 28 28 25 27 26 24 25 30 49 51 51 51 51 54 58 56 55 54 57 57 57 57 56 49 50 52
55 54 52 52 51 49 40 34 35 33 29 30 36 37 35 21 23 25 21 20 28 27 24 23 22 26 44 51 46 49 49 50 51 54 55 53 52 54 55 57 58 57 58 51 51
54 52 51 51 47 45 38 38 37 33 28 30 22 21 20 22 21 24 22 21 20 26 25 20 21 21 20 50 49 48 51 51 52 47 43 53 44 50 52 51 55 56 56 54 52
54 53 51 50 44 33 33 33 31 32 24 30 22 27 26 21 22 24 25 24 22 21 18 13 11 14 16 48 47 44 52 51 50 49 48 48 43 45 52 49 53 54 55 57 55
54 53 51 48 48 38 38 38 30 27 23 29 21 20 23 23 22 24 23 22 21 19 20 21 18 11 17 48 46 51 52 50 50 48 43 44 46 41 46 49 49 53 55 57 57
53 51 49 48 37 41 36 35 32 26 30 27 23 20 21 21 23 23 23 21 19 19 20 21 17 32 50 49 53 51 47 44 42 40 38 48 47 45 49 49 49 50 54 55 58
51 50 48 47 40 41 35 33 31 32 30 27 17 22 22 23 22 22 21 19 19 20 19 19 13 37 45 48 49 47 43 40 37 38 40 49 43 44 49 50 52 52 54 55 57
50 47 43 40 45 40 34 32 24 18 20 24 25 23 21 23 26 21 21 17 23 19 18 22 23 27 38 43 49 46 41 43 39 41 38 44 45 48 49 51 52 52 52 53 55
43 42 37 39 44 36 34 33 25 18 22 23 24 27 25 26 24 25 26 29 28 26 26 25 23 29 29 32 45 39 40 35 36 34 32 42 41 40 49 50 50 50 51 50 56
45 35 35 40 39 35 31 32 22 17 21 20 21 26 27 26 25 27 28 28 27 22 30 27 28 27 26 21 20 20 22 25 29 35 30 35 37 46 45 50 52 51 51 51 57
44 28 41 35 30 34 31 23 24 20 21 23 22 27 24 23 26 28 27 28 31 27 27 28 28 25 25 28 31 20 19 22 21 21 25 32 25 47 49 49 53 55 55 52 57
37 37 35 34 25 26 28 20 23 19 20 20 22 22 23 29 26 30 29 30 29 29 25 26 27 26 25 26 31 31 31 29 22 20 15 13 17 50 48 49 54 54 56 57 55
42 33 37 33 28 24 25 25 21 20 20 18 19 20 19 27 32 30 29 32 29 28 31 26 28 29 26 26 31 30 30 29 26 20 23 18 26 47 54 56 59 61 51 56 58
46 34 38 36 29 22 18 19 17 19 18 18 18 16 13 11 28 31 31 30 30 31 26 24 20 29 31 27 30 30 30 31 31 38 28 30 47 51 57 54 54 58 57 60 60
37 45 46 43 34 33 21 19 16 16 16 15 16 15 16 26 30 28 23 22 27 27 32 34 27 32 27 28 27 28 35 45 45 45 49 51 52 55 57 56 55 59 58 57 58
48 50 48 41 39 37 23 18 20 19 24 21 17 14 17 23 21 24 24 29 36 34 34 34 33 31 26 30 27 31 40 45 47 51 52 48 51 54 54 57 59 58 58 57 57

GFSSW_sfc_30mbdewp_117.txt.gz
Dewpoint
54 54 53 53 53 54 54 53 53 53 53 54 54 54 55 55 55 52 32 26 32 47 58 42 47 40 48 58 63 62 52 50 51 51 52 52 52 53 56 56 56 57 59 61 66
54 54 54 54 54 54 53 53 53 53 53 53 54 54 55 55 52 42 36 44 51 49 39 38 39 45 52 58 60 58 53 53 57 58 55 51 51 53 54 54 57 58 61 63 65
55 55 55 54 54 54 54 54 53 53 53 54 54 54 55 55 43 29 48 48 52 60 33 42 49 49 52 58 59 58 52 55 56 58 59 59 53 52 53 53 57 58 60 63 60
56 56 56 55 55 54 54 54 54 54 54 54 54 54 55 53 24 40 53 53 58 49 27 40 49 50 51 53 59 55 58 58 58 58 59 57 58 50 51 53 58 60 61 60 60
56 56 56 55 55 55 55 54 55 55 54 54 54 55 51 37 26 44 63 56 57 32 22 32 49 50 48 55 58 56 57 58 59 60 59 58 57 53 53 55 59 60 60 59 60
55 56 56 56 55 55 55 55 54 54 54 54 54 55 48 14 33 52 56 52 36 22 14 33 47 46 45 49 54 57 58 58 58 59 60 58 57 58 55 56 58 59 59 59 60
55 55 55 55 55 55 55 54 54 54 54 54 55 53 43 13 47 47 42 37 32 19 15 18 35 40 40 50 60 60 57 58 59 60 58 59 55 54 54 56 57 58 59 59 60
55 55 55 54 54 54 54 54 53 54 55 55 55 52 29 35 41 36 48 30 27 24 17 29 27 36 36 57 57 55 57 52 58 59 58 58 51 55 54 53 56 56 58 58 58
55 55 54 54 54 54 54 53 53 54 57 55 52 47 32 43 38 37 44 22 17 16 17 22 32 32 37 49 52 53 50 50 53 57 59 56 52 55 53 52 51 51 52 54 58
55 55 55 55 53 52 51 52 54 54 55 54 51 41 35 32 29 31 36 20 12 12 14 16 25 27 27 34 37 46 50 51 51 54 58 54 54 54 53 51 50 50 55 56 57
55 55 54 53 52 51 49 43 36 35 49 33 32 34 35 35 28 23 25 29 22 22 23 29 27 25 23 29 44 51 51 52 53 56 56 54 55 56 57 56 51 50 53 56 56
54 54 52 52 51 50 49 25 31 34 29 36 41 41 41 40 29 27 29 29 27 25 27 26 25 26 27 40 50 51 49 50 53 56 56 54 54 58 58 57 56 56 49 54 55
54 55 52 51 51 48 41 34 36 33 29 30 36 36 32 31 23 25 26 26 28 26 25 25 24 26 48 51 49 50 46 50 49 54 54 54 52 55 57 57 57 57 57 53 55
54 54 52 51 45 44 35 40 35 34 28 27 20 27 24 22 21 23 22 21 21 26 26 24 25 23 51 48 48 45 51 51 51 48 44 53 43 51 55 54 54 56 56 54 56
54 53 51 50 41 27 31 38 37 33 17 27 26 25 23 21 21 23 25 23 19 20 19 18 17 19 27 46 48 44 52 51 50 49 47 49 46 47 53 53 54 53 55 55 57
53 52 50 47 47 40 42 37 30 27 21 28 25 20 23 23 23 24 24 23 23 20 20 19 21 17 19 34 48 52 50 50 49 46 41 44 47 45 50 53 53 51 55 56 56
52 51 49 47 34 42 35 36 29 24 30 25 24 20 21 21 23 23 22 20 18 19 19 20 21 49 51 50 52 51 46 41 40 40 38 48 45 43 48 49 51 50 54 56 56
51 50 49 47 42 38 36 34 21 26 27 27 24 22 22 25 23 23 22 21 20 20 18 18 35 46 48 48 47 47 43 39 36 37 38 49 41 42 48 50 50 52 53 55 58
49 46 43 41 46 39 34 27 19 18 19 24 26 25 26 27 25 23 19 19 25 21 17 20 22 31 47 50 47 46 42 42 38 41 39 44 46 45 48 50 51 50 50 54 56
44 41 36 42 40 36 33 31 32 19 21 23 24 27 25 25 24 26 26 29 27 25 24 25 22 28 35 49 48 45 44 38 38 33 33 39 42 39 48 48 50 52 50 53 55
43 32 36 42 38 34 29 30 31 20 20 21 24 25 26 24 26 27 29 29 28 24 29 27 27 26 25 27 41 29 34 29 35 36 30 31 32 47 48 50 50 52 52 53 55
38 25 38 36 31 33 30 31 23 19 22 23 23 22 23 28 27 27 27 28 31 30 23 27 28 24 26 28 31 29 26 24 22 21 29 31 22 50 53 54 54 54 55 53 54
36 36 39 35 29 25 27 25 23 19 19 21 22 23 29 28 26 30 30 31 30 28 23 25 28 27 25 27 29 31 31 29 22 21 17 15 21 56 58 59 59 54 56 57 56
39 28 36 34 29 25 24 24 20 20 19 18 15 15 19 22 31 28 28 30 30 30 30 27 30 29 27 27 29 30 32 30 26 25 26 20 45 54 53 56 56 59 60 59 58
44 34 38 38 37 34 23 19 20 16 17 18 15 17 14 26 28 27 26 24 28 30 31 24 24 28 31 32 28 31 41 43 41 43 28 45 50 52 55 55 57 56 58 59 60
41 46 47 44 41 37 23 17 16 16 15 15 15 18 26 26 29 25 24 20 25 29 33 34 27 31 26 30 32 42 44 44 47 50 50 51 50 53 57 58 58 58 56 54 58
44 49 48 42 41 36 34 27 16 22 23 17 17 13 21 22 22 24 29 37 38 34 33 34 32 30 23 30 31 30 43 46 48 51 49 44 49 53 55 54 54 56 58 57 59

GFSSW_sfc_30mbdewp_120.txt.gz
Dewpoint
53 53 54 54 54 54 53 52 52 52 53 53 53 53 54 55 55 52 29 26 34 57 50 55 45 40 50 60 63 62 51 49 51 49 50 53 54 56 58 57 56 59 60 62 67
55 55 55 53 53 53 53 53 53 53 53 53 54 54 54 55 51 40 35 45 51 53 36 40 36 49 55 59 60 56 50 52 57 58 55 52 53 55 56 55 58 59 63 66 64
56 56 56 55 55 55 54 53 53 53 53 54 54 54 55 56 41 28 44 50 55 55 35 46 46 51 53 59 59 58 51 56 57 58 59 58 53 54 54 54 57 58 62 64 62
56 56 56 56 55 55 55 55 53 54 54 54 54 55 56 52 22 40 53 55 59 58 29 43 50 50 52 54 59 56 59 57 59 59 58 57 57 52 53 55 58 61 62 63 61
55 56 56 55 55 55 55 55 55 54 53 54 54 55 50 29 25 45 64 60 54 36 26 43 50 50 49 55 58 56 58 58 60 59 59 59 57 52 53 58 60 61 62 61 60
55 55 55 55 55 55 55 55 54 54 54 54 55 55 46 12 32 55 55 53 38 24 18 46 50 50 46 44 56 58 58 58 60 59 59 57 57 55 56 60 59 60 60 60 60
55 55 55 55 55 55 55 54 54 54 54 55 55 54 36 14 46 50 45 42 32 24 15 19 42 41 39 54 60 59 56 58 59 60 57 59 54 55 57 59 59 59 59 60 60
55 55 55 55 54 54 52 52 53 54 55 55 55 51 31 30 41 41 44 35 29 22 19 26 32 36 36 59 57 56 55 52 58 58 59 57 51 57 57 58 58 58 59 59 60
55 55 55 54 53 52 51 52 53 54 56 55 52 45 29 43 39 40 44 20 20 20 17 23 31 32 49 51 51 52 48 51 54 58 58 56 53 55 57 56 57 58 58 59 60
55 55 53 52 52 51 51 52 55 55 56 54 51 38 32 32 34 34 40 13 12 14 15 19 27 27 29 42 36 46 48 50 50 54 57 55 54 55 55 56 56 57 58 58 58
55 55 54 52 51 50 49 43 34 34 48 33 32 33 34 37 30 28 35 33 23 23 24 26 27 25 24 28 43 51 50 48 53 56 56 54 56 55 55 54 53 51 53 55 58
54 54 53 52 51 50 48 25 33 32 28 34 40 40 41 40 29 27 29 28 27 25 27 26 25 27 27 35 49 51 49 50 54 56 56 55 54 57 58 57 54 51 54 55 57
54 54 52 51 51 48 41 34 35 35 29 29 35 36 33 37 24 26 29 29 28 26 25 25 25 26 45 49 49 50 48 50 50 55 55 54 52 55 57 58 58 57 54 56 56
54 53 51 50 44 42 33 40 37 35 26 25 21 27 29 22 21 25 25 22 22 25 26 25 23 34 50 49 49 42 51 51 52 48 47 53 44 51 56 56 56 56 57 54 56
53 52 51 50 35 24 29 39 38 32 17 28 28 23 22 21 22 23 24 22 19 21 20 20 17 22 45 46 48 48 52 51 50 48 47 49 46 45 54 54 55 55 56 56 55
52 52 50 47 45 37 43 37 31 25 20 27 29 20 23 23 23 24 24 23 23 20 21 21 21 19 25 43 49 52 50 49 49 46 39 45 45 43 50 52 54 55 55 56 55
51 51 49 47 30 41 37 36 24 22 29 24 25 20 21 23 23 23 22 22 19 18 19 20 26 49 52 50 52 49 45 39 39 39 38 47 45 42 47 52 54 54 54 56 55
50 50 49 48 44 41 37 27 17 22 24 27 25 24 24 26 24 22 22 21 20 20 18 18 23 47 49 50 49 47 43 37 35 37 38 49 44 41 48 52 54 54 54 56 55
49 45 43 41 47 43 33 20 17 19 19 24 26 25 25 26 25 24 20 19 23 21 16 19 21 37 47 50 50 47 42 43 38 41 39 41 46 45 50 49 50 52 52 55 56
44 39 35 42 42 36 31 29 30 27 20 25 23 26 24 25 24 26 27 29 26 24 23 24 21 29 44 48 48 46 46 37 39 32 34 35 41 42 48 49 49 49 51 54 57
40 31 37 43 38 32 28 29 31 25 21 21 25 24 25 24 27 27 28 28 30 26 27 28 27 27 29 40 42 39 41 32 37 36 30 29 31 51 53 52 50 51 52 52 57
35 28 38 36 31 33 29 31 28 20 22 23 23 22 26 28 28 27 28 29 32 30 22 28 27 24 27 29 31 32 27 25 27 24 30 31 26 55 57 58 55 54 53 53 58
33 35 41 35 29 28 27 25 25 19 19 22 19 26 29 29 27 30 29 30 31 27 24 26 28 25 27 29 28 30 31 28 22 22 20 16 26 54 56 56 57 56 56 55 57
36 28 37 36 30 26 24 23 21 20 18 17 14 16 18 27 30 24 25 28 28 34 33 30 31 29 25 27 28 28 33 30 25 19 19 20 47 52 53 55 56 58 59 57 56
41 34 39 36 36 37 33 21 21 16 17 17 15 16 17 26 27 25 26 21 26 33 33 24 26 28 30 33 30 32 42 46 43 43 28 44 48 52 54 56 57 56 57 59 59
46 47 47 43 42 37 27 18 17 16 15 15 14 22 26 25 27 26 24 21 22 31 33 35 26 31 24 31 37 41 44 45 49 50 49 49 49 54 56 57 56 58 57 57 59
42 47 48 43 40 35 35 34 19 22 21 16 17 22 22 23 25 26 31 36 36 33 32 32 31 29 21 30 34 31 39 44 48 50 49 46 50 55 54 54 54 55 55 55 57

GFSSW_sfc_30mbdewp_123.txt.gz
Dewpoint
54 54 55 54 53 53 53 53 53 53 53 54 54 54 55 55 55 51 25 27 38 51 55 51 41 45 54 61 63 61 53 49 48 48 49 54 54 56 58 55 56 59 56 60 66
56 55 55 55 55 55 54 54 54 54 53 54 54 54 55 56 50 37 33 44 53 60 43 36 41 52 57 59 60 56 52 52 58 57 51 52 53 56 54 54 58 60 62 64 65
56 56 56 56 55 55 55 55 55 53 53 53 54 55 55 56 41 30 50 51 55 52 34 46 50 54 55 59 59 57 53 57 58 58 56 53 53 54 53 51 57 56 61 62 62
56 56 56 56 55 55 55 55 55 54 53 53 55 55 56 52 26 38 61 58 57 52 32 49 52 53 54 55 59 56 58 58 59 58 58 55 56 53 54 53 57 59 61 62 62
55 56 56 56 55 55 55 55 55 54 53 54 55 55 49 24 22 45 63 60 54 37 36 50 54 51 50 53 57 56 58 59 60 59 58 58 56 53 53 58 58 60 61 61 61
55 55 55 55 55 55 55 54 54 54 54 55 55 56 43 22 38 56 56 39 30 25 23 50 52 52 44 51 57 58 58 59 59 59 58 57 57 53 56 59 59 60 59 60 60
55 55 55 55 55 54 53 52 52 53 54 55 55 53 32 25 47 50 43 39 30 23 18 34 43 41 38 57 60 58 56 57 59 60 57 59 55 53 57 57 58 58 59 60 60
55 55 55 54 53 52 52 52 52 53 54 55 55 51 28 30 40 42 42 31 29 23 20 23 41 36 45 58 56 54 53 52 56 59 58 57 50 57 57 56 57 58 59 59 60
55 55 53 53 52 51 51 52 54 54 55 56 51 44 29 44 39 41 43 20 27 21 21 24 29 34 56 50 49 53 48 50 53 58 58 57 51 57 57 55 55 57 58 58 59
55 55 53 53 51 50 50 53 56 56 56 54 50 37 32 33 33 38 42 16 14 15 18 25 29 29 43 41 39 44 49 49 50 54 57 55 54 57 57 56 56 56 57 58 58
55 54 53 52 51 50 48 45 36 34 45 32 32 32 33 37 29 34 36 29 21 21 24 28 32 31 29 35 34 42 50 48 51 55 53 55 55 55 56 56 55 56 57 58 58
54 53 52 51 51 51 47 32 33 33 29 33 38 39 39 40 26 27 32 29 28 24 29 32 32 29 27 30 43 47 49 50 53 55 54 54 54 56 56 55 56 56 56 57 57
54 52 52 51 50 47 40 33 36 35 29 29 33 35 34 37 25 26 28 30 29 27 27 34 27 27 31 36 45 48 46 50 50 55 55 54 51 53 58 59 57 55 55 56 56
54 52 51 50 43 38 32 40 38 37 25 27 24 30 30 23 22 26 29 24 25 26 27 27 25 33 37 35 46 42 49 50 52 50 47 54 45 51 56 56 57 55 53 54 55
53 52 50 50 31 25 33 38 35 32 16 28 28 23 22 22 22 23 24 22 24 24 24 24 18 32 35 34 48 46 51 50 49 48 48 50 47 48 54 53 55 56 55 53 54
52 51 50 47 44 38 43 35 32 24 19 27 29 21 23 23 23 24 24 23 23 21 22 21 22 21 25 47 48 52 49 49 48 47 42 44 46 43 50 52 53 56 56 55 53
51 50 49 46 30 40 38 37 24 20 28 24 24 21 23 25 23 23 23 23 20 19 20 21 23 45 44 44 51 48 45 40 40 40 38 46 46 43 47 51 53 54 56 56 55
50 50 49 47 45 42 37 28 20 21 23 25 26 26 25 27 24 23 23 22 22 21 19 18 25 44 49 42 42 44 36 35 33 37 38 48 42 43 49 50 51 54 57 56 56
49 46 43 41 47 44 33 20 18 20 19 22 26 25 25 26 26 24 22 21 23 22 21 20 22 45 48 50 47 45 39 42 38 39 35 39 44 48 50 51 53 52 55 55 56
45 38 37 43 42 37 31 27 29 31 19 26 24 27 24 25 25 27 28 29 26 25 23 25 23 33 48 49 47 46 45 40 39 33 31 33 39 42 51 54 53 53 54 55 55
37 34 39 42 39 35 28 29 31 30 24 23 26 24 25 26 28 28 29 29 31 28 28 28 28 29 43 44 43 44 43 40 37 37 30 29 32 53 54 57 54 52 52 53 55
34 31 38 37 32 34 29 31 29 23 23 23 24 24 28 29 29 29 28 29 32 31 22 29 28 26 28 31 31 39 37 40 33 30 34 32 30 54 56 56 57 55 53 52 54
35 35 41 36 29 31 30 26 27 22 19 22 22 28 30 30 29 30 29 30 30 28 25 28 29 27 28 29 29 32 33 29 24 25 25 22 26 54 56 56 58 58 57 56 58
38 29 40 38 32 31 29 25 22 20 18 18 17 22 22 28 30 27 26 27 27 37 35 32 32 30 24 29 30 30 37 34 25 23 22 20 37 52 54 55 56 57 59 58 59
42 36 40 37 37 38 36 25 22 18 18 19 19 16 22 26 28 27 27 23 26 35 35 27 28 30 29 32 31 41 42 45 41 43 28 31 44 52 54 55 56 57 59 60 61
46 47 47 44 43 39 27 21 20 18 18 17 17 23 26 24 28 26 26 24 24 31 35 35 29 34 25 30 32 39 39 40 47 47 47 47 47 53 56 57 57 56 57 57 58
42 47 49 44 41 35 34 34 22 22 22 19 19 23 22 24 30 30 32 37 36 35 34 35 32 30 23 31 32 31 35 36 44 49 48 46 49 54 54 54 54 55 56 56 57

GFSSW_sfc_30mbdewp_126.txt.gz
Dewpoint
55 56 56 55 55 55 55 55 54 54 54 54 55 55 55 55 55 47 26 31 34 44 52 42 45 52 56 59 59 57 50 46 44 45 49 52 52 55 55 53 51 55 51 55 61
56 56 56 56 56 56 56 56 55 55 54 54 54 55 55 56 44 29 35 42 50 55 42 37 47 52 55 56 57 54 50 52 57 52 49 50 52 52 50 50 54 54 56 59 60
56 56 56 56 56 56 56 56 55 55 54 54 54 55 55 56 39 35 55 49 57 53 36 37 50 53 54 55 56 56 52 58 58 55 50 51 52 54 48 47 52 54 56 57 58
56 56 56 56 56 56 56 56 55 54 54 54 54 55 56 48 24 35 60 53 56 41 40 45 52 52 53 53 56 53 57 57 59 56 53 51 52 53 50 49 53 55 56 57 57
56 56 56 56 56 55 55 55 54 54 54 55 55 56 51 32 30 48 58 54 40 32 46 49 50 53 50 51 54 54 56 58 59 58 56 55 52 51 53 53 53 55 56 55 56
55 55 55 55 55 54 54 53 53 53 54 55 55 56 42 28 45 51 42 33 29 24 44 51 52 52 48 53 54 56 56 59 60 59 57 54 53 51 53 53 54 54 54 55 56
55 55 54 54 53 53 53 53 52 53 53 55 55 52 31 35 44 42 31 23 24 23 40 50 52 44 43 55 58 57 55 56 58 59 56 57 54 51 54 53 53 52 53 55 57
55 55 54 53 53 52 52 52 53 53 54 55 56 49 27 30 40 37 35 31 29 24 29 40 47 38 46 55 54 53 53 50 56 58 57 55 46 53 55 53 53 52 53 55 56
55 55 54 53 53 52 51 52 54 55 56 56 52 43 28 40 36 38 39 16 27 23 25 29 39 39 51 46 44 50 44 48 52 58 57 53 50 55 55 53 52 51 53 55 56
55 54 53 53 52 51 51 52 56 57 56 52 47 36 32 31 31 37 28 16 14 19 27 35 40 37 45 40 34 40 43 47 49 54 56 54 52 56 55 53 53 51 51 54 55
54 53 53 52 51 51 49 45 41 38 40 30 29 28 30 32 29 32 26 15 13 18 34 41 41 36 34 39 32 34 45 47 50 54 54 54 52 54 56 54 55 52 50 53 53
54 53 52 52 51 51 48 32 33 34 27 31 34 33 34 34 24 30 34 25 15 14 24 37 36 37 32 30 32 37 43 47 52 53 54 54 54 56 56 56 56 54 51 52 52
54 52 52 51 51 50 37 33 34 35 27 26 29 29 29 31 24 27 31 26 19 21 23 29 34 35 31 32 34 37 40 42 45 53 55 53 50 55 56 56 56 55 52 51 51
54 52 51 51 46 34 33 35 36 36 23 23 23 29 27 24 22 27 29 25 22 18 27 31 28 29 34 33 35 34 45 44 47 49 45 53 45 51 54 56 57 55 54 51 50
53 52 51 50 35 27 36 34 35 33 17 25 22 26 23 22 23 24 28 22 22 21 26 26 28 30 25 30 37 39 45 44 45 44 45 49 46 48 52 54 55 55 54 52 50
52 51 51 46 40 36 37 35 33 26 19 23 25 21 22 23 23 23 25 25 24 20 20 20 22 22 22 29 37 46 44 44 46 43 40 43 43 46 50 53 54 54 54 53 51
51 50 49 42 29 35 36 36 26 17 25 20 20 20 23 23 22 22 22 21 19 16 15 17 17 21 25 28 41 44 42 30 37 37 36 42 42 42 46 49 54 53 54 54 54
50 50 49 43 41 40 35 30 20 20 20 23 22 22 23 24 23 22 20 19 20 19 16 14 20 26 30 27 31 38 33 25 30 33 35 44 39 45 49 51 50 50 53 54 54
50 45 41 40 42 42 34 20 19 19 20 22 22 21 21 23 24 22 20 18 21 23 20 16 17 36 40 40 35 33 35 31 32 34 32 36 38 47 49 53 52 50 51 54 54
44 38 38 41 41 38 29 21 22 25 21 21 19 22 19 22 22 23 24 26 24 25 26 25 21 33 43 45 44 41 38 30 30 32 31 32 33 37 49 53 53 50 50 54 55
41 33 39 41 39 34 23 23 24 24 24 21 21 22 22 23 25 24 25 27 27 26 27 25 24 30 42 40 36 41 40 36 37 39 36 32 31 47 53 55 55 53 54 55 55
34 29 39 39 32 29 23 25 27 21 23 22 22 20 25 26 25 25 25 28 29 26 24 26 23 22 26 30 36 39 37 37 32 35 32 36 34 51 56 56 56 54 53 55 56
32 33 40 37 27 25 28 24 25 22 20 21 21 22 26 24 25 26 27 28 28 26 26 26 23 22 23 28 32 29 31 31 33 34 33 28 34 53 55 55 57 56 56 55 54
38 27 36 36 34 30 27 25 23 24 21 20 20 22 20 21 24 24 23 26 27 32 32 29 24 25 26 32 29 29 31 33 28 25 26 29 29 49 53 55 56 58 58 57 57
36 29 41 32 31 31 33 27 23 20 20 19 20 19 17 17 18 18 21 23 26 33 34 26 24 26 25 28 28 28 29 34 29 31 30 29 32 49 54 55 56 58 59 60 61
40 43 44 40 42 36 32 28 23 23 21 20 21 19 20 21 20 17 21 22 23 29 29 29 26 27 24 24 28 30 33 33 35 37 37 39 38 51 56 56 56 57 58 58 58
36 43 46 38 38 34 28 27 23 22 22 21 20 20 20 19 24 25 25 28 29 29 28 28 26 27 21 25 23 24 29 31 31 38 38 34 44 52 54 55 55 56 57 57 57

GFSSW_sfc_30mbdewp_129.txt.gz
Dewpoint
57 57 57 56 56 56 56 56 56 56 55 55 55 55 55 56 55 48 28 28 36 39 46 42 46 52 53 55 56 55 53 48 42 44 47 49 49 52 50 49 47 50 50 53 55
56 56 56 56 56 56 56 56 56 56 56 55 55 55 56 56 47 28 42 39 42 48 40 41 46 49 50 55 55 52 52 54 56 48 47 49 49 48 46 47 48 49 53 55 56
56 56 56 56 56 56 56 56 56 56 55 55 55 55 56 56 42 36 51 46 56 56 44 37 46 48 52 55 57 53 53 56 56 53 48 49 50 48 43 46 48 49 53 55 55
56 56 56 56 56 56 56 56 56 55 55 55 55 56 56 51 28 43 55 53 58 46 33 37 46 48 53 55 53 53 56 56 58 56 50 49 49 51 49 46 50 52 54 53 55
56 56 56 56 55 55 55 54 54 53 54 55 56 56 53 40 35 53 55 53 41 35 37 45 47 50 51 50 52 52 56 56 57 55 53 53 50 50 50 49 51 52 52 53 53
55 56 55 54 54 54 54 54 54 53 54 55 56 56 49 30 41 46 32 31 28 26 42 48 48 50 46 51 51 53 55 56 58 58 55 51 50 50 50 49 51 52 50 50 51
55 55 55 54 54 54 54 53 53 53 54 55 56 52 38 37 40 30 24 20 22 21 40 49 51 49 45 51 54 55 55 56 56 57 55 56 51 48 51 50 49 50 51 52 53
55 55 54 54 54 53 53 52 53 55 55 55 56 51 30 38 38 34 28 21 20 22 34 49 50 42 41 53 50 51 52 50 54 56 56 56 47 53 52 50 48 48 50 53 53
55 55 54 53 53 53 52 52 55 55 56 56 54 47 25 32 33 35 35 18 20 20 31 43 46 42 46 45 45 46 44 49 53 57 55 54 47 53 52 50 48 47 49 52 53
55 54 53 53 53 52 51 52 56 56 56 50 45 38 33 28 28 33 21 19 18 17 31 44 46 37 39 40 37 44 40 44 48 53 55 52 48 58 52 52 51 49 49 51 52
54 53 53 53 52 52 50 46 46 43 41 25 22 24 27 27 29 30 20 11 9 18 30 39 39 33 30 36 39 33 41 47 49 53 52 53 52 52 53 52 53 50 48 49 51
54 53 53 53 52 51 49 32 32 31 24 26 27 25 27 26 22 26 24 15 11 12 26 34 33 31 33 32 32 32 35 43 49 52 52 53 52 55 54 53 54 51 48 50 50
54 53 53 52 51 50 35 33 35 33 27 24 26 25 26 28 23 24 26 23 13 11 16 23 27 32 31 30 31 32 40 47 41 51 53 52 50 52 56 56 54 55 53 50 49
54 53 53 51 45 31 32 34 35 34 26 23 23 25 25 23 20 24 26 23 19 15 18 17 29 31 29 28 29 27 37 40 40 48 46 50 44 51 54 55 56 53 54 52 49
53 52 51 50 40 28 31 34 34 33 21 23 20 24 23 21 22 21 24 19 21 17 20 24 28 26 23 26 28 33 41 38 40 39 48 48 46 49 53 54 55 54 54 52 48
52 51 51 47 41 31 32 33 34 26 20 21 21 20 21 21 21 21 22 23 22 20 18 19 25 22 24 22 26 31 37 38 38 35 37 44 44 47 48 48 54 54 54 54 49
51 50 49 43 30 30 33 33 29 19 20 19 18 18 21 20 20 21 21 20 19 15 15 13 15 16 17 20 27 33 32 29 30 31 32 48 44 47 48 49 51 54 54 54 50
51 50 48 38 35 34 34 29 23 17 17 19 16 18 22 22 20 20 19 18 17 17 15 13 12 14 20 18 26 31 29 30 31 29 35 45 40 50 47 48 53 53 53 54 52
49 46 39 35 36 37 34 25 19 17 18 18 18 19 20 21 22 20 19 17 19 19 19 18 17 23 27 23 25 28 27 40 28 32 32 41 43 48 49 50 50 51 51 53 53
42 36 36 37 38 36 30 24 20 19 18 17 18 20 19 20 20 20 22 22 22 21 21 23 20 23 26 32 33 34 47 30 21 26 32 36 42 37 46 51 53 52 50 50 55
42 33 37 36 37 32 27 22 21 21 21 17 19 19 18 21 21 20 25 24 23 23 22 20 19 32 32 31 27 28 32 33 32 34 36 36 38 39 50 53 52 53 53 58 56
36 26 38 36 30 26 25 22 23 20 20 19 20 19 22 24 23 22 22 25 28 23 21 24 20 22 29 33 39 40 39 42 33 35 40 39 38 47 53 55 53 53 53 60 60
35 28 36 35 26 26 23 24 22 20 19 19 18 18 21 22 23 23 24 27 26 24 27 26 21 15 25 29 33 34 39 41 41 43 37 35 36 45 51 53 55 54 52 52 57
37 22 27 31 29 27 27 25 22 22 21 19 19 20 19 18 21 23 23 24 25 25 31 25 20 20 27 31 33 33 33 33 34 39 37 36 39 47 50 53 56 58 56 53 57
38 23 27 31 26 26 26 27 24 22 21 20 21 20 18 16 16 16 16 17 22 31 26 25 21 21 27 28 31 32 34 34 26 25 28 36 37 49 53 55 56 58 60 61 62
36 39 38 35 31 35 28 28 26 22 22 20 21 21 18 19 20 19 17 19 19 26 26 26 24 23 22 22 20 20 24 23 25 28 39 41 39 56 56 56 56 58 59 59 60
37 35 38 30 29 31 29 29 27 25 23 22 22 21 20 21 21 22 20 16 22 26 26 26 25 24 21 23 25 21 20 22 29 30 35 32 49 52 54 55 55 56 57 58 58